<?xml version="1.0" encoding="UTF-8" standalone="no" ?>
<gpx xmlns="http://www.topografix.com/GPX/1/1" xmlns:xsi="http://www.w3.org/2001/XMLSchema-instance" xsi:schemaLocation="http://www.topografix.com/GPX/1/1 http://www.topografix.com/GPX/1/1/gpx.xsd" version="1.1" creator="VisuGPX - https://www.visugpx.com">
  <metadata>
    <name>Aups-St Barthélémy</name>
    <desc><![CDATA[Au départ du gîte, petite randonnée jusqu\'au site de St Barthélémy proche de Salernes avec son étang, sa chapelle, ses grottes ...]]></desc>
  </metadata>
  <trk>
    <name><![CDATA[PLERIMOND ST BARTHELEMY TUILERIE]]></name>
    <trkseg>
      <trkpt lat="43.59939" lon="6.25068">
        <ele>456.28</ele>
        <time>2015-03-08T16:48:57Z</time>
      </trkpt>
      <trkpt lat="43.59939" lon="6.25068">
        <ele>456.76</ele>
        <time>2015-03-08T16:49:19Z</time>
      </trkpt>
      <trkpt lat="43.59938" lon="6.25067">
        <ele>456.28</ele>
        <time>2015-03-08T16:49:37Z</time>
      </trkpt>
      <trkpt lat="43.59938" lon="6.25064">
        <ele>455.8</ele>
        <time>2015-03-08T16:49:48Z</time>
      </trkpt>
      <trkpt lat="43.59938" lon="6.25064">
        <ele>456.28</ele>
        <time>2015-03-08T16:50:00Z</time>
      </trkpt>
      <trkpt lat="43.59939" lon="6.25063">
        <ele>455.8</ele>
        <time>2015-03-08T16:50:16Z</time>
      </trkpt>
      <trkpt lat="43.59939" lon="6.25062">
        <ele>455.8</ele>
        <time>2015-03-08T16:50:28Z</time>
      </trkpt>
      <trkpt lat="43.59937" lon="6.25065">
        <ele>455.8</ele>
        <time>2015-03-08T16:50:43Z</time>
      </trkpt>
      <trkpt lat="43.59938" lon="6.25064">
        <ele>455.8</ele>
        <time>2015-03-08T16:51:00Z</time>
      </trkpt>
      <trkpt lat="43.59938" lon="6.25064">
        <ele>455.8</ele>
        <time>2015-03-08T16:51:17Z</time>
      </trkpt>
      <trkpt lat="43.59939" lon="6.25062">
        <ele>455.8</ele>
        <time>2015-03-08T16:51:27Z</time>
      </trkpt>
      <trkpt lat="43.5994" lon="6.25061">
        <ele>456.28</ele>
        <time>2015-03-08T16:51:45Z</time>
      </trkpt>
      <trkpt lat="43.59938" lon="6.25062">
        <ele>455.8</ele>
        <time>2015-03-08T16:51:48Z</time>
      </trkpt>
      <trkpt lat="43.59938" lon="6.2506">
        <ele>455.8</ele>
        <time>2015-03-08T16:52:02Z</time>
      </trkpt>
      <trkpt lat="43.59938" lon="6.25062">
        <ele>455.8</ele>
        <time>2015-03-08T16:52:18Z</time>
      </trkpt>
      <trkpt lat="43.59937" lon="6.25062">
        <ele>455.8</ele>
        <time>2015-03-08T16:52:37Z</time>
      </trkpt>
      <trkpt lat="43.59938" lon="6.25062">
        <ele>455.32</ele>
        <time>2015-03-08T16:52:49Z</time>
      </trkpt>
      <trkpt lat="43.59939" lon="6.25062">
        <ele>456.28</ele>
        <time>2015-03-08T16:53:04Z</time>
      </trkpt>
      <trkpt lat="43.59938" lon="6.25063">
        <ele>456.28</ele>
        <time>2015-03-08T16:53:31Z</time>
      </trkpt>
      <trkpt lat="43.59937" lon="6.25062">
        <ele>456.28</ele>
        <time>2015-03-08T16:53:52Z</time>
      </trkpt>
      <trkpt lat="43.59937" lon="6.25061">
        <ele>456.76</ele>
        <time>2015-03-08T16:54:16Z</time>
      </trkpt>
      <trkpt lat="43.59938" lon="6.25062">
        <ele>456.28</ele>
        <time>2015-03-08T16:54:30Z</time>
      </trkpt>
      <trkpt lat="43.59938" lon="6.25062">
        <ele>456.28</ele>
        <time>2015-03-08T16:54:51Z</time>
      </trkpt>
      <trkpt lat="43.59937" lon="6.25062">
        <ele>456.76</ele>
        <time>2015-03-08T16:55:18Z</time>
      </trkpt>
      <trkpt lat="43.59937" lon="6.25061">
        <ele>456.76</ele>
        <time>2015-03-08T16:55:48Z</time>
      </trkpt>
      <trkpt lat="43.59937" lon="6.25062">
        <ele>456.76</ele>
        <time>2015-03-08T16:56:19Z</time>
      </trkpt>
      <trkpt lat="43.59937" lon="6.25062">
        <ele>456.76</ele>
        <time>2015-03-08T16:56:39Z</time>
      </trkpt>
      <trkpt lat="43.59937" lon="6.25061">
        <ele>457.24</ele>
        <time>2015-03-08T16:57:16Z</time>
      </trkpt>
      <trkpt lat="43.59937" lon="6.25061">
        <ele>457.24</ele>
        <time>2015-03-08T16:57:46Z</time>
      </trkpt>
      <trkpt lat="43.59937" lon="6.25061">
        <ele>457.24</ele>
        <time>2015-03-08T16:58:20Z</time>
      </trkpt>
      <trkpt lat="43.59937" lon="6.25061">
        <ele>457.24</ele>
        <time>2015-03-08T16:58:58Z</time>
      </trkpt>
      <trkpt lat="43.59937" lon="6.25061">
        <ele>457.24</ele>
        <time>2015-03-08T16:59:33Z</time>
      </trkpt>
      <trkpt lat="43.59937" lon="6.25061">
        <ele>457.24</ele>
        <time>2015-03-08T17:00:10Z</time>
      </trkpt>
      <trkpt lat="43.59937" lon="6.25061">
        <ele>457.24</ele>
        <time>2015-03-08T17:00:40Z</time>
      </trkpt>
      <trkpt lat="43.59937" lon="6.25061">
        <ele>457.24</ele>
        <time>2015-03-08T17:01:12Z</time>
      </trkpt>
      <trkpt lat="43.59937" lon="6.2506">
        <ele>457.72</ele>
        <time>2015-03-08T17:01:41Z</time>
      </trkpt>
      <trkpt lat="43.59937" lon="6.2506">
        <ele>457.72</ele>
        <time>2015-03-08T17:01:56Z</time>
      </trkpt>
      <trkpt lat="43.59943" lon="6.25076">
        <ele>457.72</ele>
        <time>2015-03-08T17:02:11Z</time>
      </trkpt>
      <trkpt lat="43.59946" lon="6.25078">
        <ele>457.24</ele>
        <time>2015-03-08T17:02:33Z</time>
      </trkpt>
      <trkpt lat="43.59944" lon="6.25077">
        <ele>457.24</ele>
        <time>2015-03-08T17:03:02Z</time>
      </trkpt>
      <trkpt lat="43.59943" lon="6.25076">
        <ele>457.24</ele>
        <time>2015-03-08T17:03:29Z</time>
      </trkpt>
      <trkpt lat="43.59942" lon="6.25075">
        <ele>457.24</ele>
        <time>2015-03-08T17:03:55Z</time>
      </trkpt>
      <trkpt lat="43.59941" lon="6.25075">
        <ele>457.24</ele>
        <time>2015-03-08T17:04:26Z</time>
      </trkpt>
      <trkpt lat="43.59941" lon="6.25075">
        <ele>457.24</ele>
        <time>2015-03-08T17:04:32Z</time>
      </trkpt>
      <trkpt lat="43.59935" lon="6.25071">
        <ele>457.24</ele>
        <time>2015-03-08T17:04:41Z</time>
      </trkpt>
      <trkpt lat="43.59934" lon="6.25071">
        <ele>457.24</ele>
        <time>2015-03-08T17:05:06Z</time>
      </trkpt>
      <trkpt lat="43.59934" lon="6.25071">
        <ele>457.24</ele>
        <time>2015-03-08T17:05:41Z</time>
      </trkpt>
      <trkpt lat="43.59932" lon="6.2507">
        <ele>457.24</ele>
        <time>2015-03-08T17:06:06Z</time>
      </trkpt>
      <trkpt lat="43.59933" lon="6.25068">
        <ele>457.72</ele>
        <time>2015-03-08T17:06:20Z</time>
      </trkpt>
      <trkpt lat="43.59933" lon="6.25068">
        <ele>458.21</ele>
        <time>2015-03-08T17:06:21Z</time>
      </trkpt>
      <trkpt lat="43.59933" lon="6.25062">
        <ele>457.72</ele>
        <time>2015-03-08T17:06:29Z</time>
      </trkpt>
      <trkpt lat="43.59933" lon="6.25061">
        <ele>457.72</ele>
        <time>2015-03-08T17:06:34Z</time>
      </trkpt>
      <trkpt lat="43.59935" lon="6.25056">
        <ele>457.72</ele>
        <time>2015-03-08T17:06:48Z</time>
      </trkpt>
      <trkpt lat="43.59935" lon="6.25055">
        <ele>457.72</ele>
        <time>2015-03-08T17:07:03Z</time>
      </trkpt>
      <trkpt lat="43.59935" lon="6.25056">
        <ele>457.72</ele>
        <time>2015-03-08T17:07:31Z</time>
      </trkpt>
      <trkpt lat="43.59935" lon="6.25056">
        <ele>457.24</ele>
        <time>2015-03-08T17:07:56Z</time>
      </trkpt>
      <trkpt lat="43.59936" lon="6.25055">
        <ele>457.72</ele>
        <time>2015-03-08T17:08:07Z</time>
      </trkpt>
      <trkpt lat="43.59941" lon="6.25046">
        <ele>457.72</ele>
        <time>2015-03-08T17:08:23Z</time>
      </trkpt>
      <trkpt lat="43.59946" lon="6.25033">
        <ele>457.72</ele>
        <time>2015-03-08T17:08:42Z</time>
      </trkpt>
      <trkpt lat="43.59955" lon="6.2502">
        <ele>458.69</ele>
        <time>2015-03-08T17:09:02Z</time>
      </trkpt>
      <trkpt lat="43.59955" lon="6.25019">
        <ele>458.69</ele>
        <time>2015-03-08T17:09:04Z</time>
      </trkpt>
      <trkpt lat="43.59961" lon="6.25007">
        <ele>459.65</ele>
        <time>2015-03-08T17:09:21Z</time>
      </trkpt>
      <trkpt lat="43.59961" lon="6.25006">
        <ele>459.17</ele>
        <time>2015-03-08T17:09:27Z</time>
      </trkpt>
      <trkpt lat="43.5996" lon="6.25013">
        <ele>459.17</ele>
        <time>2015-03-08T17:09:33Z</time>
      </trkpt>
      <trkpt lat="43.59965" lon="6.25021">
        <ele>461.57</ele>
        <time>2015-03-08T17:09:44Z</time>
      </trkpt>
      <trkpt lat="43.59967" lon="6.25021">
        <ele>462.05</ele>
        <time>2015-03-08T17:09:48Z</time>
      </trkpt>
      <trkpt lat="43.59974" lon="6.25008">
        <ele>463.49</ele>
        <time>2015-03-08T17:09:58Z</time>
      </trkpt>
      <trkpt lat="43.5997" lon="6.25013">
        <ele>463.97</ele>
        <time>2015-03-08T17:10:10Z</time>
      </trkpt>
      <trkpt lat="43.5997" lon="6.25012">
        <ele>463.97</ele>
        <time>2015-03-08T17:10:22Z</time>
      </trkpt>
      <trkpt lat="43.59971" lon="6.25013">
        <ele>464.45</ele>
        <time>2015-03-08T17:10:27Z</time>
      </trkpt>
      <trkpt lat="43.59972" lon="6.25014">
        <ele>463.97</ele>
        <time>2015-03-08T17:10:37Z</time>
      </trkpt>
      <trkpt lat="43.59972" lon="6.25015">
        <ele>463.97</ele>
        <time>2015-03-08T17:10:56Z</time>
      </trkpt>
      <trkpt lat="43.59974" lon="6.25013">
        <ele>464.45</ele>
        <time>2015-03-08T17:10:59Z</time>
      </trkpt>
      <trkpt lat="43.59979" lon="6.25008">
        <ele>464.93</ele>
        <time>2015-03-08T17:11:07Z</time>
      </trkpt>
      <trkpt lat="43.59982" lon="6.25009">
        <ele>464.45</ele>
        <time>2015-03-08T17:11:20Z</time>
      </trkpt>
      <trkpt lat="43.59982" lon="6.25008">
        <ele>464.45</ele>
        <time>2015-03-08T17:11:23Z</time>
      </trkpt>
      <trkpt lat="43.59982" lon="6.25007">
        <ele>464.45</ele>
        <time>2015-03-08T17:11:35Z</time>
      </trkpt>
      <trkpt lat="43.59981" lon="6.2501">
        <ele>464.93</ele>
        <time>2015-03-08T17:11:38Z</time>
      </trkpt>
      <trkpt lat="43.59978" lon="6.2501">
        <ele>463.49</ele>
        <time>2015-03-08T17:11:43Z</time>
      </trkpt>
      <trkpt lat="43.59982" lon="6.25001">
        <ele>463.01</ele>
        <time>2015-03-08T17:11:49Z</time>
      </trkpt>
      <trkpt lat="43.59998" lon="6.24982">
        <ele>463.97</ele>
        <time>2015-03-08T17:12:07Z</time>
      </trkpt>
      <trkpt lat="43.60002" lon="6.24977">
        <ele>463.97</ele>
        <time>2015-03-08T17:12:14Z</time>
      </trkpt>
      <trkpt lat="43.59999" lon="6.2497">
        <ele>464.93</ele>
        <time>2015-03-08T17:12:31Z</time>
      </trkpt>
      <trkpt lat="43.59997" lon="6.24971">
        <ele>466.38</ele>
        <time>2015-03-08T17:12:45Z</time>
      </trkpt>
      <trkpt lat="43.59996" lon="6.24968">
        <ele>465.9</ele>
        <time>2015-03-08T17:12:57Z</time>
      </trkpt>
      <trkpt lat="43.59993" lon="6.24967">
        <ele>465.9</ele>
        <time>2015-03-08T17:13:13Z</time>
      </trkpt>
      <trkpt lat="43.59995" lon="6.24967">
        <ele>465.9</ele>
        <time>2015-03-08T17:13:28Z</time>
      </trkpt>
      <trkpt lat="43.59992" lon="6.24964">
        <ele>463.97</ele>
        <time>2015-03-08T17:13:43Z</time>
      </trkpt>
      <trkpt lat="43.59992" lon="6.24965">
        <ele>463.01</ele>
        <time>2015-03-08T17:14:00Z</time>
      </trkpt>
      <trkpt lat="43.59995" lon="6.24971">
        <ele>463.49</ele>
        <time>2015-03-08T17:14:18Z</time>
      </trkpt>
      <trkpt lat="43.59997" lon="6.24969">
        <ele>463.97</ele>
        <time>2015-03-08T17:14:35Z</time>
      </trkpt>
      <trkpt lat="43.59997" lon="6.24971">
        <ele>463.49</ele>
        <time>2015-03-08T17:14:40Z</time>
      </trkpt>
      <trkpt lat="43.59994" lon="6.24976">
        <ele>463.49</ele>
        <time>2015-03-08T17:14:57Z</time>
      </trkpt>
      <trkpt lat="43.59988" lon="6.24963">
        <ele>463.97</ele>
        <time>2015-03-08T17:15:15Z</time>
      </trkpt>
      <trkpt lat="43.59988" lon="6.24965">
        <ele>463.97</ele>
        <time>2015-03-08T17:15:34Z</time>
      </trkpt>
      <trkpt lat="43.59987" lon="6.24959">
        <ele>461.09</ele>
        <time>2015-03-08T17:15:54Z</time>
      </trkpt>
      <trkpt lat="43.59985" lon="6.24966">
        <ele>459.65</ele>
        <time>2015-03-08T17:16:08Z</time>
      </trkpt>
      <trkpt lat="43.59984" lon="6.24968">
        <ele>460.13</ele>
        <time>2015-03-08T17:16:27Z</time>
      </trkpt>
      <trkpt lat="43.59983" lon="6.24974">
        <ele>459.65</ele>
        <time>2015-03-08T17:16:41Z</time>
      </trkpt>
      <trkpt lat="43.59985" lon="6.24971">
        <ele>459.65</ele>
        <time>2015-03-08T17:16:59Z</time>
      </trkpt>
      <trkpt lat="43.59982" lon="6.24974">
        <ele>459.65</ele>
        <time>2015-03-08T17:17:16Z</time>
      </trkpt>
      <trkpt lat="43.59973" lon="6.24981">
        <ele>459.65</ele>
        <time>2015-03-08T17:17:43Z</time>
      </trkpt>
      <trkpt lat="43.59976" lon="6.24978">
        <ele>459.65</ele>
        <time>2015-03-08T17:18:09Z</time>
      </trkpt>
      <trkpt lat="43.5998" lon="6.24977">
        <ele>460.61</ele>
        <time>2015-03-08T17:18:35Z</time>
      </trkpt>
      <trkpt lat="43.5998" lon="6.24976">
        <ele>459.65</ele>
        <time>2015-03-08T17:18:58Z</time>
      </trkpt>
      <trkpt lat="43.59978" lon="6.24977">
        <ele>459.65</ele>
        <time>2015-03-08T17:19:21Z</time>
      </trkpt>
      <trkpt lat="43.59977" lon="6.24978">
        <ele>459.65</ele>
        <time>2015-03-08T17:19:29Z</time>
      </trkpt>
      <trkpt lat="43.59938" lon="6.24993">
        <ele>460.13</ele>
        <time>2015-03-08T17:19:48Z</time>
      </trkpt>
      <trkpt lat="43.59931" lon="6.24997">
        <ele>460.13</ele>
        <time>2015-03-08T17:20:08Z</time>
      </trkpt>
      <trkpt lat="43.59953" lon="6.24988">
        <ele>460.13</ele>
        <time>2015-03-08T17:20:36Z</time>
      </trkpt>
      <trkpt lat="43.5997" lon="6.24984">
        <ele>460.13</ele>
        <time>2015-03-08T17:21:01Z</time>
      </trkpt>
      <trkpt lat="43.59983" lon="6.24979">
        <ele>460.13</ele>
        <time>2015-03-08T17:21:33Z</time>
      </trkpt>
      <trkpt lat="43.59986" lon="6.24978">
        <ele>460.61</ele>
        <time>2015-03-08T17:22:00Z</time>
      </trkpt>
      <trkpt lat="43.59987" lon="6.24978">
        <ele>460.13</ele>
        <time>2015-03-08T17:22:28Z</time>
      </trkpt>
      <trkpt lat="43.59979" lon="6.24983">
        <ele>460.13</ele>
        <time>2015-03-08T17:22:48Z</time>
      </trkpt>
      <trkpt lat="43.5997" lon="6.24991">
        <ele>460.13</ele>
        <time>2015-03-08T17:23:10Z</time>
      </trkpt>
      <trkpt lat="43.59981" lon="6.24977">
        <ele>460.13</ele>
        <time>2015-03-08T17:23:31Z</time>
      </trkpt>
      <trkpt lat="43.59988" lon="6.24962">
        <ele>460.13</ele>
        <time>2015-03-08T17:23:58Z</time>
      </trkpt>
      <trkpt lat="43.59989" lon="6.24956">
        <ele>460.13</ele>
        <time>2015-03-08T17:24:24Z</time>
      </trkpt>
      <trkpt lat="43.59989" lon="6.24959">
        <ele>460.13</ele>
        <time>2015-03-08T17:24:53Z</time>
      </trkpt>
      <trkpt lat="43.59987" lon="6.24967">
        <ele>459.65</ele>
        <time>2015-03-08T17:25:26Z</time>
      </trkpt>
      <trkpt lat="43.59983" lon="6.2496">
        <ele>459.65</ele>
        <time>2015-03-08T17:25:55Z</time>
      </trkpt>
      <trkpt lat="43.59984" lon="6.24967">
        <ele>459.65</ele>
        <time>2015-03-08T17:26:14Z</time>
      </trkpt>
      <trkpt lat="43.5998" lon="6.24965">
        <ele>459.65</ele>
        <time>2015-03-08T17:26:34Z</time>
      </trkpt>
      <trkpt lat="43.59978" lon="6.24965">
        <ele>459.65</ele>
        <time>2015-03-08T17:27:01Z</time>
      </trkpt>
      <trkpt lat="43.59983" lon="6.24969">
        <ele>459.65</ele>
        <time>2015-03-08T17:27:35Z</time>
      </trkpt>
      <trkpt lat="43.59984" lon="6.24971">
        <ele>459.65</ele>
        <time>2015-03-08T17:28:07Z</time>
      </trkpt>
      <trkpt lat="43.59984" lon="6.2497">
        <ele>459.17</ele>
        <time>2015-03-08T17:28:41Z</time>
      </trkpt>
      <trkpt lat="43.59985" lon="6.24968">
        <ele>459.17</ele>
        <time>2015-03-08T17:29:08Z</time>
      </trkpt>
      <trkpt lat="43.59986" lon="6.2497">
        <ele>459.17</ele>
        <time>2015-03-08T17:29:36Z</time>
      </trkpt>
      <trkpt lat="43.59985" lon="6.24972">
        <ele>459.17</ele>
        <time>2015-03-08T17:29:57Z</time>
      </trkpt>
      <trkpt lat="43.59986" lon="6.24976">
        <ele>459.17</ele>
        <time>2015-03-08T17:30:23Z</time>
      </trkpt>
      <trkpt lat="43.59984" lon="6.24978">
        <ele>459.17</ele>
        <time>2015-03-08T17:30:50Z</time>
      </trkpt>
      <trkpt lat="43.59987" lon="6.24976">
        <ele>459.17</ele>
        <time>2015-03-08T17:31:13Z</time>
      </trkpt>
      <trkpt lat="43.59987" lon="6.24975">
        <ele>459.17</ele>
        <time>2015-03-08T17:31:35Z</time>
      </trkpt>
      <trkpt lat="43.59985" lon="6.24974">
        <ele>459.17</ele>
        <time>2015-03-08T17:31:55Z</time>
      </trkpt>
      <trkpt lat="43.59986" lon="6.24973">
        <ele>459.17</ele>
        <time>2015-03-08T17:32:09Z</time>
      </trkpt>
      <trkpt lat="43.59987" lon="6.2496">
        <ele>458.69</ele>
        <time>2015-03-08T17:33:43Z</time>
      </trkpt>
      <trkpt lat="43.59984" lon="6.24976">
        <ele>459.17</ele>
        <time>2015-03-08T17:34:15Z</time>
      </trkpt>
      <trkpt lat="43.59981" lon="6.24975">
        <ele>458.69</ele>
        <time>2015-03-08T17:34:48Z</time>
      </trkpt>
      <trkpt lat="43.59979" lon="6.24977">
        <ele>458.69</ele>
        <time>2015-03-08T17:35:26Z</time>
      </trkpt>
      <trkpt lat="43.59979" lon="6.24978">
        <ele>458.69</ele>
        <time>2015-03-08T17:35:59Z</time>
      </trkpt>
      <trkpt lat="43.59979" lon="6.24978">
        <ele>458.69</ele>
        <time>2015-03-08T17:36:33Z</time>
      </trkpt>
      <trkpt lat="43.59979" lon="6.24977">
        <ele>458.69</ele>
        <time>2015-03-08T17:37:07Z</time>
      </trkpt>
      <trkpt lat="43.59982" lon="6.24977">
        <ele>458.69</ele>
        <time>2015-03-08T17:37:39Z</time>
      </trkpt>
      <trkpt lat="43.59983" lon="6.2497">
        <ele>458.21</ele>
        <time>2015-03-08T17:38:04Z</time>
      </trkpt>
      <trkpt lat="43.59983" lon="6.24968">
        <ele>458.21</ele>
        <time>2015-03-08T17:38:28Z</time>
      </trkpt>
      <trkpt lat="43.59983" lon="6.2497">
        <ele>458.21</ele>
        <time>2015-03-08T17:38:49Z</time>
      </trkpt>
      <trkpt lat="43.59982" lon="6.24974">
        <ele>458.21</ele>
        <time>2015-03-08T17:39:15Z</time>
      </trkpt>
      <trkpt lat="43.59981" lon="6.24976">
        <ele>458.21</ele>
        <time>2015-03-08T17:39:42Z</time>
      </trkpt>
      <trkpt lat="43.59996" lon="6.24971">
        <ele>456.76</ele>
        <time>2015-03-08T18:01:42Z</time>
      </trkpt>
      <trkpt lat="43.59998" lon="6.24977">
        <ele>456.76</ele>
        <time>2015-03-08T18:02:12Z</time>
      </trkpt>
      <trkpt lat="43.60001" lon="6.24978">
        <ele>456.76</ele>
        <time>2015-03-08T18:02:16Z</time>
      </trkpt>
      <trkpt lat="43.60029" lon="6.2499">
        <ele>456.76</ele>
        <time>2015-03-08T18:02:42Z</time>
      </trkpt>
      <trkpt lat="43.60021" lon="6.24986">
        <ele>456.76</ele>
        <time>2015-03-08T18:03:09Z</time>
      </trkpt>
      <trkpt lat="43.60017" lon="6.24982">
        <ele>456.76</ele>
        <time>2015-03-08T18:03:36Z</time>
      </trkpt>
      <trkpt lat="43.59997" lon="6.24974">
        <ele>456.76</ele>
        <time>2015-03-08T18:16:27Z</time>
      </trkpt>
      <trkpt lat="43.59997" lon="6.24974">
        <ele>457.24</ele>
        <time>2015-03-08T18:17:03Z</time>
      </trkpt>
      <trkpt lat="43.59997" lon="6.24982">
        <ele>457.24</ele>
        <time>2015-03-08T18:17:35Z</time>
      </trkpt>
      <trkpt lat="43.59996" lon="6.24972">
        <ele>457.24</ele>
        <time>2015-03-08T18:18:00Z</time>
      </trkpt>
      <trkpt lat="43.59995" lon="6.24957">
        <ele>456.76</ele>
        <time>2015-03-08T18:18:21Z</time>
      </trkpt>
      <trkpt lat="43.59996" lon="6.24959">
        <ele>457.24</ele>
        <time>2015-03-08T18:18:41Z</time>
      </trkpt>
      <trkpt lat="43.59993" lon="6.24967">
        <ele>457.24</ele>
        <time>2015-03-08T18:19:01Z</time>
      </trkpt>
      <trkpt lat="43.59993" lon="6.24973">
        <ele>457.24</ele>
        <time>2015-03-08T18:19:24Z</time>
      </trkpt>
      <trkpt lat="43.59994" lon="6.2497">
        <ele>457.24</ele>
        <time>2015-03-08T18:19:50Z</time>
      </trkpt>
      <trkpt lat="43.59994" lon="6.24971">
        <ele>457.24</ele>
        <time>2015-03-08T18:20:16Z</time>
      </trkpt>
      <trkpt lat="43.59993" lon="6.24973">
        <ele>457.24</ele>
        <time>2015-03-08T18:20:40Z</time>
      </trkpt>
      <trkpt lat="43.59992" lon="6.24974">
        <ele>457.24</ele>
        <time>2015-03-08T18:21:03Z</time>
      </trkpt>
      <trkpt lat="43.59992" lon="6.24974">
        <ele>457.24</ele>
        <time>2015-03-08T18:21:28Z</time>
      </trkpt>
      <trkpt lat="43.59992" lon="6.24973">
        <ele>457.24</ele>
        <time>2015-03-08T18:21:52Z</time>
      </trkpt>
      <trkpt lat="43.59992" lon="6.24973">
        <ele>457.24</ele>
        <time>2015-03-08T18:22:20Z</time>
      </trkpt>
      <trkpt lat="43.59992" lon="6.24973">
        <ele>457.24</ele>
        <time>2015-03-08T18:22:47Z</time>
      </trkpt>
      <trkpt lat="43.59992" lon="6.24969">
        <ele>457.24</ele>
        <time>2015-03-08T18:23:09Z</time>
      </trkpt>
      <trkpt lat="43.59993" lon="6.24965">
        <ele>457.24</ele>
        <time>2015-03-08T18:23:33Z</time>
      </trkpt>
      <trkpt lat="43.59993" lon="6.24962">
        <ele>457.24</ele>
        <time>2015-03-08T18:24:07Z</time>
      </trkpt>
      <trkpt lat="43.59994" lon="6.24963">
        <ele>457.24</ele>
        <time>2015-03-08T18:24:34Z</time>
      </trkpt>
      <trkpt lat="43.59996" lon="6.24972">
        <ele>457.24</ele>
        <time>2015-03-08T18:25:01Z</time>
      </trkpt>
      <trkpt lat="43.59994" lon="6.24974">
        <ele>457.24</ele>
        <time>2015-03-08T18:25:24Z</time>
      </trkpt>
      <trkpt lat="43.59992" lon="6.24974">
        <ele>457.24</ele>
        <time>2015-03-08T18:25:49Z</time>
      </trkpt>
      <trkpt lat="43.59991" lon="6.24976">
        <ele>457.24</ele>
        <time>2015-03-08T18:26:14Z</time>
      </trkpt>
      <trkpt lat="43.59991" lon="6.24974">
        <ele>457.24</ele>
        <time>2015-03-08T18:26:43Z</time>
      </trkpt>
      <trkpt lat="43.59992" lon="6.24969">
        <ele>457.24</ele>
        <time>2015-03-08T18:27:10Z</time>
      </trkpt>
      <trkpt lat="43.59992" lon="6.24969">
        <ele>457.24</ele>
        <time>2015-03-08T18:27:35Z</time>
      </trkpt>
      <trkpt lat="43.59992" lon="6.24972">
        <ele>457.24</ele>
        <time>2015-03-08T18:28:01Z</time>
      </trkpt>
      <trkpt lat="43.5999" lon="6.2498">
        <ele>457.24</ele>
        <time>2015-03-08T18:28:32Z</time>
      </trkpt>
      <trkpt lat="43.5999" lon="6.24979">
        <ele>456.76</ele>
        <time>2015-03-08T18:29:02Z</time>
      </trkpt>
      <trkpt lat="43.59989" lon="6.24977">
        <ele>456.76</ele>
        <time>2015-03-08T18:29:35Z</time>
      </trkpt>
      <trkpt lat="43.59988" lon="6.24978">
        <ele>457.24</ele>
        <time>2015-03-08T18:30:03Z</time>
      </trkpt>
      <trkpt lat="43.59989" lon="6.2498">
        <ele>456.76</ele>
        <time>2015-03-08T18:30:26Z</time>
      </trkpt>
      <trkpt lat="43.5999" lon="6.24981">
        <ele>456.76</ele>
        <time>2015-03-08T18:30:47Z</time>
      </trkpt>
      <trkpt lat="43.59996" lon="6.24973">
        <ele>457.24</ele>
        <time>2015-03-08T18:31:06Z</time>
      </trkpt>
      <trkpt lat="43.59988" lon="6.2497">
        <ele>456.76</ele>
        <time>2015-03-08T18:31:28Z</time>
      </trkpt>
      <trkpt lat="43.59972" lon="6.24965">
        <ele>456.76</ele>
        <time>2015-03-08T18:32:00Z</time>
      </trkpt>
      <trkpt lat="43.59997" lon="6.2498">
        <ele>456.28</ele>
        <time>2015-03-08T18:36:29Z</time>
      </trkpt>
      <trkpt lat="43.59992" lon="6.24972">
        <ele>456.28</ele>
        <time>2015-03-08T18:36:58Z</time>
      </trkpt>
      <trkpt lat="43.59991" lon="6.24974">
        <ele>456.28</ele>
        <time>2015-03-08T18:37:28Z</time>
      </trkpt>
      <trkpt lat="43.59992" lon="6.24977">
        <ele>456.28</ele>
        <time>2015-03-08T18:38:03Z</time>
      </trkpt>
      <trkpt lat="43.59992" lon="6.24977">
        <ele>456.28</ele>
        <time>2015-03-08T18:38:35Z</time>
      </trkpt>
      <trkpt lat="43.59991" lon="6.24976">
        <ele>456.28</ele>
        <time>2015-03-08T18:39:08Z</time>
      </trkpt>
      <trkpt lat="43.59991" lon="6.24977">
        <ele>456.28</ele>
        <time>2015-03-08T18:39:39Z</time>
      </trkpt>
      <trkpt lat="43.59991" lon="6.24977">
        <ele>456.28</ele>
        <time>2015-03-08T18:40:03Z</time>
      </trkpt>
      <trkpt lat="43.59991" lon="6.24978">
        <ele>456.28</ele>
        <time>2015-03-08T18:40:30Z</time>
      </trkpt>
      <trkpt lat="43.5999" lon="6.24975">
        <ele>456.28</ele>
        <time>2015-03-08T18:40:53Z</time>
      </trkpt>
      <trkpt lat="43.59991" lon="6.24967">
        <ele>456.28</ele>
        <time>2015-03-08T18:41:32Z</time>
      </trkpt>
      <trkpt lat="43.59991" lon="6.24964">
        <ele>456.76</ele>
        <time>2015-03-08T18:41:59Z</time>
      </trkpt>
      <trkpt lat="43.59992" lon="6.24967">
        <ele>456.76</ele>
        <time>2015-03-08T18:42:20Z</time>
      </trkpt>
      <trkpt lat="43.59991" lon="6.2497">
        <ele>456.76</ele>
        <time>2015-03-08T18:42:42Z</time>
      </trkpt>
      <trkpt lat="43.59993" lon="6.24976">
        <ele>456.76</ele>
        <time>2015-03-08T18:43:08Z</time>
      </trkpt>
      <trkpt lat="43.60002" lon="6.24978">
        <ele>456.76</ele>
        <time>2015-03-08T18:43:31Z</time>
      </trkpt>
      <trkpt lat="43.60002" lon="6.24978">
        <ele>456.76</ele>
        <time>2015-03-08T18:43:53Z</time>
      </trkpt>
      <trkpt lat="43.60001" lon="6.2498">
        <ele>456.28</ele>
        <time>2015-03-08T18:44:25Z</time>
      </trkpt>
      <trkpt lat="43.6" lon="6.2498">
        <ele>456.28</ele>
        <time>2015-03-08T18:44:51Z</time>
      </trkpt>
      <trkpt lat="43.60002" lon="6.24978">
        <ele>456.28</ele>
        <time>2015-03-08T18:45:16Z</time>
      </trkpt>
      <trkpt lat="43.59997" lon="6.24979">
        <ele>456.28</ele>
        <time>2015-03-08T18:45:43Z</time>
      </trkpt>
      <trkpt lat="43.59992" lon="6.2498">
        <ele>456.28</ele>
        <time>2015-03-08T18:46:16Z</time>
      </trkpt>
      <trkpt lat="43.59991" lon="6.2498">
        <ele>456.28</ele>
        <time>2015-03-08T18:46:46Z</time>
      </trkpt>
      <trkpt lat="43.60004" lon="6.24978">
        <ele>456.28</ele>
        <time>2015-03-08T18:47:12Z</time>
      </trkpt>
      <trkpt lat="43.6001" lon="6.24978">
        <ele>456.28</ele>
        <time>2015-03-08T18:47:33Z</time>
      </trkpt>
      <trkpt lat="43.60009" lon="6.24978">
        <ele>456.28</ele>
        <time>2015-03-08T18:47:57Z</time>
      </trkpt>
      <trkpt lat="43.60009" lon="6.24979">
        <ele>456.28</ele>
        <time>2015-03-08T18:48:23Z</time>
      </trkpt>
      <trkpt lat="43.60005" lon="6.24979">
        <ele>456.28</ele>
        <time>2015-03-08T18:48:47Z</time>
      </trkpt>
      <trkpt lat="43.60004" lon="6.24979">
        <ele>455.8</ele>
        <time>2015-03-08T18:49:12Z</time>
      </trkpt>
      <trkpt lat="43.60005" lon="6.24978">
        <ele>455.8</ele>
        <time>2015-03-08T18:49:33Z</time>
      </trkpt>
      <trkpt lat="43.60002" lon="6.24979">
        <ele>455.8</ele>
        <time>2015-03-08T18:49:54Z</time>
      </trkpt>
      <trkpt lat="43.6" lon="6.24979">
        <ele>455.8</ele>
        <time>2015-03-08T18:50:16Z</time>
      </trkpt>
      <trkpt lat="43.59995" lon="6.24976">
        <ele>455.8</ele>
        <time>2015-03-08T18:50:43Z</time>
      </trkpt>
      <trkpt lat="43.59994" lon="6.24977">
        <ele>455.8</ele>
        <time>2015-03-08T18:51:15Z</time>
      </trkpt>
      <trkpt lat="43.59994" lon="6.24979">
        <ele>455.8</ele>
        <time>2015-03-08T18:51:42Z</time>
      </trkpt>
      <trkpt lat="43.59993" lon="6.24978">
        <ele>455.8</ele>
        <time>2015-03-08T18:52:08Z</time>
      </trkpt>
      <trkpt lat="43.59989" lon="6.2497">
        <ele>455.8</ele>
        <time>2015-03-08T18:52:34Z</time>
      </trkpt>
      <trkpt lat="43.59987" lon="6.24976">
        <ele>455.8</ele>
        <time>2015-03-08T18:52:58Z</time>
      </trkpt>
      <trkpt lat="43.59983" lon="6.24978">
        <ele>455.8</ele>
        <time>2015-03-08T18:53:25Z</time>
      </trkpt>
      <trkpt lat="43.59984" lon="6.24976">
        <ele>456.28</ele>
        <time>2015-03-08T18:53:43Z</time>
      </trkpt>
      <trkpt lat="43.59989" lon="6.24973">
        <ele>456.28</ele>
        <time>2015-03-08T18:54:03Z</time>
      </trkpt>
      <trkpt lat="43.59992" lon="6.24971">
        <ele>456.28</ele>
        <time>2015-03-08T18:54:08Z</time>
      </trkpt>
      <trkpt lat="43.59994" lon="6.24969">
        <ele>456.28</ele>
        <time>2015-03-08T18:54:10Z</time>
      </trkpt>
      <trkpt lat="43.60006" lon="6.24959">
        <ele>456.28</ele>
        <time>2015-03-08T18:54:31Z</time>
      </trkpt>
      <trkpt lat="43.60005" lon="6.24956">
        <ele>456.28</ele>
        <time>2015-03-08T18:54:53Z</time>
      </trkpt>
      <trkpt lat="43.60003" lon="6.2497">
        <ele>456.28</ele>
        <time>2015-03-08T18:55:27Z</time>
      </trkpt>
      <trkpt lat="43.59999" lon="6.24967">
        <ele>455.8</ele>
        <time>2015-03-08T18:55:47Z</time>
      </trkpt>
      <trkpt lat="43.59994" lon="6.24993">
        <ele>455.8</ele>
        <time>2015-03-08T18:56:17Z</time>
      </trkpt>
      <trkpt lat="43.59998" lon="6.2496">
        <ele>456.28</ele>
        <time>2015-03-08T18:56:37Z</time>
      </trkpt>
      <trkpt lat="43.59997" lon="6.24966">
        <ele>456.28</ele>
        <time>2015-03-08T18:57:07Z</time>
      </trkpt>
      <trkpt lat="43.59995" lon="6.24967">
        <ele>455.8</ele>
        <time>2015-03-08T18:57:36Z</time>
      </trkpt>
      <trkpt lat="43.59995" lon="6.2497">
        <ele>455.8</ele>
        <time>2015-03-08T18:58:06Z</time>
      </trkpt>
      <trkpt lat="43.59996" lon="6.2497">
        <ele>455.8</ele>
        <time>2015-03-08T18:58:33Z</time>
      </trkpt>
      <trkpt lat="43.59995" lon="6.24975">
        <ele>455.8</ele>
        <time>2015-03-08T18:58:56Z</time>
      </trkpt>
      <trkpt lat="43.59994" lon="6.24974">
        <ele>455.8</ele>
        <time>2015-03-08T18:59:25Z</time>
      </trkpt>
      <trkpt lat="43.59992" lon="6.24972">
        <ele>455.8</ele>
        <time>2015-03-08T18:59:55Z</time>
      </trkpt>
      <trkpt lat="43.59992" lon="6.24972">
        <ele>455.8</ele>
        <time>2015-03-08T19:00:19Z</time>
      </trkpt>
      <trkpt lat="43.5999" lon="6.24975">
        <ele>455.8</ele>
        <time>2015-03-08T19:00:41Z</time>
      </trkpt>
      <trkpt lat="43.59992" lon="6.24982">
        <ele>455.8</ele>
        <time>2015-03-08T19:01:00Z</time>
      </trkpt>
      <trkpt lat="43.5997" lon="6.24964">
        <ele>454.84</ele>
        <time>2015-03-08T19:11:56Z</time>
      </trkpt>
      <trkpt lat="43.59978" lon="6.24968">
        <ele>454.84</ele>
        <time>2015-03-08T19:12:26Z</time>
      </trkpt>
      <trkpt lat="43.59983" lon="6.24969">
        <ele>454.84</ele>
        <time>2015-03-08T19:12:52Z</time>
      </trkpt>
      <trkpt lat="43.59987" lon="6.2497">
        <ele>455.32</ele>
        <time>2015-03-08T19:13:25Z</time>
      </trkpt>
      <trkpt lat="43.59989" lon="6.2497">
        <ele>455.32</ele>
        <time>2015-03-08T19:13:51Z</time>
      </trkpt>
      <trkpt lat="43.5999" lon="6.2497">
        <ele>455.32</ele>
        <time>2015-03-08T19:14:17Z</time>
      </trkpt>
      <trkpt lat="43.59987" lon="6.24972">
        <ele>455.8</ele>
        <time>2015-03-08T19:14:38Z</time>
      </trkpt>
      <trkpt lat="43.59983" lon="6.2497">
        <ele>455.32</ele>
        <time>2015-03-08T19:15:01Z</time>
      </trkpt>
      <trkpt lat="43.59984" lon="6.24971">
        <ele>455.32</ele>
        <time>2015-03-08T19:15:04Z</time>
      </trkpt>
      <trkpt lat="43.59986" lon="6.24972">
        <ele>455.32</ele>
        <time>2015-03-08T19:15:06Z</time>
      </trkpt>
      <trkpt lat="43.59944" lon="6.24959">
        <ele>455.8</ele>
        <time>2015-03-08T19:18:16Z</time>
      </trkpt>
      <trkpt lat="43.59941" lon="6.24958">
        <ele>455.8</ele>
        <time>2015-03-08T19:18:18Z</time>
      </trkpt>
      <trkpt lat="43.59889" lon="6.24953">
        <ele>455.8</ele>
        <time>2015-03-08T19:18:51Z</time>
      </trkpt>
      <trkpt lat="43.59867" lon="6.24947">
        <ele>455.8</ele>
        <time>2015-03-08T19:19:17Z</time>
      </trkpt>
      <trkpt lat="43.59864" lon="6.24942">
        <ele>455.8</ele>
        <time>2015-03-08T19:19:42Z</time>
      </trkpt>
      <trkpt lat="43.59877" lon="6.24946">
        <ele>455.8</ele>
        <time>2015-03-08T19:20:05Z</time>
      </trkpt>
      <trkpt lat="43.5992" lon="6.2496">
        <ele>455.8</ele>
        <time>2015-03-08T19:20:32Z</time>
      </trkpt>
      <trkpt lat="43.59959" lon="6.24971">
        <ele>455.8</ele>
        <time>2015-03-08T19:20:56Z</time>
      </trkpt>
      <trkpt lat="43.5998" lon="6.24972">
        <ele>455.8</ele>
        <time>2015-03-08T19:21:25Z</time>
      </trkpt>
      <trkpt lat="43.59985" lon="6.24972">
        <ele>455.8</ele>
        <time>2015-03-08T19:22:00Z</time>
      </trkpt>
      <trkpt lat="43.59987" lon="6.24972">
        <ele>455.8</ele>
        <time>2015-03-08T19:22:29Z</time>
      </trkpt>
      <trkpt lat="43.59988" lon="6.24975">
        <ele>455.8</ele>
        <time>2015-03-08T19:22:54Z</time>
      </trkpt>
      <trkpt lat="43.59988" lon="6.24982">
        <ele>455.8</ele>
        <time>2015-03-08T19:23:15Z</time>
      </trkpt>
      <trkpt lat="43.59988" lon="6.24973">
        <ele>455.8</ele>
        <time>2015-03-08T19:23:37Z</time>
      </trkpt>
      <trkpt lat="43.59978" lon="6.24975">
        <ele>455.8</ele>
        <time>2015-03-08T19:39:51Z</time>
      </trkpt>
      <trkpt lat="43.59973" lon="6.24983">
        <ele>456.28</ele>
        <time>2015-03-08T19:40:20Z</time>
      </trkpt>
      <trkpt lat="43.59978" lon="6.24985">
        <ele>455.8</ele>
        <time>2015-03-08T19:40:47Z</time>
      </trkpt>
      <trkpt lat="43.59974" lon="6.24985">
        <ele>456.28</ele>
        <time>2015-03-08T19:41:12Z</time>
      </trkpt>
      <trkpt lat="43.59978" lon="6.24984">
        <ele>456.28</ele>
        <time>2015-03-08T19:41:37Z</time>
      </trkpt>
      <trkpt lat="43.59981" lon="6.24983">
        <ele>456.28</ele>
        <time>2015-03-08T19:42:07Z</time>
      </trkpt>
      <trkpt lat="43.59982" lon="6.24983">
        <ele>456.28</ele>
        <time>2015-03-08T19:42:42Z</time>
      </trkpt>
      <trkpt lat="43.59982" lon="6.24984">
        <ele>456.28</ele>
        <time>2015-03-08T19:43:08Z</time>
      </trkpt>
      <trkpt lat="43.59979" lon="6.24984">
        <ele>455.8</ele>
        <time>2015-03-08T19:43:37Z</time>
      </trkpt>
      <trkpt lat="43.59982" lon="6.24979">
        <ele>455.8</ele>
        <time>2015-03-08T19:44:11Z</time>
      </trkpt>
      <trkpt lat="43.59982" lon="6.24974">
        <ele>456.76</ele>
        <time>2015-03-08T19:44:40Z</time>
      </trkpt>
      <trkpt lat="43.59976" lon="6.24981">
        <ele>455.8</ele>
        <time>2015-03-08T19:45:06Z</time>
      </trkpt>
      <trkpt lat="43.59985" lon="6.24976">
        <ele>455.8</ele>
        <time>2015-03-08T19:45:27Z</time>
      </trkpt>
      <trkpt lat="43.5999" lon="6.24974">
        <ele>455.8</ele>
        <time>2015-03-08T19:45:50Z</time>
      </trkpt>
      <trkpt lat="43.60011" lon="6.24964">
        <ele>455.32</ele>
        <time>2015-03-08T19:50:51Z</time>
      </trkpt>
      <trkpt lat="43.60009" lon="6.24964">
        <ele>455.32</ele>
        <time>2015-03-08T19:51:21Z</time>
      </trkpt>
      <trkpt lat="43.60005" lon="6.24966">
        <ele>455.32</ele>
        <time>2015-03-08T19:51:54Z</time>
      </trkpt>
      <trkpt lat="43.60001" lon="6.24972">
        <ele>455.32</ele>
        <time>2015-03-08T19:52:17Z</time>
      </trkpt>
      <trkpt lat="43.60001" lon="6.2497">
        <ele>455.32</ele>
        <time>2015-03-08T19:52:43Z</time>
      </trkpt>
      <trkpt lat="43.59999" lon="6.24969">
        <ele>455.32</ele>
        <time>2015-03-08T19:53:08Z</time>
      </trkpt>
      <trkpt lat="43.59984" lon="6.24965">
        <ele>455.32</ele>
        <time>2015-03-08T19:53:31Z</time>
      </trkpt>
      <trkpt lat="43.59981" lon="6.24964">
        <ele>455.32</ele>
        <time>2015-03-08T19:53:55Z</time>
      </trkpt>
      <trkpt lat="43.59984" lon="6.24968">
        <ele>455.32</ele>
        <time>2015-03-08T19:54:14Z</time>
      </trkpt>
      <trkpt lat="43.59984" lon="6.24969">
        <ele>455.32</ele>
        <time>2015-03-08T19:54:38Z</time>
      </trkpt>
      <trkpt lat="43.59988" lon="6.2497">
        <ele>455.32</ele>
        <time>2015-03-08T19:55:01Z</time>
      </trkpt>
      <trkpt lat="43.59991" lon="6.24969">
        <ele>455.8</ele>
        <time>2015-03-08T19:55:23Z</time>
      </trkpt>
      <trkpt lat="43.5999" lon="6.24964">
        <ele>455.8</ele>
        <time>2015-03-08T19:55:43Z</time>
      </trkpt>
      <trkpt lat="43.59991" lon="6.24962">
        <ele>456.28</ele>
        <time>2015-03-08T19:56:02Z</time>
      </trkpt>
      <trkpt lat="43.59995" lon="6.24961">
        <ele>456.76</ele>
        <time>2015-03-08T19:56:24Z</time>
      </trkpt>
      <trkpt lat="43.59991" lon="6.24963">
        <ele>456.76</ele>
        <time>2015-03-08T19:56:46Z</time>
      </trkpt>
      <trkpt lat="43.59992" lon="6.24967">
        <ele>457.24</ele>
        <time>2015-03-08T19:57:08Z</time>
      </trkpt>
      <trkpt lat="43.59989" lon="6.24966">
        <ele>457.72</ele>
        <time>2015-03-08T19:57:29Z</time>
      </trkpt>
      <trkpt lat="43.5999" lon="6.24973">
        <ele>457.72</ele>
        <time>2015-03-08T19:57:49Z</time>
      </trkpt>
      <trkpt lat="43.59995" lon="6.2497">
        <ele>457.72</ele>
        <time>2015-03-08T19:58:10Z</time>
      </trkpt>
      <trkpt lat="43.59996" lon="6.24977">
        <ele>458.21</ele>
        <time>2015-03-08T19:58:34Z</time>
      </trkpt>
      <trkpt lat="43.59997" lon="6.2498">
        <ele>458.21</ele>
        <time>2015-03-08T19:58:38Z</time>
      </trkpt>
      <trkpt lat="43.59998" lon="6.24999">
        <ele>458.69</ele>
        <time>2015-03-08T19:59:05Z</time>
      </trkpt>
      <trkpt lat="43.59998" lon="6.25001">
        <ele>458.69</ele>
        <time>2015-03-08T19:59:27Z</time>
      </trkpt>
      <trkpt lat="43.59997" lon="6.25">
        <ele>458.69</ele>
        <time>2015-03-08T19:59:45Z</time>
      </trkpt>
      <trkpt lat="43.60006" lon="6.24992">
        <ele>458.69</ele>
        <time>2015-03-08T20:00:16Z</time>
      </trkpt>
      <trkpt lat="43.59969" lon="6.24982">
        <ele>458.69</ele>
        <time>2015-03-08T20:01:25Z</time>
      </trkpt>
      <trkpt lat="43.59979" lon="6.24978">
        <ele>458.69</ele>
        <time>2015-03-08T20:01:55Z</time>
      </trkpt>
      <trkpt lat="43.59984" lon="6.24978">
        <ele>458.69</ele>
        <time>2015-03-08T20:02:18Z</time>
      </trkpt>
      <trkpt lat="43.59987" lon="6.24976">
        <ele>458.69</ele>
        <time>2015-03-08T20:02:42Z</time>
      </trkpt>
      <trkpt lat="43.59988" lon="6.24972">
        <ele>458.69</ele>
        <time>2015-03-08T20:03:05Z</time>
      </trkpt>
      <trkpt lat="43.59992" lon="6.24977">
        <ele>458.69</ele>
        <time>2015-03-08T20:03:27Z</time>
      </trkpt>
      <trkpt lat="43.59992" lon="6.2498">
        <ele>458.69</ele>
        <time>2015-03-08T20:03:49Z</time>
      </trkpt>
      <trkpt lat="43.59989" lon="6.24978">
        <ele>458.69</ele>
        <time>2015-03-08T20:04:14Z</time>
      </trkpt>
      <trkpt lat="43.59991" lon="6.24977">
        <ele>458.69</ele>
        <time>2015-03-08T20:04:41Z</time>
      </trkpt>
      <trkpt lat="43.59995" lon="6.24982">
        <ele>459.17</ele>
        <time>2015-03-08T20:05:09Z</time>
      </trkpt>
      <trkpt lat="43.60002" lon="6.2499">
        <ele>458.69</ele>
        <time>2015-03-08T20:05:49Z</time>
      </trkpt>
      <trkpt lat="43.59995" lon="6.24984">
        <ele>458.69</ele>
        <time>2015-03-08T20:06:18Z</time>
      </trkpt>
      <trkpt lat="43.59992" lon="6.2498">
        <ele>459.17</ele>
        <time>2015-03-08T20:06:42Z</time>
      </trkpt>
      <trkpt lat="43.59987" lon="6.24983">
        <ele>459.17</ele>
        <time>2015-03-08T20:07:08Z</time>
      </trkpt>
      <trkpt lat="43.59984" lon="6.24978">
        <ele>459.17</ele>
        <time>2015-03-08T20:07:29Z</time>
      </trkpt>
      <trkpt lat="43.59982" lon="6.24976">
        <ele>459.17</ele>
        <time>2015-03-08T20:07:50Z</time>
      </trkpt>
      <trkpt lat="43.59975" lon="6.24978">
        <ele>459.17</ele>
        <time>2015-03-08T20:08:12Z</time>
      </trkpt>
      <trkpt lat="43.59983" lon="6.24978">
        <ele>459.17</ele>
        <time>2015-03-08T20:08:32Z</time>
      </trkpt>
      <trkpt lat="43.59995" lon="6.24978">
        <ele>459.17</ele>
        <time>2015-03-08T20:08:55Z</time>
      </trkpt>
      <trkpt lat="43.59988" lon="6.24985">
        <ele>459.17</ele>
        <time>2015-03-08T20:09:17Z</time>
      </trkpt>
      <trkpt lat="43.59984" lon="6.24992">
        <ele>459.17</ele>
        <time>2015-03-08T20:09:38Z</time>
      </trkpt>
      <trkpt lat="43.59985" lon="6.24994">
        <ele>459.17</ele>
        <time>2015-03-08T20:10:00Z</time>
      </trkpt>
      <trkpt lat="43.59984" lon="6.24988">
        <ele>459.17</ele>
        <time>2015-03-08T20:10:23Z</time>
      </trkpt>
      <trkpt lat="43.59984" lon="6.24977">
        <ele>459.65</ele>
        <time>2015-03-08T20:10:50Z</time>
      </trkpt>
      <trkpt lat="43.59985" lon="6.24975">
        <ele>459.17</ele>
        <time>2015-03-08T20:11:20Z</time>
      </trkpt>
      <trkpt lat="43.59985" lon="6.24976">
        <ele>459.17</ele>
        <time>2015-03-08T20:11:45Z</time>
      </trkpt>
      <trkpt lat="43.59985" lon="6.24975">
        <ele>459.17</ele>
        <time>2015-03-08T20:12:08Z</time>
      </trkpt>
      <trkpt lat="43.59986" lon="6.24977">
        <ele>459.17</ele>
        <time>2015-03-08T20:12:38Z</time>
      </trkpt>
      <trkpt lat="43.59989" lon="6.24977">
        <ele>459.17</ele>
        <time>2015-03-08T20:13:03Z</time>
      </trkpt>
      <trkpt lat="43.59989" lon="6.24976">
        <ele>459.17</ele>
        <time>2015-03-08T20:13:33Z</time>
      </trkpt>
      <trkpt lat="43.59991" lon="6.24973">
        <ele>459.17</ele>
        <time>2015-03-08T20:13:55Z</time>
      </trkpt>
      <trkpt lat="43.59996" lon="6.24967">
        <ele>459.17</ele>
        <time>2015-03-08T20:14:24Z</time>
      </trkpt>
      <trkpt lat="43.59995" lon="6.24967">
        <ele>459.17</ele>
        <time>2015-03-08T20:15:02Z</time>
      </trkpt>
      <trkpt lat="43.59997" lon="6.24968">
        <ele>459.65</ele>
        <time>2015-03-08T20:15:31Z</time>
      </trkpt>
      <trkpt lat="43.59993" lon="6.24972">
        <ele>459.65</ele>
        <time>2015-03-08T20:15:57Z</time>
      </trkpt>
      <trkpt lat="43.59991" lon="6.2497">
        <ele>459.65</ele>
        <time>2015-03-08T20:16:19Z</time>
      </trkpt>
      <trkpt lat="43.59985" lon="6.24972">
        <ele>460.13</ele>
        <time>2015-03-08T20:16:43Z</time>
      </trkpt>
      <trkpt lat="43.59986" lon="6.24974">
        <ele>460.13</ele>
        <time>2015-03-08T20:17:12Z</time>
      </trkpt>
      <trkpt lat="43.59988" lon="6.24975">
        <ele>460.13</ele>
        <time>2015-03-08T20:17:35Z</time>
      </trkpt>
      <trkpt lat="43.59991" lon="6.24973">
        <ele>460.13</ele>
        <time>2015-03-08T20:17:58Z</time>
      </trkpt>
      <trkpt lat="43.59993" lon="6.2497">
        <ele>460.13</ele>
        <time>2015-03-08T20:18:24Z</time>
      </trkpt>
      <trkpt lat="43.59992" lon="6.24961">
        <ele>460.13</ele>
        <time>2015-03-08T20:18:42Z</time>
      </trkpt>
      <trkpt lat="43.59995" lon="6.24957">
        <ele>460.13</ele>
        <time>2015-03-08T20:19:07Z</time>
      </trkpt>
      <trkpt lat="43.59991" lon="6.24959">
        <ele>460.13</ele>
        <time>2015-03-08T20:19:27Z</time>
      </trkpt>
      <trkpt lat="43.5999" lon="6.24965">
        <ele>460.13</ele>
        <time>2015-03-08T20:19:47Z</time>
      </trkpt>
      <trkpt lat="43.59999" lon="6.24968">
        <ele>460.13</ele>
        <time>2015-03-08T20:20:13Z</time>
      </trkpt>
      <trkpt lat="43.59998" lon="6.24968">
        <ele>460.61</ele>
        <time>2015-03-08T20:20:42Z</time>
      </trkpt>
      <trkpt lat="43.59998" lon="6.24969">
        <ele>460.61</ele>
        <time>2015-03-08T20:21:07Z</time>
      </trkpt>
      <trkpt lat="43.59995" lon="6.24969">
        <ele>460.61</ele>
        <time>2015-03-08T20:21:37Z</time>
      </trkpt>
      <trkpt lat="43.59994" lon="6.24969">
        <ele>460.61</ele>
        <time>2015-03-08T20:22:00Z</time>
      </trkpt>
      <trkpt lat="43.59993" lon="6.2497">
        <ele>460.61</ele>
        <time>2015-03-08T20:22:21Z</time>
      </trkpt>
      <trkpt lat="43.59992" lon="6.2497">
        <ele>460.61</ele>
        <time>2015-03-08T20:22:44Z</time>
      </trkpt>
      <trkpt lat="43.59991" lon="6.24971">
        <ele>460.61</ele>
        <time>2015-03-08T20:23:05Z</time>
      </trkpt>
      <trkpt lat="43.59989" lon="6.24967">
        <ele>460.61</ele>
        <time>2015-03-08T20:23:27Z</time>
      </trkpt>
      <trkpt lat="43.59989" lon="6.24963">
        <ele>460.61</ele>
        <time>2015-03-08T20:23:30Z</time>
      </trkpt>
      <trkpt lat="43.59987" lon="6.24957">
        <ele>460.61</ele>
        <time>2015-03-08T20:23:34Z</time>
      </trkpt>
      <trkpt lat="43.59984" lon="6.24953">
        <ele>460.61</ele>
        <time>2015-03-08T20:23:38Z</time>
      </trkpt>
      <trkpt lat="43.59974" lon="6.24946">
        <ele>460.61</ele>
        <time>2015-03-08T20:24:04Z</time>
      </trkpt>
      <trkpt lat="43.59978" lon="6.24949">
        <ele>460.61</ele>
        <time>2015-03-08T20:24:23Z</time>
      </trkpt>
      <trkpt lat="43.5998" lon="6.24963">
        <ele>460.61</ele>
        <time>2015-03-08T20:24:40Z</time>
      </trkpt>
      <trkpt lat="43.59993" lon="6.24966">
        <ele>460.61</ele>
        <time>2015-03-08T20:25:01Z</time>
      </trkpt>
      <trkpt lat="43.59992" lon="6.24971">
        <ele>460.61</ele>
        <time>2015-03-08T20:25:25Z</time>
      </trkpt>
      <trkpt lat="43.59994" lon="6.24968">
        <ele>460.61</ele>
        <time>2015-03-08T20:25:44Z</time>
      </trkpt>
      <trkpt lat="43.60004" lon="6.24955">
        <ele>460.61</ele>
        <time>2015-03-08T20:26:07Z</time>
      </trkpt>
      <trkpt lat="43.60003" lon="6.24953">
        <ele>460.61</ele>
        <time>2015-03-08T20:26:27Z</time>
      </trkpt>
      <trkpt lat="43.59993" lon="6.24953">
        <ele>460.61</ele>
        <time>2015-03-08T20:26:40Z</time>
      </trkpt>
      <trkpt lat="43.59992" lon="6.24957">
        <ele>460.61</ele>
        <time>2015-03-08T20:26:43Z</time>
      </trkpt>
      <trkpt lat="43.59963" lon="6.24966">
        <ele>460.13</ele>
        <time>2015-03-08T20:31:20Z</time>
      </trkpt>
      <trkpt lat="43.59961" lon="6.24965">
        <ele>460.13</ele>
        <time>2015-03-08T20:31:22Z</time>
      </trkpt>
      <trkpt lat="43.5996" lon="6.24966">
        <ele>460.13</ele>
        <time>2015-03-08T20:31:41Z</time>
      </trkpt>
      <trkpt lat="43.59951" lon="6.24963">
        <ele>460.13</ele>
        <time>2015-03-08T20:32:04Z</time>
      </trkpt>
      <trkpt lat="43.5995" lon="6.24963">
        <ele>460.13</ele>
        <time>2015-03-08T20:32:31Z</time>
      </trkpt>
      <trkpt lat="43.59954" lon="6.24962">
        <ele>460.13</ele>
        <time>2015-03-08T20:32:53Z</time>
      </trkpt>
      <trkpt lat="43.59983" lon="6.24971">
        <ele>460.13</ele>
        <time>2015-03-08T20:33:19Z</time>
      </trkpt>
      <trkpt lat="43.59983" lon="6.24971">
        <ele>460.13</ele>
        <time>2015-03-08T20:33:49Z</time>
      </trkpt>
      <trkpt lat="43.59989" lon="6.24973">
        <ele>460.13</ele>
        <time>2015-03-08T20:34:15Z</time>
      </trkpt>
      <trkpt lat="43.59987" lon="6.24972">
        <ele>460.13</ele>
        <time>2015-03-08T20:34:43Z</time>
      </trkpt>
      <trkpt lat="43.59988" lon="6.24976">
        <ele>460.61</ele>
        <time>2015-03-08T20:35:09Z</time>
      </trkpt>
      <trkpt lat="43.59988" lon="6.24977">
        <ele>460.61</ele>
        <time>2015-03-08T20:35:38Z</time>
      </trkpt>
      <trkpt lat="43.59987" lon="6.24976">
        <ele>460.61</ele>
        <time>2015-03-08T20:36:11Z</time>
      </trkpt>
      <trkpt lat="43.59988" lon="6.24976">
        <ele>460.61</ele>
        <time>2015-03-08T20:36:45Z</time>
      </trkpt>
      <trkpt lat="43.59989" lon="6.24977">
        <ele>460.61</ele>
        <time>2015-03-08T20:37:17Z</time>
      </trkpt>
      <trkpt lat="43.59989" lon="6.24977">
        <ele>460.61</ele>
        <time>2015-03-08T20:37:53Z</time>
      </trkpt>
      <trkpt lat="43.59989" lon="6.24976">
        <ele>460.61</ele>
        <time>2015-03-08T20:38:34Z</time>
      </trkpt>
      <trkpt lat="43.59989" lon="6.24976">
        <ele>460.61</ele>
        <time>2015-03-08T20:39:18Z</time>
      </trkpt>
      <trkpt lat="43.59989" lon="6.24975">
        <ele>461.09</ele>
        <time>2015-03-08T20:39:58Z</time>
      </trkpt>
      <trkpt lat="43.59988" lon="6.24974">
        <ele>460.61</ele>
        <time>2015-03-08T20:40:32Z</time>
      </trkpt>
      <trkpt lat="43.59987" lon="6.24974">
        <ele>460.61</ele>
        <time>2015-03-08T20:41:00Z</time>
      </trkpt>
      <trkpt lat="43.59987" lon="6.24974">
        <ele>461.09</ele>
        <time>2015-03-08T20:41:24Z</time>
      </trkpt>
      <trkpt lat="43.5999" lon="6.24977">
        <ele>460.61</ele>
        <time>2015-03-08T20:41:48Z</time>
      </trkpt>
      <trkpt lat="43.59987" lon="6.24977">
        <ele>461.09</ele>
        <time>2015-03-08T20:42:08Z</time>
      </trkpt>
      <trkpt lat="43.59985" lon="6.24976">
        <ele>460.61</ele>
        <time>2015-03-08T20:42:31Z</time>
      </trkpt>
      <trkpt lat="43.59986" lon="6.24975">
        <ele>460.61</ele>
        <time>2015-03-08T20:42:55Z</time>
      </trkpt>
      <trkpt lat="43.59988" lon="6.24975">
        <ele>460.61</ele>
        <time>2015-03-08T20:43:25Z</time>
      </trkpt>
      <trkpt lat="43.59989" lon="6.24976">
        <ele>460.61</ele>
        <time>2015-03-08T20:43:52Z</time>
      </trkpt>
      <trkpt lat="43.5999" lon="6.24976">
        <ele>460.61</ele>
        <time>2015-03-08T20:44:16Z</time>
      </trkpt>
      <trkpt lat="43.59991" lon="6.24977">
        <ele>460.61</ele>
        <time>2015-03-08T20:44:40Z</time>
      </trkpt>
      <trkpt lat="43.5999" lon="6.24976">
        <ele>461.09</ele>
        <time>2015-03-08T20:45:05Z</time>
      </trkpt>
      <trkpt lat="43.59985" lon="6.24969">
        <ele>461.09</ele>
        <time>2015-03-08T20:45:30Z</time>
      </trkpt>
      <trkpt lat="43.59986" lon="6.2497">
        <ele>461.09</ele>
        <time>2015-03-08T20:45:53Z</time>
      </trkpt>
      <trkpt lat="43.59984" lon="6.2497">
        <ele>461.09</ele>
        <time>2015-03-08T20:46:19Z</time>
      </trkpt>
      <trkpt lat="43.59982" lon="6.24972">
        <ele>461.09</ele>
        <time>2015-03-08T20:46:42Z</time>
      </trkpt>
      <trkpt lat="43.59989" lon="6.24975">
        <ele>461.09</ele>
        <time>2015-03-08T20:47:10Z</time>
      </trkpt>
      <trkpt lat="43.59991" lon="6.24975">
        <ele>461.09</ele>
        <time>2015-03-08T20:47:35Z</time>
      </trkpt>
      <trkpt lat="43.59991" lon="6.24976">
        <ele>460.61</ele>
        <time>2015-03-08T20:48:02Z</time>
      </trkpt>
      <trkpt lat="43.59989" lon="6.24978">
        <ele>460.61</ele>
        <time>2015-03-08T20:48:31Z</time>
      </trkpt>
      <trkpt lat="43.59988" lon="6.2498">
        <ele>460.61</ele>
        <time>2015-03-08T20:48:59Z</time>
      </trkpt>
      <trkpt lat="43.59985" lon="6.24981">
        <ele>460.61</ele>
        <time>2015-03-08T20:49:26Z</time>
      </trkpt>
      <trkpt lat="43.59984" lon="6.24981">
        <ele>460.61</ele>
        <time>2015-03-08T20:49:52Z</time>
      </trkpt>
      <trkpt lat="43.59985" lon="6.2498">
        <ele>461.09</ele>
        <time>2015-03-08T20:50:21Z</time>
      </trkpt>
      <trkpt lat="43.59986" lon="6.24978">
        <ele>461.09</ele>
        <time>2015-03-08T20:51:03Z</time>
      </trkpt>
      <trkpt lat="43.59985" lon="6.24977">
        <ele>461.09</ele>
        <time>2015-03-08T20:51:37Z</time>
      </trkpt>
      <trkpt lat="43.59985" lon="6.24979">
        <ele>461.09</ele>
        <time>2015-03-08T20:52:06Z</time>
      </trkpt>
      <trkpt lat="43.59983" lon="6.24972">
        <ele>461.09</ele>
        <time>2015-03-08T20:52:28Z</time>
      </trkpt>
      <trkpt lat="43.59982" lon="6.24974">
        <ele>461.57</ele>
        <time>2015-03-08T20:52:51Z</time>
      </trkpt>
      <trkpt lat="43.5998" lon="6.24974">
        <ele>461.57</ele>
        <time>2015-03-08T20:53:17Z</time>
      </trkpt>
      <trkpt lat="43.59983" lon="6.24973">
        <ele>461.57</ele>
        <time>2015-03-08T20:53:44Z</time>
      </trkpt>
      <trkpt lat="43.59991" lon="6.24975">
        <ele>461.57</ele>
        <time>2015-03-08T20:53:58Z</time>
      </trkpt>
      <trkpt lat="43.60001" lon="6.2498">
        <ele>461.57</ele>
        <time>2015-03-08T20:54:24Z</time>
      </trkpt>
      <trkpt lat="43.60005" lon="6.24982">
        <ele>461.57</ele>
        <time>2015-03-08T20:54:45Z</time>
      </trkpt>
      <trkpt lat="43.60004" lon="6.2498">
        <ele>461.57</ele>
        <time>2015-03-08T20:55:06Z</time>
      </trkpt>
      <trkpt lat="43.59998" lon="6.24976">
        <ele>461.57</ele>
        <time>2015-03-08T20:55:27Z</time>
      </trkpt>
      <trkpt lat="43.59995" lon="6.24976">
        <ele>461.57</ele>
        <time>2015-03-08T20:55:51Z</time>
      </trkpt>
      <trkpt lat="43.59989" lon="6.24973">
        <ele>461.57</ele>
        <time>2015-03-08T20:56:08Z</time>
      </trkpt>
      <trkpt lat="43.5998" lon="6.2497">
        <ele>461.57</ele>
        <time>2015-03-08T20:56:31Z</time>
      </trkpt>
      <trkpt lat="43.59983" lon="6.24973">
        <ele>461.57</ele>
        <time>2015-03-08T20:57:01Z</time>
      </trkpt>
      <trkpt lat="43.59977" lon="6.24976">
        <ele>461.57</ele>
        <time>2015-03-08T20:57:25Z</time>
      </trkpt>
      <trkpt lat="43.59978" lon="6.24976">
        <ele>461.57</ele>
        <time>2015-03-08T20:57:49Z</time>
      </trkpt>
      <trkpt lat="43.59974" lon="6.24976">
        <ele>461.57</ele>
        <time>2015-03-08T20:58:10Z</time>
      </trkpt>
      <trkpt lat="43.59978" lon="6.24982">
        <ele>461.57</ele>
        <time>2015-03-08T20:58:30Z</time>
      </trkpt>
      <trkpt lat="43.5999" lon="6.24979">
        <ele>461.57</ele>
        <time>2015-03-08T20:58:52Z</time>
      </trkpt>
      <trkpt lat="43.59987" lon="6.24982">
        <ele>461.57</ele>
        <time>2015-03-08T20:59:15Z</time>
      </trkpt>
      <trkpt lat="43.59986" lon="6.24987">
        <ele>461.57</ele>
        <time>2015-03-08T20:59:35Z</time>
      </trkpt>
      <trkpt lat="43.59985" lon="6.24988">
        <ele>461.57</ele>
        <time>2015-03-08T20:59:36Z</time>
      </trkpt>
      <trkpt lat="43.59976" lon="6.24991">
        <ele>461.57</ele>
        <time>2015-03-08T21:00:04Z</time>
      </trkpt>
      <trkpt lat="43.59975" lon="6.24991">
        <ele>461.57</ele>
        <time>2015-03-08T21:00:30Z</time>
      </trkpt>
      <trkpt lat="43.59974" lon="6.24993">
        <ele>461.57</ele>
        <time>2015-03-08T21:00:53Z</time>
      </trkpt>
      <trkpt lat="43.59972" lon="6.24994">
        <ele>461.57</ele>
        <time>2015-03-08T21:01:15Z</time>
      </trkpt>
      <trkpt lat="43.59964" lon="6.24992">
        <ele>461.57</ele>
        <time>2015-03-08T21:01:36Z</time>
      </trkpt>
      <trkpt lat="43.59955" lon="6.24996">
        <ele>461.57</ele>
        <time>2015-03-08T21:02:00Z</time>
      </trkpt>
      <trkpt lat="43.59981" lon="6.24974">
        <ele>461.57</ele>
        <time>2015-03-08T21:02:26Z</time>
      </trkpt>
      <trkpt lat="43.59983" lon="6.24975">
        <ele>461.57</ele>
        <time>2015-03-08T21:02:56Z</time>
      </trkpt>
      <trkpt lat="43.59983" lon="6.24975">
        <ele>461.57</ele>
        <time>2015-03-08T21:03:25Z</time>
      </trkpt>
      <trkpt lat="43.59984" lon="6.24975">
        <ele>461.57</ele>
        <time>2015-03-08T21:03:54Z</time>
      </trkpt>
      <trkpt lat="43.59984" lon="6.24974">
        <ele>461.57</ele>
        <time>2015-03-08T21:04:17Z</time>
      </trkpt>
      <trkpt lat="43.59983" lon="6.24972">
        <ele>461.57</ele>
        <time>2015-03-08T21:04:43Z</time>
      </trkpt>
      <trkpt lat="43.59981" lon="6.24973">
        <ele>461.57</ele>
        <time>2015-03-08T21:05:06Z</time>
      </trkpt>
      <trkpt lat="43.59983" lon="6.24972">
        <ele>461.57</ele>
        <time>2015-03-08T21:05:30Z</time>
      </trkpt>
      <trkpt lat="43.59984" lon="6.24972">
        <ele>461.57</ele>
        <time>2015-03-08T21:05:55Z</time>
      </trkpt>
      <trkpt lat="43.59984" lon="6.24969">
        <ele>461.57</ele>
        <time>2015-03-08T21:06:13Z</time>
      </trkpt>
      <trkpt lat="43.60009" lon="6.24975">
        <ele>461.57</ele>
        <time>2015-03-08T21:08:20Z</time>
      </trkpt>
      <trkpt lat="43.60007" lon="6.24975">
        <ele>461.57</ele>
        <time>2015-03-08T21:08:21Z</time>
      </trkpt>
      <trkpt lat="43.59975" lon="6.2498">
        <ele>461.57</ele>
        <time>2015-03-08T21:08:42Z</time>
      </trkpt>
      <trkpt lat="43.59964" lon="6.24983">
        <ele>461.57</ele>
        <time>2015-03-08T21:08:50Z</time>
      </trkpt>
      <trkpt lat="43.59955" lon="6.24998">
        <ele>385.15</ele>
        <time>2015-03-13T09:39:34Z</time>
      </trkpt>
      <trkpt lat="43.59955" lon="6.24998">
        <ele>385.15</ele>
        <time>2015-03-13T09:39:35Z</time>
      </trkpt>
      <trkpt lat="43.59958" lon="6.24997">
        <ele>385.63</ele>
        <time>2015-03-13T09:39:52Z</time>
      </trkpt>
      <trkpt lat="43.5996" lon="6.24999">
        <ele>385.15</ele>
        <time>2015-03-13T09:40:13Z</time>
      </trkpt>
      <trkpt lat="43.59958" lon="6.24993">
        <ele>384.66</ele>
        <time>2015-03-13T09:40:23Z</time>
      </trkpt>
      <trkpt lat="43.59958" lon="6.24988">
        <ele>391.39</ele>
        <time>2015-03-13T09:40:26Z</time>
      </trkpt>
      <trkpt lat="43.59959" lon="6.24985">
        <ele>395.72</ele>
        <time>2015-03-13T09:40:28Z</time>
      </trkpt>
      <trkpt lat="43.59959" lon="6.24981">
        <ele>399.57</ele>
        <time>2015-03-13T09:40:30Z</time>
      </trkpt>
      <trkpt lat="43.5996" lon="6.24978">
        <ele>402.45</ele>
        <time>2015-03-13T09:40:32Z</time>
      </trkpt>
      <trkpt lat="43.59961" lon="6.24977">
        <ele>405.81</ele>
        <time>2015-03-13T09:40:34Z</time>
      </trkpt>
      <trkpt lat="43.59963" lon="6.24973">
        <ele>410.62</ele>
        <time>2015-03-13T09:40:37Z</time>
      </trkpt>
      <trkpt lat="43.59966" lon="6.24968">
        <ele>414.47</ele>
        <time>2015-03-13T09:40:40Z</time>
      </trkpt>
      <trkpt lat="43.59968" lon="6.24965">
        <ele>418.31</ele>
        <time>2015-03-13T09:40:43Z</time>
      </trkpt>
      <trkpt lat="43.59969" lon="6.24961">
        <ele>421.68</ele>
        <time>2015-03-13T09:40:46Z</time>
      </trkpt>
      <trkpt lat="43.59971" lon="6.24957">
        <ele>424.56</ele>
        <time>2015-03-13T09:40:49Z</time>
      </trkpt>
      <trkpt lat="43.59973" lon="6.24952">
        <ele>428.4</ele>
        <time>2015-03-13T09:40:53Z</time>
      </trkpt>
      <trkpt lat="43.59976" lon="6.2495">
        <ele>431.77</ele>
        <time>2015-03-13T09:40:57Z</time>
      </trkpt>
      <trkpt lat="43.59978" lon="6.24949">
        <ele>433.21</ele>
        <time>2015-03-13T09:41:00Z</time>
      </trkpt>
      <trkpt lat="43.59979" lon="6.24942">
        <ele>435.13</ele>
        <time>2015-03-13T09:41:04Z</time>
      </trkpt>
      <trkpt lat="43.59981" lon="6.24933">
        <ele>438.5</ele>
        <time>2015-03-13T09:41:10Z</time>
      </trkpt>
      <trkpt lat="43.59982" lon="6.24927">
        <ele>440.42</ele>
        <time>2015-03-13T09:41:14Z</time>
      </trkpt>
      <trkpt lat="43.59984" lon="6.24925">
        <ele>441.38</ele>
        <time>2015-03-13T09:41:16Z</time>
      </trkpt>
      <trkpt lat="43.59987" lon="6.24917">
        <ele>442.34</ele>
        <time>2015-03-13T09:41:21Z</time>
      </trkpt>
      <trkpt lat="43.59992" lon="6.24905">
        <ele>443.31</ele>
        <time>2015-03-13T09:41:29Z</time>
      </trkpt>
      <trkpt lat="43.59998" lon="6.24895">
        <ele>443.31</ele>
        <time>2015-03-13T09:41:36Z</time>
      </trkpt>
      <trkpt lat="43.60005" lon="6.249">
        <ele>445.71</ele>
        <time>2015-03-13T09:41:42Z</time>
      </trkpt>
      <trkpt lat="43.60008" lon="6.24901">
        <ele>447.63</ele>
        <time>2015-03-13T09:41:57Z</time>
      </trkpt>
      <trkpt lat="43.60008" lon="6.24899">
        <ele>449.55</ele>
        <time>2015-03-13T09:42:16Z</time>
      </trkpt>
      <trkpt lat="43.60007" lon="6.24899">
        <ele>450.03</ele>
        <time>2015-03-13T09:42:40Z</time>
      </trkpt>
      <trkpt lat="43.60006" lon="6.24901">
        <ele>450.03</ele>
        <time>2015-03-13T09:42:56Z</time>
      </trkpt>
      <trkpt lat="43.60004" lon="6.24901">
        <ele>450.03</ele>
        <time>2015-03-13T09:43:12Z</time>
      </trkpt>
      <trkpt lat="43.60004" lon="6.24899">
        <ele>450.03</ele>
        <time>2015-03-13T09:43:26Z</time>
      </trkpt>
      <trkpt lat="43.60005" lon="6.24901">
        <ele>450.52</ele>
        <time>2015-03-13T09:43:41Z</time>
      </trkpt>
      <trkpt lat="43.60006" lon="6.249">
        <ele>450.52</ele>
        <time>2015-03-13T09:43:52Z</time>
      </trkpt>
      <trkpt lat="43.60005" lon="6.24899">
        <ele>450.52</ele>
        <time>2015-03-13T09:44:07Z</time>
      </trkpt>
      <trkpt lat="43.60005" lon="6.249">
        <ele>451</ele>
        <time>2015-03-13T09:44:18Z</time>
      </trkpt>
      <trkpt lat="43.60006" lon="6.249">
        <ele>452.92</ele>
        <time>2015-03-13T09:44:21Z</time>
      </trkpt>
      <trkpt lat="43.60006" lon="6.24899">
        <ele>450.52</ele>
        <time>2015-03-13T09:44:41Z</time>
      </trkpt>
      <trkpt lat="43.60004" lon="6.24898">
        <ele>451</ele>
        <time>2015-03-13T09:44:56Z</time>
      </trkpt>
      <trkpt lat="43.59998" lon="6.24885">
        <ele>449.55</ele>
        <time>2015-03-13T09:45:07Z</time>
      </trkpt>
      <trkpt lat="43.59993" lon="6.24871">
        <ele>448.59</ele>
        <time>2015-03-13T09:45:16Z</time>
      </trkpt>
      <trkpt lat="43.59988" lon="6.24863">
        <ele>447.63</ele>
        <time>2015-03-13T09:45:27Z</time>
      </trkpt>
      <trkpt lat="43.59977" lon="6.24846">
        <ele>446.67</ele>
        <time>2015-03-13T09:45:42Z</time>
      </trkpt>
      <trkpt lat="43.59967" lon="6.24829">
        <ele>445.23</ele>
        <time>2015-03-13T09:45:55Z</time>
      </trkpt>
      <trkpt lat="43.59962" lon="6.24826">
        <ele>448.11</ele>
        <time>2015-03-13T09:45:58Z</time>
      </trkpt>
      <trkpt lat="43.59961" lon="6.24825">
        <ele>445.23</ele>
        <time>2015-03-13T09:45:59Z</time>
      </trkpt>
      <trkpt lat="43.59961" lon="6.24825">
        <ele>444.75</ele>
        <time>2015-03-13T09:46:05Z</time>
      </trkpt>
      <trkpt lat="43.59958" lon="6.24809">
        <ele>443.79</ele>
        <time>2015-03-13T09:46:17Z</time>
      </trkpt>
      <trkpt lat="43.59961" lon="6.24799">
        <ele>442.34</ele>
        <time>2015-03-13T09:46:22Z</time>
      </trkpt>
      <trkpt lat="43.5997" lon="6.2478">
        <ele>442.34</ele>
        <time>2015-03-13T09:46:36Z</time>
      </trkpt>
      <trkpt lat="43.59979" lon="6.24761">
        <ele>441.38</ele>
        <time>2015-03-13T09:46:50Z</time>
      </trkpt>
      <trkpt lat="43.59987" lon="6.2474">
        <ele>440.42</ele>
        <time>2015-03-13T09:47:04Z</time>
      </trkpt>
      <trkpt lat="43.59991" lon="6.24731">
        <ele>440.42</ele>
        <time>2015-03-13T09:47:10Z</time>
      </trkpt>
      <trkpt lat="43.59998" lon="6.24709">
        <ele>439.94</ele>
        <time>2015-03-13T09:47:23Z</time>
      </trkpt>
      <trkpt lat="43.59998" lon="6.24692">
        <ele>439.94</ele>
        <time>2015-03-13T09:47:35Z</time>
      </trkpt>
      <trkpt lat="43.59988" lon="6.24676">
        <ele>438.98</ele>
        <time>2015-03-13T09:47:46Z</time>
      </trkpt>
      <trkpt lat="43.59985" lon="6.24666">
        <ele>438.5</ele>
        <time>2015-03-13T09:47:58Z</time>
      </trkpt>
      <trkpt lat="43.59984" lon="6.24664">
        <ele>438.02</ele>
        <time>2015-03-13T09:48:20Z</time>
      </trkpt>
      <trkpt lat="43.59982" lon="6.24653">
        <ele>438.02</ele>
        <time>2015-03-13T09:48:27Z</time>
      </trkpt>
      <trkpt lat="43.59979" lon="6.24641">
        <ele>437.54</ele>
        <time>2015-03-13T09:48:37Z</time>
      </trkpt>
      <trkpt lat="43.59979" lon="6.24637">
        <ele>437.54</ele>
        <time>2015-03-13T09:48:40Z</time>
      </trkpt>
      <trkpt lat="43.59974" lon="6.2461">
        <ele>436.58</ele>
        <time>2015-03-13T09:48:56Z</time>
      </trkpt>
      <trkpt lat="43.59973" lon="6.24587">
        <ele>436.1</ele>
        <time>2015-03-13T09:49:11Z</time>
      </trkpt>
      <trkpt lat="43.59973" lon="6.2458">
        <ele>436.1</ele>
        <time>2015-03-13T09:49:15Z</time>
      </trkpt>
      <trkpt lat="43.59973" lon="6.24557">
        <ele>435.61</ele>
        <time>2015-03-13T09:49:29Z</time>
      </trkpt>
      <trkpt lat="43.59977" lon="6.24538">
        <ele>435.13</ele>
        <time>2015-03-13T09:49:42Z</time>
      </trkpt>
      <trkpt lat="43.59988" lon="6.2452">
        <ele>434.65</ele>
        <time>2015-03-13T09:49:58Z</time>
      </trkpt>
      <trkpt lat="43.60002" lon="6.24509">
        <ele>434.65</ele>
        <time>2015-03-13T09:50:12Z</time>
      </trkpt>
      <trkpt lat="43.60016" lon="6.24495">
        <ele>434.17</ele>
        <time>2015-03-13T09:50:26Z</time>
      </trkpt>
      <trkpt lat="43.60017" lon="6.24494">
        <ele>434.17</ele>
        <time>2015-03-13T09:50:27Z</time>
      </trkpt>
      <trkpt lat="43.60039" lon="6.24481">
        <ele>433.21</ele>
        <time>2015-03-13T09:50:44Z</time>
      </trkpt>
      <trkpt lat="43.60048" lon="6.24464">
        <ele>432.25</ele>
        <time>2015-03-13T09:50:57Z</time>
      </trkpt>
      <trkpt lat="43.60057" lon="6.24443">
        <ele>431.29</ele>
        <time>2015-03-13T09:51:10Z</time>
      </trkpt>
      <trkpt lat="43.60069" lon="6.24421">
        <ele>430.81</ele>
        <time>2015-03-13T09:51:26Z</time>
      </trkpt>
      <trkpt lat="43.60085" lon="6.24386">
        <ele>429.85</ele>
        <time>2015-03-13T09:51:44Z</time>
      </trkpt>
      <trkpt lat="43.601" lon="6.24351">
        <ele>430.33</ele>
        <time>2015-03-13T09:51:51Z</time>
      </trkpt>
      <trkpt lat="43.60122" lon="6.24289">
        <ele>431.77</ele>
        <time>2015-03-13T09:52:00Z</time>
      </trkpt>
      <trkpt lat="43.60123" lon="6.2428">
        <ele>430.33</ele>
        <time>2015-03-13T09:52:01Z</time>
      </trkpt>
      <trkpt lat="43.60126" lon="6.24272">
        <ele>431.29</ele>
        <time>2015-03-13T09:52:02Z</time>
      </trkpt>
      <trkpt lat="43.60135" lon="6.24232">
        <ele>431.29</ele>
        <time>2015-03-13T09:52:07Z</time>
      </trkpt>
      <trkpt lat="43.60137" lon="6.24218">
        <ele>431.77</ele>
        <time>2015-03-13T09:52:09Z</time>
      </trkpt>
      <trkpt lat="43.60138" lon="6.24212">
        <ele>432.25</ele>
        <time>2015-03-13T09:52:10Z</time>
      </trkpt>
      <trkpt lat="43.60144" lon="6.24197">
        <ele>432.73</ele>
        <time>2015-03-13T09:52:17Z</time>
      </trkpt>
      <trkpt lat="43.60145" lon="6.24195">
        <ele>432.73</ele>
        <time>2015-03-13T09:52:18Z</time>
      </trkpt>
      <trkpt lat="43.60161" lon="6.24176">
        <ele>432.25</ele>
        <time>2015-03-13T09:52:33Z</time>
      </trkpt>
      <trkpt lat="43.60162" lon="6.24175">
        <ele>432.25</ele>
        <time>2015-03-13T09:52:34Z</time>
      </trkpt>
      <trkpt lat="43.60163" lon="6.24173">
        <ele>432.25</ele>
        <time>2015-03-13T09:52:35Z</time>
      </trkpt>
      <trkpt lat="43.60164" lon="6.24171">
        <ele>432.25</ele>
        <time>2015-03-13T09:52:36Z</time>
      </trkpt>
      <trkpt lat="43.60177" lon="6.24151">
        <ele>431.77</ele>
        <time>2015-03-13T09:52:51Z</time>
      </trkpt>
      <trkpt lat="43.6019" lon="6.24134">
        <ele>431.29</ele>
        <time>2015-03-13T09:53:05Z</time>
      </trkpt>
      <trkpt lat="43.60202" lon="6.24118">
        <ele>430.81</ele>
        <time>2015-03-13T09:53:18Z</time>
      </trkpt>
      <trkpt lat="43.60211" lon="6.24097">
        <ele>430.81</ele>
        <time>2015-03-13T09:53:34Z</time>
      </trkpt>
      <trkpt lat="43.60215" lon="6.24091">
        <ele>431.29</ele>
        <time>2015-03-13T09:53:40Z</time>
      </trkpt>
      <trkpt lat="43.60229" lon="6.2407">
        <ele>431.29</ele>
        <time>2015-03-13T09:53:56Z</time>
      </trkpt>
      <trkpt lat="43.60241" lon="6.24042">
        <ele>432.25</ele>
        <time>2015-03-13T09:54:14Z</time>
      </trkpt>
      <trkpt lat="43.60253" lon="6.24023">
        <ele>433.21</ele>
        <time>2015-03-13T09:54:28Z</time>
      </trkpt>
      <trkpt lat="43.60262" lon="6.24003">
        <ele>434.65</ele>
        <time>2015-03-13T09:54:42Z</time>
      </trkpt>
      <trkpt lat="43.60273" lon="6.23983">
        <ele>435.61</ele>
        <time>2015-03-13T09:54:57Z</time>
      </trkpt>
      <trkpt lat="43.60285" lon="6.23964">
        <ele>436.1</ele>
        <time>2015-03-13T09:55:11Z</time>
      </trkpt>
      <trkpt lat="43.60298" lon="6.23953">
        <ele>436.1</ele>
        <time>2015-03-13T09:55:24Z</time>
      </trkpt>
      <trkpt lat="43.60309" lon="6.23932">
        <ele>434.65</ele>
        <time>2015-03-13T09:55:38Z</time>
      </trkpt>
      <trkpt lat="43.60311" lon="6.23928">
        <ele>433.69</ele>
        <time>2015-03-13T09:55:41Z</time>
      </trkpt>
      <trkpt lat="43.60312" lon="6.23927">
        <ele>433.69</ele>
        <time>2015-03-13T09:55:42Z</time>
      </trkpt>
      <trkpt lat="43.60316" lon="6.23922">
        <ele>433.21</ele>
        <time>2015-03-13T09:55:45Z</time>
      </trkpt>
      <trkpt lat="43.60317" lon="6.23921">
        <ele>433.21</ele>
        <time>2015-03-13T09:55:46Z</time>
      </trkpt>
      <trkpt lat="43.60318" lon="6.23919">
        <ele>432.73</ele>
        <time>2015-03-13T09:55:47Z</time>
      </trkpt>
      <trkpt lat="43.6032" lon="6.23913">
        <ele>433.21</ele>
        <time>2015-03-13T09:55:52Z</time>
      </trkpt>
      <trkpt lat="43.60321" lon="6.23911">
        <ele>432.25</ele>
        <time>2015-03-13T09:55:53Z</time>
      </trkpt>
      <trkpt lat="43.60322" lon="6.2391">
        <ele>432.25</ele>
        <time>2015-03-13T09:55:54Z</time>
      </trkpt>
      <trkpt lat="43.60323" lon="6.23908">
        <ele>432.25</ele>
        <time>2015-03-13T09:55:55Z</time>
      </trkpt>
      <trkpt lat="43.60324" lon="6.23906">
        <ele>432.25</ele>
        <time>2015-03-13T09:55:56Z</time>
      </trkpt>
      <trkpt lat="43.60328" lon="6.23897">
        <ele>432.25</ele>
        <time>2015-03-13T09:56:02Z</time>
      </trkpt>
      <trkpt lat="43.60329" lon="6.23896">
        <ele>432.25</ele>
        <time>2015-03-13T09:56:03Z</time>
      </trkpt>
      <trkpt lat="43.6033" lon="6.23894">
        <ele>432.25</ele>
        <time>2015-03-13T09:56:04Z</time>
      </trkpt>
      <trkpt lat="43.60331" lon="6.23893">
        <ele>432.25</ele>
        <time>2015-03-13T09:56:05Z</time>
      </trkpt>
      <trkpt lat="43.60331" lon="6.23891">
        <ele>432.25</ele>
        <time>2015-03-13T09:56:06Z</time>
      </trkpt>
      <trkpt lat="43.60339" lon="6.23875">
        <ele>433.21</ele>
        <time>2015-03-13T09:56:18Z</time>
      </trkpt>
      <trkpt lat="43.60347" lon="6.23855">
        <ele>434.17</ele>
        <time>2015-03-13T09:56:33Z</time>
      </trkpt>
      <trkpt lat="43.60352" lon="6.2384">
        <ele>436.1</ele>
        <time>2015-03-13T09:56:44Z</time>
      </trkpt>
      <trkpt lat="43.60358" lon="6.23827">
        <ele>437.06</ele>
        <time>2015-03-13T09:56:54Z</time>
      </trkpt>
      <trkpt lat="43.60361" lon="6.23823">
        <ele>437.06</ele>
        <time>2015-03-13T09:56:57Z</time>
      </trkpt>
      <trkpt lat="43.60362" lon="6.23822">
        <ele>437.06</ele>
        <time>2015-03-13T09:56:58Z</time>
      </trkpt>
      <trkpt lat="43.60365" lon="6.23817">
        <ele>438.02</ele>
        <time>2015-03-13T09:57:02Z</time>
      </trkpt>
      <trkpt lat="43.60369" lon="6.23806">
        <ele>438.98</ele>
        <time>2015-03-13T09:57:11Z</time>
      </trkpt>
      <trkpt lat="43.6038" lon="6.23788">
        <ele>441.86</ele>
        <time>2015-03-13T09:57:25Z</time>
      </trkpt>
      <trkpt lat="43.60391" lon="6.23769">
        <ele>441.86</ele>
        <time>2015-03-13T09:57:40Z</time>
      </trkpt>
      <trkpt lat="43.60403" lon="6.2375">
        <ele>442.34</ele>
        <time>2015-03-13T09:57:56Z</time>
      </trkpt>
      <trkpt lat="43.60414" lon="6.23733">
        <ele>442.34</ele>
        <time>2015-03-13T09:58:11Z</time>
      </trkpt>
      <trkpt lat="43.60425" lon="6.23715">
        <ele>441.86</ele>
        <time>2015-03-13T09:58:26Z</time>
      </trkpt>
      <trkpt lat="43.60441" lon="6.23696">
        <ele>441.38</ele>
        <time>2015-03-13T09:58:42Z</time>
      </trkpt>
      <trkpt lat="43.60442" lon="6.23694">
        <ele>441.38</ele>
        <time>2015-03-13T09:58:43Z</time>
      </trkpt>
      <trkpt lat="43.60454" lon="6.23675">
        <ele>441.38</ele>
        <time>2015-03-13T09:58:58Z</time>
      </trkpt>
      <trkpt lat="43.60461" lon="6.23665">
        <ele>440.9</ele>
        <time>2015-03-13T09:59:11Z</time>
      </trkpt>
      <trkpt lat="43.60473" lon="6.23647">
        <ele>439.94</ele>
        <time>2015-03-13T09:59:26Z</time>
      </trkpt>
      <trkpt lat="43.60482" lon="6.2363">
        <ele>438.98</ele>
        <time>2015-03-13T09:59:39Z</time>
      </trkpt>
      <trkpt lat="43.60484" lon="6.23628">
        <ele>438.5</ele>
        <time>2015-03-13T09:59:49Z</time>
      </trkpt>
      <trkpt lat="43.60485" lon="6.23626">
        <ele>438.5</ele>
        <time>2015-03-13T09:59:50Z</time>
      </trkpt>
      <trkpt lat="43.60486" lon="6.23624">
        <ele>439.46</ele>
        <time>2015-03-13T09:59:52Z</time>
      </trkpt>
      <trkpt lat="43.6049" lon="6.23618">
        <ele>438.02</ele>
        <time>2015-03-13T09:59:56Z</time>
      </trkpt>
      <trkpt lat="43.605" lon="6.236">
        <ele>437.06</ele>
        <time>2015-03-13T10:00:10Z</time>
      </trkpt>
      <trkpt lat="43.60504" lon="6.23594">
        <ele>436.58</ele>
        <time>2015-03-13T10:00:18Z</time>
      </trkpt>
      <trkpt lat="43.60506" lon="6.23592">
        <ele>436.1</ele>
        <time>2015-03-13T10:00:20Z</time>
      </trkpt>
      <trkpt lat="43.60507" lon="6.2359">
        <ele>436.1</ele>
        <time>2015-03-13T10:00:21Z</time>
      </trkpt>
      <trkpt lat="43.60508" lon="6.23589">
        <ele>436.1</ele>
        <time>2015-03-13T10:00:22Z</time>
      </trkpt>
      <trkpt lat="43.6052" lon="6.23581">
        <ele>434.17</ele>
        <time>2015-03-13T10:00:35Z</time>
      </trkpt>
      <trkpt lat="43.60523" lon="6.23581">
        <ele>433.69</ele>
        <time>2015-03-13T10:00:40Z</time>
      </trkpt>
      <trkpt lat="43.60536" lon="6.23575">
        <ele>431.77</ele>
        <time>2015-03-13T10:00:53Z</time>
      </trkpt>
      <trkpt lat="43.60536" lon="6.23571">
        <ele>431.29</ele>
        <time>2015-03-13T10:00:57Z</time>
      </trkpt>
      <trkpt lat="43.60538" lon="6.23566">
        <ele>430.81</ele>
        <time>2015-03-13T10:01:00Z</time>
      </trkpt>
      <trkpt lat="43.6055" lon="6.23553">
        <ele>428.89</ele>
        <time>2015-03-13T10:01:12Z</time>
      </trkpt>
      <trkpt lat="43.60556" lon="6.23547">
        <ele>427.92</ele>
        <time>2015-03-13T10:01:18Z</time>
      </trkpt>
      <trkpt lat="43.60563" lon="6.23542">
        <ele>426.96</ele>
        <time>2015-03-13T10:01:23Z</time>
      </trkpt>
      <trkpt lat="43.60574" lon="6.2352">
        <ele>427.44</ele>
        <time>2015-03-13T10:01:37Z</time>
      </trkpt>
      <trkpt lat="43.60575" lon="6.23505">
        <ele>427.44</ele>
        <time>2015-03-13T10:01:45Z</time>
      </trkpt>
      <trkpt lat="43.6058" lon="6.23496">
        <ele>424.56</ele>
        <time>2015-03-13T10:01:54Z</time>
      </trkpt>
      <trkpt lat="43.6058" lon="6.23496">
        <ele>425.04</ele>
        <time>2015-03-13T10:01:55Z</time>
      </trkpt>
      <trkpt lat="43.6058" lon="6.23496">
        <ele>428.89</ele>
        <time>2015-03-13T10:01:56Z</time>
      </trkpt>
      <trkpt lat="43.6058" lon="6.23496">
        <ele>427.92</ele>
        <time>2015-03-13T10:01:57Z</time>
      </trkpt>
      <trkpt lat="43.6058" lon="6.23496">
        <ele>433.69</ele>
        <time>2015-03-13T10:01:59Z</time>
      </trkpt>
      <trkpt lat="43.6058" lon="6.23496">
        <ele>427.92</ele>
        <time>2015-03-13T10:02:00Z</time>
      </trkpt>
      <trkpt lat="43.6058" lon="6.23496">
        <ele>427.92</ele>
        <time>2015-03-13T10:02:23Z</time>
      </trkpt>
      <trkpt lat="43.6058" lon="6.23496">
        <ele>427.92</ele>
        <time>2015-03-13T10:02:47Z</time>
      </trkpt>
      <trkpt lat="43.6058" lon="6.23495">
        <ele>419.75</ele>
        <time>2015-03-13T10:03:12Z</time>
      </trkpt>
      <trkpt lat="43.6058" lon="6.23495">
        <ele>432.25</ele>
        <time>2015-03-13T10:03:13Z</time>
      </trkpt>
      <trkpt lat="43.6058" lon="6.23495">
        <ele>430.81</ele>
        <time>2015-03-13T10:03:14Z</time>
      </trkpt>
      <trkpt lat="43.6058" lon="6.23495">
        <ele>427.92</ele>
        <time>2015-03-13T10:03:16Z</time>
      </trkpt>
      <trkpt lat="43.60583" lon="6.23486">
        <ele>427.92</ele>
        <time>2015-03-13T10:03:23Z</time>
      </trkpt>
      <trkpt lat="43.60582" lon="6.23466">
        <ele>428.89</ele>
        <time>2015-03-13T10:03:34Z</time>
      </trkpt>
      <trkpt lat="43.60582" lon="6.23455">
        <ele>429.37</ele>
        <time>2015-03-13T10:03:42Z</time>
      </trkpt>
      <trkpt lat="43.60586" lon="6.23434">
        <ele>431.29</ele>
        <time>2015-03-13T10:03:57Z</time>
      </trkpt>
      <trkpt lat="43.60587" lon="6.2343">
        <ele>432.25</ele>
        <time>2015-03-13T10:04:02Z</time>
      </trkpt>
      <trkpt lat="43.60586" lon="6.23401">
        <ele>433.21</ele>
        <time>2015-03-13T10:04:11Z</time>
      </trkpt>
      <trkpt lat="43.60584" lon="6.23397">
        <ele>433.21</ele>
        <time>2015-03-13T10:04:12Z</time>
      </trkpt>
      <trkpt lat="43.60582" lon="6.23386">
        <ele>433.69</ele>
        <time>2015-03-13T10:04:15Z</time>
      </trkpt>
      <trkpt lat="43.60597" lon="6.23358">
        <ele>434.65</ele>
        <time>2015-03-13T10:04:24Z</time>
      </trkpt>
      <trkpt lat="43.60622" lon="6.2333">
        <ele>435.61</ele>
        <time>2015-03-13T10:04:36Z</time>
      </trkpt>
      <trkpt lat="43.6065" lon="6.23297">
        <ele>437.06</ele>
        <time>2015-03-13T10:04:48Z</time>
      </trkpt>
      <trkpt lat="43.60677" lon="6.23266">
        <ele>438.5</ele>
        <time>2015-03-13T10:04:59Z</time>
      </trkpt>
      <trkpt lat="43.60691" lon="6.2325">
        <ele>439.46</ele>
        <time>2015-03-13T10:05:07Z</time>
      </trkpt>
      <trkpt lat="43.6069" lon="6.23236">
        <ele>440.42</ele>
        <time>2015-03-13T10:05:15Z</time>
      </trkpt>
      <trkpt lat="43.60689" lon="6.23233">
        <ele>440.9</ele>
        <time>2015-03-13T10:05:17Z</time>
      </trkpt>
      <trkpt lat="43.60679" lon="6.23216">
        <ele>443.31</ele>
        <time>2015-03-13T10:05:31Z</time>
      </trkpt>
      <trkpt lat="43.60679" lon="6.23215">
        <ele>443.31</ele>
        <time>2015-03-13T10:05:32Z</time>
      </trkpt>
      <trkpt lat="43.60677" lon="6.23211">
        <ele>443.79</ele>
        <time>2015-03-13T10:05:35Z</time>
      </trkpt>
      <trkpt lat="43.60668" lon="6.23192">
        <ele>445.71</ele>
        <time>2015-03-13T10:05:51Z</time>
      </trkpt>
      <trkpt lat="43.60662" lon="6.23183">
        <ele>446.67</ele>
        <time>2015-03-13T10:06:00Z</time>
      </trkpt>
      <trkpt lat="43.60657" lon="6.23173">
        <ele>447.15</ele>
        <time>2015-03-13T10:06:07Z</time>
      </trkpt>
      <trkpt lat="43.60646" lon="6.23152">
        <ele>449.07</ele>
        <time>2015-03-13T10:06:24Z</time>
      </trkpt>
      <trkpt lat="43.6064" lon="6.23137">
        <ele>450.52</ele>
        <time>2015-03-13T10:06:39Z</time>
      </trkpt>
      <trkpt lat="43.60631" lon="6.23117">
        <ele>451</ele>
        <time>2015-03-13T10:06:55Z</time>
      </trkpt>
      <trkpt lat="43.60625" lon="6.23101">
        <ele>451.48</ele>
        <time>2015-03-13T10:07:05Z</time>
      </trkpt>
      <trkpt lat="43.60624" lon="6.23097">
        <ele>451.48</ele>
        <time>2015-03-13T10:07:08Z</time>
      </trkpt>
      <trkpt lat="43.60617" lon="6.23082">
        <ele>451</ele>
        <time>2015-03-13T10:07:22Z</time>
      </trkpt>
      <trkpt lat="43.60613" lon="6.23073">
        <ele>450.52</ele>
        <time>2015-03-13T10:07:32Z</time>
      </trkpt>
      <trkpt lat="43.60606" lon="6.23054">
        <ele>449.55</ele>
        <time>2015-03-13T10:07:45Z</time>
      </trkpt>
      <trkpt lat="43.60599" lon="6.23043">
        <ele>449.07</ele>
        <time>2015-03-13T10:07:56Z</time>
      </trkpt>
      <trkpt lat="43.606" lon="6.23042">
        <ele>449.07</ele>
        <time>2015-03-13T10:08:08Z</time>
      </trkpt>
      <trkpt lat="43.60599" lon="6.23041">
        <ele>449.07</ele>
        <time>2015-03-13T10:08:11Z</time>
      </trkpt>
      <trkpt lat="43.60592" lon="6.23034">
        <ele>447.63</ele>
        <time>2015-03-13T10:08:19Z</time>
      </trkpt>
      <trkpt lat="43.60589" lon="6.23031">
        <ele>447.15</ele>
        <time>2015-03-13T10:08:22Z</time>
      </trkpt>
      <trkpt lat="43.60587" lon="6.23029">
        <ele>447.15</ele>
        <time>2015-03-13T10:08:24Z</time>
      </trkpt>
      <trkpt lat="43.60581" lon="6.23029">
        <ele>447.15</ele>
        <time>2015-03-13T10:08:30Z</time>
      </trkpt>
      <trkpt lat="43.6056" lon="6.23033">
        <ele>448.11</ele>
        <time>2015-03-13T10:08:42Z</time>
      </trkpt>
      <trkpt lat="43.60536" lon="6.23039">
        <ele>448.59</ele>
        <time>2015-03-13T10:08:51Z</time>
      </trkpt>
      <trkpt lat="43.60532" lon="6.2304">
        <ele>449.07</ele>
        <time>2015-03-13T10:08:53Z</time>
      </trkpt>
      <trkpt lat="43.60516" lon="6.23044">
        <ele>450.52</ele>
        <time>2015-03-13T10:09:04Z</time>
      </trkpt>
      <trkpt lat="43.60498" lon="6.23044">
        <ele>451.96</ele>
        <time>2015-03-13T10:09:18Z</time>
      </trkpt>
      <trkpt lat="43.60484" lon="6.23043">
        <ele>452.92</ele>
        <time>2015-03-13T10:09:32Z</time>
      </trkpt>
      <trkpt lat="43.6048" lon="6.23042">
        <ele>453.4</ele>
        <time>2015-03-13T10:09:36Z</time>
      </trkpt>
      <trkpt lat="43.6047" lon="6.23034">
        <ele>454.84</ele>
        <time>2015-03-13T10:09:47Z</time>
      </trkpt>
      <trkpt lat="43.60468" lon="6.23024">
        <ele>455.8</ele>
        <time>2015-03-13T10:09:57Z</time>
      </trkpt>
      <trkpt lat="43.60469" lon="6.23022">
        <ele>456.28</ele>
        <time>2015-03-13T10:10:03Z</time>
      </trkpt>
      <trkpt lat="43.6048" lon="6.2301">
        <ele>457.24</ele>
        <time>2015-03-13T10:10:15Z</time>
      </trkpt>
      <trkpt lat="43.60484" lon="6.23001">
        <ele>457.72</ele>
        <time>2015-03-13T10:10:22Z</time>
      </trkpt>
      <trkpt lat="43.60483" lon="6.22995">
        <ele>458.21</ele>
        <time>2015-03-13T10:10:26Z</time>
      </trkpt>
      <trkpt lat="43.60474" lon="6.22988">
        <ele>459.65</ele>
        <time>2015-03-13T10:10:35Z</time>
      </trkpt>
      <trkpt lat="43.60467" lon="6.22972">
        <ele>461.09</ele>
        <time>2015-03-13T10:10:48Z</time>
      </trkpt>
      <trkpt lat="43.60457" lon="6.22954">
        <ele>462.05</ele>
        <time>2015-03-13T10:11:03Z</time>
      </trkpt>
      <trkpt lat="43.60452" lon="6.22948">
        <ele>462.05</ele>
        <time>2015-03-13T10:11:09Z</time>
      </trkpt>
      <trkpt lat="43.60448" lon="6.22944">
        <ele>462.53</ele>
        <time>2015-03-13T10:11:13Z</time>
      </trkpt>
      <trkpt lat="43.60442" lon="6.22937">
        <ele>463.49</ele>
        <time>2015-03-13T10:11:22Z</time>
      </trkpt>
      <trkpt lat="43.60436" lon="6.22927">
        <ele>464.45</ele>
        <time>2015-03-13T10:11:30Z</time>
      </trkpt>
      <trkpt lat="43.60429" lon="6.22917">
        <ele>465.42</ele>
        <time>2015-03-13T10:11:38Z</time>
      </trkpt>
      <trkpt lat="43.60427" lon="6.22914">
        <ele>465.42</ele>
        <time>2015-03-13T10:11:41Z</time>
      </trkpt>
      <trkpt lat="43.60424" lon="6.22908">
        <ele>465.42</ele>
        <time>2015-03-13T10:11:45Z</time>
      </trkpt>
      <trkpt lat="43.60412" lon="6.22888">
        <ele>467.82</ele>
        <time>2015-03-13T10:12:00Z</time>
      </trkpt>
      <trkpt lat="43.60395" lon="6.22858">
        <ele>470.22</ele>
        <time>2015-03-13T10:12:10Z</time>
      </trkpt>
      <trkpt lat="43.60376" lon="6.22851">
        <ele>471.18</ele>
        <time>2015-03-13T10:12:19Z</time>
      </trkpt>
      <trkpt lat="43.60364" lon="6.22851">
        <ele>471.18</ele>
        <time>2015-03-13T10:12:24Z</time>
      </trkpt>
      <trkpt lat="43.60344" lon="6.22862">
        <ele>471.66</ele>
        <time>2015-03-13T10:12:32Z</time>
      </trkpt>
      <trkpt lat="43.60324" lon="6.22866">
        <ele>471.66</ele>
        <time>2015-03-13T10:12:40Z</time>
      </trkpt>
      <trkpt lat="43.60304" lon="6.22874">
        <ele>472.14</ele>
        <time>2015-03-13T10:12:49Z</time>
      </trkpt>
      <trkpt lat="43.60299" lon="6.22874">
        <ele>473.11</ele>
        <time>2015-03-13T10:12:54Z</time>
      </trkpt>
      <trkpt lat="43.60294" lon="6.22866">
        <ele>473.11</ele>
        <time>2015-03-13T10:12:59Z</time>
      </trkpt>
      <trkpt lat="43.60278" lon="6.22835">
        <ele>473.59</ele>
        <time>2015-03-13T10:13:09Z</time>
      </trkpt>
      <trkpt lat="43.60265" lon="6.22809">
        <ele>473.59</ele>
        <time>2015-03-13T10:13:19Z</time>
      </trkpt>
      <trkpt lat="43.60259" lon="6.22777">
        <ele>474.55</ele>
        <time>2015-03-13T10:13:28Z</time>
      </trkpt>
      <trkpt lat="43.60255" lon="6.22766">
        <ele>474.07</ele>
        <time>2015-03-13T10:13:32Z</time>
      </trkpt>
      <trkpt lat="43.6025" lon="6.2275">
        <ele>474.07</ele>
        <time>2015-03-13T10:13:37Z</time>
      </trkpt>
      <trkpt lat="43.60247" lon="6.22744">
        <ele>474.07</ele>
        <time>2015-03-13T10:13:39Z</time>
      </trkpt>
      <trkpt lat="43.60238" lon="6.22715">
        <ele>473.11</ele>
        <time>2015-03-13T10:13:48Z</time>
      </trkpt>
      <trkpt lat="43.60227" lon="6.22689">
        <ele>472.14</ele>
        <time>2015-03-13T10:13:58Z</time>
      </trkpt>
      <trkpt lat="43.60224" lon="6.22681">
        <ele>471.66</ele>
        <time>2015-03-13T10:14:02Z</time>
      </trkpt>
      <trkpt lat="43.60212" lon="6.22656">
        <ele>470.22</ele>
        <time>2015-03-13T10:14:10Z</time>
      </trkpt>
      <trkpt lat="43.60208" lon="6.22644">
        <ele>469.74</ele>
        <time>2015-03-13T10:14:16Z</time>
      </trkpt>
      <trkpt lat="43.60205" lon="6.22637">
        <ele>468.78</ele>
        <time>2015-03-13T10:14:20Z</time>
      </trkpt>
      <trkpt lat="43.60203" lon="6.22625">
        <ele>468.78</ele>
        <time>2015-03-13T10:14:24Z</time>
      </trkpt>
      <trkpt lat="43.60198" lon="6.226">
        <ele>467.82</ele>
        <time>2015-03-13T10:14:32Z</time>
      </trkpt>
      <trkpt lat="43.60181" lon="6.2258">
        <ele>466.38</ele>
        <time>2015-03-13T10:14:42Z</time>
      </trkpt>
      <trkpt lat="43.60175" lon="6.22575">
        <ele>465.9</ele>
        <time>2015-03-13T10:14:45Z</time>
      </trkpt>
      <trkpt lat="43.60161" lon="6.22563">
        <ele>464.93</ele>
        <time>2015-03-13T10:14:51Z</time>
      </trkpt>
      <trkpt lat="43.60138" lon="6.22544">
        <ele>463.49</ele>
        <time>2015-03-13T10:15:01Z</time>
      </trkpt>
      <trkpt lat="43.60104" lon="6.22535">
        <ele>462.05</ele>
        <time>2015-03-13T10:15:11Z</time>
      </trkpt>
      <trkpt lat="43.60082" lon="6.22524">
        <ele>463.01</ele>
        <time>2015-03-13T10:15:17Z</time>
      </trkpt>
      <trkpt lat="43.60067" lon="6.22521">
        <ele>463.49</ele>
        <time>2015-03-13T10:15:20Z</time>
      </trkpt>
      <trkpt lat="43.60038" lon="6.22526">
        <ele>463.49</ele>
        <time>2015-03-13T10:15:26Z</time>
      </trkpt>
      <trkpt lat="43.60001" lon="6.22546">
        <ele>464.45</ele>
        <time>2015-03-13T10:15:34Z</time>
      </trkpt>
      <trkpt lat="43.59992" lon="6.22548">
        <ele>463.97</ele>
        <time>2015-03-13T10:15:36Z</time>
      </trkpt>
      <trkpt lat="43.5998" lon="6.2255">
        <ele>464.45</ele>
        <time>2015-03-13T10:15:38Z</time>
      </trkpt>
      <trkpt lat="43.59974" lon="6.22552">
        <ele>464.93</ele>
        <time>2015-03-13T10:15:39Z</time>
      </trkpt>
      <trkpt lat="43.59969" lon="6.22553">
        <ele>464.45</ele>
        <time>2015-03-13T10:15:40Z</time>
      </trkpt>
      <trkpt lat="43.59956" lon="6.22559">
        <ele>465.42</ele>
        <time>2015-03-13T10:15:42Z</time>
      </trkpt>
      <trkpt lat="43.5995" lon="6.22561">
        <ele>464.93</ele>
        <time>2015-03-13T10:15:43Z</time>
      </trkpt>
      <trkpt lat="43.59943" lon="6.22563">
        <ele>464.93</ele>
        <time>2015-03-13T10:15:44Z</time>
      </trkpt>
      <trkpt lat="43.59918" lon="6.22575">
        <ele>466.86</ele>
        <time>2015-03-13T10:15:49Z</time>
      </trkpt>
      <trkpt lat="43.59913" lon="6.22577">
        <ele>465.9</ele>
        <time>2015-03-13T10:15:50Z</time>
      </trkpt>
      <trkpt lat="43.5987" lon="6.22591">
        <ele>466.38</ele>
        <time>2015-03-13T10:15:57Z</time>
      </trkpt>
      <trkpt lat="43.59865" lon="6.22592">
        <ele>465.9</ele>
        <time>2015-03-13T10:15:58Z</time>
      </trkpt>
      <trkpt lat="43.5986" lon="6.22592">
        <ele>466.38</ele>
        <time>2015-03-13T10:15:59Z</time>
      </trkpt>
      <trkpt lat="43.59855" lon="6.22594">
        <ele>466.38</ele>
        <time>2015-03-13T10:16:00Z</time>
      </trkpt>
      <trkpt lat="43.59851" lon="6.22596">
        <ele>465.9</ele>
        <time>2015-03-13T10:16:01Z</time>
      </trkpt>
      <trkpt lat="43.59849" lon="6.22599">
        <ele>465.9</ele>
        <time>2015-03-13T10:16:02Z</time>
      </trkpt>
      <trkpt lat="43.59849" lon="6.22605">
        <ele>465.42</ele>
        <time>2015-03-13T10:16:10Z</time>
      </trkpt>
      <trkpt lat="43.5985" lon="6.22599">
        <ele>465.9</ele>
        <time>2015-03-13T10:16:16Z</time>
      </trkpt>
      <trkpt lat="43.59842" lon="6.22595">
        <ele>466.38</ele>
        <time>2015-03-13T10:16:21Z</time>
      </trkpt>
      <trkpt lat="43.59835" lon="6.22596">
        <ele>465.9</ele>
        <time>2015-03-13T10:16:23Z</time>
      </trkpt>
      <trkpt lat="43.59831" lon="6.22596">
        <ele>465.9</ele>
        <time>2015-03-13T10:16:24Z</time>
      </trkpt>
      <trkpt lat="43.59826" lon="6.22596">
        <ele>465.9</ele>
        <time>2015-03-13T10:16:25Z</time>
      </trkpt>
      <trkpt lat="43.59807" lon="6.22599">
        <ele>466.38</ele>
        <time>2015-03-13T10:16:29Z</time>
      </trkpt>
      <trkpt lat="43.59792" lon="6.22597">
        <ele>465.9</ele>
        <time>2015-03-13T10:16:32Z</time>
      </trkpt>
      <trkpt lat="43.59784" lon="6.22599">
        <ele>465.9</ele>
        <time>2015-03-13T10:16:34Z</time>
      </trkpt>
      <trkpt lat="43.59745" lon="6.22604">
        <ele>465.42</ele>
        <time>2015-03-13T10:16:44Z</time>
      </trkpt>
      <trkpt lat="43.59733" lon="6.22606">
        <ele>465.42</ele>
        <time>2015-03-13T10:16:47Z</time>
      </trkpt>
      <trkpt lat="43.59729" lon="6.22606">
        <ele>465.42</ele>
        <time>2015-03-13T10:16:48Z</time>
      </trkpt>
      <trkpt lat="43.59721" lon="6.22605">
        <ele>465.42</ele>
        <time>2015-03-13T10:16:50Z</time>
      </trkpt>
      <trkpt lat="43.59702" lon="6.22599">
        <ele>465.42</ele>
        <time>2015-03-13T10:16:55Z</time>
      </trkpt>
      <trkpt lat="43.59698" lon="6.22599">
        <ele>465.42</ele>
        <time>2015-03-13T10:16:56Z</time>
      </trkpt>
      <trkpt lat="43.59695" lon="6.226">
        <ele>465.42</ele>
        <time>2015-03-13T10:16:57Z</time>
      </trkpt>
      <trkpt lat="43.59691" lon="6.22602">
        <ele>465.9</ele>
        <time>2015-03-13T10:16:58Z</time>
      </trkpt>
      <trkpt lat="43.59688" lon="6.22605">
        <ele>465.9</ele>
        <time>2015-03-13T10:16:59Z</time>
      </trkpt>
      <trkpt lat="43.59686" lon="6.22607">
        <ele>465.9</ele>
        <time>2015-03-13T10:17:00Z</time>
      </trkpt>
      <trkpt lat="43.59684" lon="6.22609">
        <ele>465.9</ele>
        <time>2015-03-13T10:17:01Z</time>
      </trkpt>
      <trkpt lat="43.59683" lon="6.22612">
        <ele>465.9</ele>
        <time>2015-03-13T10:17:02Z</time>
      </trkpt>
      <trkpt lat="43.59681" lon="6.22615">
        <ele>465.9</ele>
        <time>2015-03-13T10:17:03Z</time>
      </trkpt>
      <trkpt lat="43.5968" lon="6.22616">
        <ele>466.38</ele>
        <time>2015-03-13T10:17:04Z</time>
      </trkpt>
      <trkpt lat="43.59656" lon="6.22642">
        <ele>467.34</ele>
        <time>2015-03-13T10:17:16Z</time>
      </trkpt>
      <trkpt lat="43.59646" lon="6.22647">
        <ele>467.34</ele>
        <time>2015-03-13T10:17:22Z</time>
      </trkpt>
      <trkpt lat="43.59644" lon="6.22648">
        <ele>467.34</ele>
        <time>2015-03-13T10:17:23Z</time>
      </trkpt>
      <trkpt lat="43.59629" lon="6.2266">
        <ele>467.34</ele>
        <time>2015-03-13T10:17:29Z</time>
      </trkpt>
      <trkpt lat="43.59626" lon="6.22661">
        <ele>467.34</ele>
        <time>2015-03-13T10:17:30Z</time>
      </trkpt>
      <trkpt lat="43.59607" lon="6.22669">
        <ele>467.34</ele>
        <time>2015-03-13T10:17:35Z</time>
      </trkpt>
      <trkpt lat="43.59604" lon="6.22669">
        <ele>467.34</ele>
        <time>2015-03-13T10:17:36Z</time>
      </trkpt>
      <trkpt lat="43.59601" lon="6.22669">
        <ele>467.34</ele>
        <time>2015-03-13T10:17:37Z</time>
      </trkpt>
      <trkpt lat="43.59598" lon="6.2267">
        <ele>467.34</ele>
        <time>2015-03-13T10:17:38Z</time>
      </trkpt>
      <trkpt lat="43.59595" lon="6.22672">
        <ele>467.34</ele>
        <time>2015-03-13T10:17:39Z</time>
      </trkpt>
      <trkpt lat="43.5959" lon="6.22672">
        <ele>466.86</ele>
        <time>2015-03-13T10:17:41Z</time>
      </trkpt>
      <trkpt lat="43.59588" lon="6.22672">
        <ele>466.86</ele>
        <time>2015-03-13T10:17:42Z</time>
      </trkpt>
      <trkpt lat="43.59584" lon="6.2267">
        <ele>466.38</ele>
        <time>2015-03-13T10:17:44Z</time>
      </trkpt>
      <trkpt lat="43.59582" lon="6.22669">
        <ele>466.38</ele>
        <time>2015-03-13T10:17:45Z</time>
      </trkpt>
      <trkpt lat="43.5958" lon="6.2267">
        <ele>466.38</ele>
        <time>2015-03-13T10:17:46Z</time>
      </trkpt>
      <trkpt lat="43.59578" lon="6.2267">
        <ele>466.38</ele>
        <time>2015-03-13T10:17:47Z</time>
      </trkpt>
      <trkpt lat="43.59575" lon="6.2267">
        <ele>466.86</ele>
        <time>2015-03-13T10:17:49Z</time>
      </trkpt>
      <trkpt lat="43.59573" lon="6.2267">
        <ele>466.38</ele>
        <time>2015-03-13T10:17:50Z</time>
      </trkpt>
      <trkpt lat="43.5957" lon="6.22671">
        <ele>465.42</ele>
        <time>2015-03-13T10:17:51Z</time>
      </trkpt>
      <trkpt lat="43.59566" lon="6.2267">
        <ele>465.9</ele>
        <time>2015-03-13T10:17:53Z</time>
      </trkpt>
      <trkpt lat="43.5956" lon="6.22666">
        <ele>465.9</ele>
        <time>2015-03-13T10:17:56Z</time>
      </trkpt>
      <trkpt lat="43.59557" lon="6.22665">
        <ele>465.9</ele>
        <time>2015-03-13T10:17:57Z</time>
      </trkpt>
      <trkpt lat="43.59556" lon="6.22666">
        <ele>465.9</ele>
        <time>2015-03-13T10:17:58Z</time>
      </trkpt>
      <trkpt lat="43.59554" lon="6.22666">
        <ele>465.9</ele>
        <time>2015-03-13T10:17:59Z</time>
      </trkpt>
      <trkpt lat="43.59552" lon="6.22666">
        <ele>465.9</ele>
        <time>2015-03-13T10:18:00Z</time>
      </trkpt>
      <trkpt lat="43.59549" lon="6.22665">
        <ele>465.9</ele>
        <time>2015-03-13T10:18:01Z</time>
      </trkpt>
      <trkpt lat="43.59546" lon="6.22665">
        <ele>465.9</ele>
        <time>2015-03-13T10:18:02Z</time>
      </trkpt>
      <trkpt lat="43.59544" lon="6.22665">
        <ele>465.9</ele>
        <time>2015-03-13T10:18:03Z</time>
      </trkpt>
      <trkpt lat="43.59542" lon="6.22666">
        <ele>466.38</ele>
        <time>2015-03-13T10:18:04Z</time>
      </trkpt>
      <trkpt lat="43.59539" lon="6.22667">
        <ele>465.9</ele>
        <time>2015-03-13T10:18:05Z</time>
      </trkpt>
      <trkpt lat="43.59537" lon="6.22666">
        <ele>465.9</ele>
        <time>2015-03-13T10:18:06Z</time>
      </trkpt>
      <trkpt lat="43.59533" lon="6.22667">
        <ele>465.9</ele>
        <time>2015-03-13T10:18:07Z</time>
      </trkpt>
      <trkpt lat="43.59525" lon="6.22667">
        <ele>465.42</ele>
        <time>2015-03-13T10:18:10Z</time>
      </trkpt>
      <trkpt lat="43.59523" lon="6.22667">
        <ele>465.42</ele>
        <time>2015-03-13T10:18:11Z</time>
      </trkpt>
      <trkpt lat="43.59522" lon="6.22666">
        <ele>465.42</ele>
        <time>2015-03-13T10:18:12Z</time>
      </trkpt>
      <trkpt lat="43.59519" lon="6.22668">
        <ele>465.42</ele>
        <time>2015-03-13T10:18:13Z</time>
      </trkpt>
      <trkpt lat="43.59517" lon="6.22668">
        <ele>464.93</ele>
        <time>2015-03-13T10:18:14Z</time>
      </trkpt>
      <trkpt lat="43.59515" lon="6.2267">
        <ele>464.93</ele>
        <time>2015-03-13T10:18:15Z</time>
      </trkpt>
      <trkpt lat="43.59512" lon="6.22673">
        <ele>464.93</ele>
        <time>2015-03-13T10:18:16Z</time>
      </trkpt>
      <trkpt lat="43.59508" lon="6.22675">
        <ele>464.93</ele>
        <time>2015-03-13T10:18:17Z</time>
      </trkpt>
      <trkpt lat="43.59506" lon="6.22676">
        <ele>464.93</ele>
        <time>2015-03-13T10:18:18Z</time>
      </trkpt>
      <trkpt lat="43.59504" lon="6.22676">
        <ele>464.45</ele>
        <time>2015-03-13T10:18:19Z</time>
      </trkpt>
      <trkpt lat="43.59497" lon="6.22678">
        <ele>463.97</ele>
        <time>2015-03-13T10:18:23Z</time>
      </trkpt>
      <trkpt lat="43.59493" lon="6.22682">
        <ele>463.97</ele>
        <time>2015-03-13T10:18:24Z</time>
      </trkpt>
      <trkpt lat="43.5949" lon="6.22684">
        <ele>463.97</ele>
        <time>2015-03-13T10:18:25Z</time>
      </trkpt>
      <trkpt lat="43.59484" lon="6.22688">
        <ele>463.49</ele>
        <time>2015-03-13T10:18:29Z</time>
      </trkpt>
      <trkpt lat="43.59475" lon="6.22693">
        <ele>463.01</ele>
        <time>2015-03-13T10:18:33Z</time>
      </trkpt>
      <trkpt lat="43.59467" lon="6.22694">
        <ele>463.01</ele>
        <time>2015-03-13T10:18:38Z</time>
      </trkpt>
      <trkpt lat="43.59449" lon="6.22698">
        <ele>461.57</ele>
        <time>2015-03-13T10:18:52Z</time>
      </trkpt>
      <trkpt lat="43.59442" lon="6.22699">
        <ele>461.09</ele>
        <time>2015-03-13T10:18:57Z</time>
      </trkpt>
      <trkpt lat="43.59428" lon="6.22697">
        <ele>459.65</ele>
        <time>2015-03-13T10:19:09Z</time>
      </trkpt>
      <trkpt lat="43.59412" lon="6.22695">
        <ele>458.69</ele>
        <time>2015-03-13T10:19:21Z</time>
      </trkpt>
      <trkpt lat="43.59405" lon="6.22694">
        <ele>457.72</ele>
        <time>2015-03-13T10:19:25Z</time>
      </trkpt>
      <trkpt lat="43.59399" lon="6.22693">
        <ele>457.24</ele>
        <time>2015-03-13T10:19:29Z</time>
      </trkpt>
      <trkpt lat="43.59387" lon="6.22697">
        <ele>456.28</ele>
        <time>2015-03-13T10:19:39Z</time>
      </trkpt>
      <trkpt lat="43.59382" lon="6.22698">
        <ele>456.28</ele>
        <time>2015-03-13T10:19:43Z</time>
      </trkpt>
      <trkpt lat="43.59378" lon="6.22699">
        <ele>455.32</ele>
        <time>2015-03-13T10:19:46Z</time>
      </trkpt>
      <trkpt lat="43.59357" lon="6.22706">
        <ele>454.36</ele>
        <time>2015-03-13T10:19:58Z</time>
      </trkpt>
      <trkpt lat="43.59332" lon="6.22707">
        <ele>453.4</ele>
        <time>2015-03-13T10:20:06Z</time>
      </trkpt>
      <trkpt lat="43.59317" lon="6.22708">
        <ele>453.4</ele>
        <time>2015-03-13T10:20:12Z</time>
      </trkpt>
      <trkpt lat="43.59288" lon="6.22708">
        <ele>452.44</ele>
        <time>2015-03-13T10:20:23Z</time>
      </trkpt>
      <trkpt lat="43.59277" lon="6.22706">
        <ele>451.96</ele>
        <time>2015-03-13T10:20:32Z</time>
      </trkpt>
      <trkpt lat="43.59264" lon="6.22701">
        <ele>452.44</ele>
        <time>2015-03-13T10:20:41Z</time>
      </trkpt>
      <trkpt lat="43.59259" lon="6.22697">
        <ele>452.44</ele>
        <time>2015-03-13T10:20:44Z</time>
      </trkpt>
      <trkpt lat="43.59256" lon="6.22695">
        <ele>452.44</ele>
        <time>2015-03-13T10:20:46Z</time>
      </trkpt>
      <trkpt lat="43.59244" lon="6.22697">
        <ele>452.44</ele>
        <time>2015-03-13T10:20:51Z</time>
      </trkpt>
      <trkpt lat="43.59233" lon="6.22697">
        <ele>452.44</ele>
        <time>2015-03-13T10:20:55Z</time>
      </trkpt>
      <trkpt lat="43.59214" lon="6.22694">
        <ele>452.44</ele>
        <time>2015-03-13T10:21:03Z</time>
      </trkpt>
      <trkpt lat="43.59208" lon="6.22693">
        <ele>452.44</ele>
        <time>2015-03-13T10:21:14Z</time>
      </trkpt>
      <trkpt lat="43.59207" lon="6.2269">
        <ele>452.44</ele>
        <time>2015-03-13T10:21:24Z</time>
      </trkpt>
      <trkpt lat="43.59203" lon="6.22687">
        <ele>451.96</ele>
        <time>2015-03-13T10:21:28Z</time>
      </trkpt>
      <trkpt lat="43.59194" lon="6.22682">
        <ele>451.96</ele>
        <time>2015-03-13T10:21:37Z</time>
      </trkpt>
      <trkpt lat="43.59191" lon="6.22677">
        <ele>451.48</ele>
        <time>2015-03-13T10:21:42Z</time>
      </trkpt>
      <trkpt lat="43.59181" lon="6.22664">
        <ele>451</ele>
        <time>2015-03-13T10:21:55Z</time>
      </trkpt>
      <trkpt lat="43.59177" lon="6.22657">
        <ele>450.03</ele>
        <time>2015-03-13T10:22:06Z</time>
      </trkpt>
      <trkpt lat="43.59169" lon="6.22636">
        <ele>447.63</ele>
        <time>2015-03-13T10:22:19Z</time>
      </trkpt>
      <trkpt lat="43.59167" lon="6.22619">
        <ele>446.19</ele>
        <time>2015-03-13T10:22:27Z</time>
      </trkpt>
      <trkpt lat="43.5918" lon="6.22607">
        <ele>443.79</ele>
        <time>2015-03-13T10:22:41Z</time>
      </trkpt>
      <trkpt lat="43.59182" lon="6.22606">
        <ele>443.31</ele>
        <time>2015-03-13T10:22:43Z</time>
      </trkpt>
      <trkpt lat="43.59187" lon="6.22604">
        <ele>442.82</ele>
        <time>2015-03-13T10:22:47Z</time>
      </trkpt>
      <trkpt lat="43.59199" lon="6.22601">
        <ele>440.9</ele>
        <time>2015-03-13T10:22:56Z</time>
      </trkpt>
      <trkpt lat="43.59217" lon="6.22599">
        <ele>438.5</ele>
        <time>2015-03-13T10:23:10Z</time>
      </trkpt>
      <trkpt lat="43.59227" lon="6.22599">
        <ele>437.54</ele>
        <time>2015-03-13T10:23:18Z</time>
      </trkpt>
      <trkpt lat="43.59232" lon="6.22599">
        <ele>437.06</ele>
        <time>2015-03-13T10:23:22Z</time>
      </trkpt>
      <trkpt lat="43.59243" lon="6.22598">
        <ele>436.1</ele>
        <time>2015-03-13T10:23:29Z</time>
      </trkpt>
      <trkpt lat="43.59265" lon="6.22596">
        <ele>434.17</ele>
        <time>2015-03-13T10:23:41Z</time>
      </trkpt>
      <trkpt lat="43.59277" lon="6.22592">
        <ele>433.21</ele>
        <time>2015-03-13T10:23:47Z</time>
      </trkpt>
      <trkpt lat="43.59282" lon="6.22587">
        <ele>433.21</ele>
        <time>2015-03-13T10:23:51Z</time>
      </trkpt>
      <trkpt lat="43.59301" lon="6.22579">
        <ele>430.81</ele>
        <time>2015-03-13T10:24:06Z</time>
      </trkpt>
      <trkpt lat="43.59304" lon="6.22578">
        <ele>430.33</ele>
        <time>2015-03-13T10:24:08Z</time>
      </trkpt>
      <trkpt lat="43.59305" lon="6.22573">
        <ele>429.37</ele>
        <time>2015-03-13T10:24:11Z</time>
      </trkpt>
      <trkpt lat="43.59303" lon="6.22569">
        <ele>428.4</ele>
        <time>2015-03-13T10:24:15Z</time>
      </trkpt>
      <trkpt lat="43.59288" lon="6.22558">
        <ele>426.48</ele>
        <time>2015-03-13T10:24:30Z</time>
      </trkpt>
      <trkpt lat="43.59285" lon="6.22559">
        <ele>426</ele>
        <time>2015-03-13T10:24:32Z</time>
      </trkpt>
      <trkpt lat="43.59271" lon="6.22558">
        <ele>425.04</ele>
        <time>2015-03-13T10:24:41Z</time>
      </trkpt>
      <trkpt lat="43.59265" lon="6.22559">
        <ele>424.56</ele>
        <time>2015-03-13T10:24:46Z</time>
      </trkpt>
      <trkpt lat="43.59249" lon="6.22551">
        <ele>422.64</ele>
        <time>2015-03-13T10:24:57Z</time>
      </trkpt>
      <trkpt lat="43.59245" lon="6.22545">
        <ele>421.68</ele>
        <time>2015-03-13T10:25:01Z</time>
      </trkpt>
      <trkpt lat="43.59231" lon="6.22533">
        <ele>420.71</ele>
        <time>2015-03-13T10:25:11Z</time>
      </trkpt>
      <trkpt lat="43.59226" lon="6.22529">
        <ele>420.23</ele>
        <time>2015-03-13T10:25:15Z</time>
      </trkpt>
      <trkpt lat="43.59215" lon="6.22522">
        <ele>419.27</ele>
        <time>2015-03-13T10:25:24Z</time>
      </trkpt>
      <trkpt lat="43.59204" lon="6.2252">
        <ele>418.79</ele>
        <time>2015-03-13T10:25:31Z</time>
      </trkpt>
      <trkpt lat="43.59193" lon="6.22517">
        <ele>417.83</ele>
        <time>2015-03-13T10:25:40Z</time>
      </trkpt>
      <trkpt lat="43.5919" lon="6.22516">
        <ele>417.35</ele>
        <time>2015-03-13T10:25:42Z</time>
      </trkpt>
      <trkpt lat="43.59186" lon="6.22515">
        <ele>417.35</ele>
        <time>2015-03-13T10:25:45Z</time>
      </trkpt>
      <trkpt lat="43.59177" lon="6.22511">
        <ele>416.39</ele>
        <time>2015-03-13T10:25:52Z</time>
      </trkpt>
      <trkpt lat="43.59159" lon="6.22507">
        <ele>415.43</ele>
        <time>2015-03-13T10:26:03Z</time>
      </trkpt>
      <trkpt lat="43.59155" lon="6.22506">
        <ele>414.95</ele>
        <time>2015-03-13T10:26:06Z</time>
      </trkpt>
      <trkpt lat="43.59136" lon="6.22498">
        <ele>414.95</ele>
        <time>2015-03-13T10:26:21Z</time>
      </trkpt>
      <trkpt lat="43.59121" lon="6.2249">
        <ele>414.47</ele>
        <time>2015-03-13T10:26:33Z</time>
      </trkpt>
      <trkpt lat="43.59097" lon="6.2249">
        <ele>413.5</ele>
        <time>2015-03-13T10:26:47Z</time>
      </trkpt>
      <trkpt lat="43.5907" lon="6.22516">
        <ele>412.06</ele>
        <time>2015-03-13T10:26:57Z</time>
      </trkpt>
      <trkpt lat="43.59061" lon="6.22524">
        <ele>411.58</ele>
        <time>2015-03-13T10:26:59Z</time>
      </trkpt>
      <trkpt lat="43.5902" lon="6.22552">
        <ele>410.14</ele>
        <time>2015-03-13T10:27:07Z</time>
      </trkpt>
      <trkpt lat="43.59012" lon="6.22553">
        <ele>410.62</ele>
        <time>2015-03-13T10:27:09Z</time>
      </trkpt>
      <trkpt lat="43.59007" lon="6.22556">
        <ele>410.62</ele>
        <time>2015-03-13T10:27:10Z</time>
      </trkpt>
      <trkpt lat="43.58983" lon="6.22564">
        <ele>410.14</ele>
        <time>2015-03-13T10:27:16Z</time>
      </trkpt>
      <trkpt lat="43.58973" lon="6.22569">
        <ele>409.66</ele>
        <time>2015-03-13T10:27:26Z</time>
      </trkpt>
      <trkpt lat="43.58969" lon="6.22574">
        <ele>410.14</ele>
        <time>2015-03-13T10:27:31Z</time>
      </trkpt>
      <trkpt lat="43.58967" lon="6.22575">
        <ele>410.14</ele>
        <time>2015-03-13T10:27:32Z</time>
      </trkpt>
      <trkpt lat="43.58964" lon="6.22577">
        <ele>410.62</ele>
        <time>2015-03-13T10:27:33Z</time>
      </trkpt>
      <trkpt lat="43.58962" lon="6.22579">
        <ele>411.1</ele>
        <time>2015-03-13T10:27:34Z</time>
      </trkpt>
      <trkpt lat="43.58955" lon="6.22587">
        <ele>412.06</ele>
        <time>2015-03-13T10:27:37Z</time>
      </trkpt>
      <trkpt lat="43.58937" lon="6.22614">
        <ele>413.98</ele>
        <time>2015-03-13T10:27:44Z</time>
      </trkpt>
      <trkpt lat="43.58935" lon="6.22619">
        <ele>413.5</ele>
        <time>2015-03-13T10:27:45Z</time>
      </trkpt>
      <trkpt lat="43.58933" lon="6.22625">
        <ele>414.47</ele>
        <time>2015-03-13T10:27:46Z</time>
      </trkpt>
      <trkpt lat="43.5893" lon="6.2263">
        <ele>414.47</ele>
        <time>2015-03-13T10:27:47Z</time>
      </trkpt>
      <trkpt lat="43.58925" lon="6.22634">
        <ele>414.47</ele>
        <time>2015-03-13T10:27:48Z</time>
      </trkpt>
      <trkpt lat="43.5892" lon="6.22637">
        <ele>414.95</ele>
        <time>2015-03-13T10:27:49Z</time>
      </trkpt>
      <trkpt lat="43.58915" lon="6.22638">
        <ele>417.35</ele>
        <time>2015-03-13T10:27:50Z</time>
      </trkpt>
      <trkpt lat="43.58911" lon="6.22638">
        <ele>416.39</ele>
        <time>2015-03-13T10:27:51Z</time>
      </trkpt>
      <trkpt lat="43.58906" lon="6.22638">
        <ele>416.39</ele>
        <time>2015-03-13T10:27:52Z</time>
      </trkpt>
      <trkpt lat="43.58886" lon="6.22635">
        <ele>417.35</ele>
        <time>2015-03-13T10:27:56Z</time>
      </trkpt>
      <trkpt lat="43.58871" lon="6.22622">
        <ele>417.83</ele>
        <time>2015-03-13T10:27:59Z</time>
      </trkpt>
      <trkpt lat="43.58866" lon="6.22618">
        <ele>417.83</ele>
        <time>2015-03-13T10:28:00Z</time>
      </trkpt>
      <trkpt lat="43.58861" lon="6.22613">
        <ele>418.31</ele>
        <time>2015-03-13T10:28:01Z</time>
      </trkpt>
      <trkpt lat="43.58852" lon="6.22604">
        <ele>419.27</ele>
        <time>2015-03-13T10:28:03Z</time>
      </trkpt>
      <trkpt lat="43.58848" lon="6.22602">
        <ele>419.27</ele>
        <time>2015-03-13T10:28:04Z</time>
      </trkpt>
      <trkpt lat="43.58843" lon="6.226">
        <ele>419.75</ele>
        <time>2015-03-13T10:28:05Z</time>
      </trkpt>
      <trkpt lat="43.58838" lon="6.22599">
        <ele>419.75</ele>
        <time>2015-03-13T10:28:06Z</time>
      </trkpt>
      <trkpt lat="43.58834" lon="6.22598">
        <ele>419.27</ele>
        <time>2015-03-13T10:28:07Z</time>
      </trkpt>
      <trkpt lat="43.58828" lon="6.22597">
        <ele>419.75</ele>
        <time>2015-03-13T10:28:08Z</time>
      </trkpt>
      <trkpt lat="43.58817" lon="6.22598">
        <ele>419.27</ele>
        <time>2015-03-13T10:28:10Z</time>
      </trkpt>
      <trkpt lat="43.58805" lon="6.22599">
        <ele>419.75</ele>
        <time>2015-03-13T10:28:12Z</time>
      </trkpt>
      <trkpt lat="43.58782" lon="6.22607">
        <ele>418.79</ele>
        <time>2015-03-13T10:28:16Z</time>
      </trkpt>
      <trkpt lat="43.58777" lon="6.22609">
        <ele>418.79</ele>
        <time>2015-03-13T10:28:17Z</time>
      </trkpt>
      <trkpt lat="43.58772" lon="6.22612">
        <ele>418.79</ele>
        <time>2015-03-13T10:28:18Z</time>
      </trkpt>
      <trkpt lat="43.58766" lon="6.22614">
        <ele>418.79</ele>
        <time>2015-03-13T10:28:19Z</time>
      </trkpt>
      <trkpt lat="43.58761" lon="6.22616">
        <ele>418.79</ele>
        <time>2015-03-13T10:28:20Z</time>
      </trkpt>
      <trkpt lat="43.58755" lon="6.22618">
        <ele>418.79</ele>
        <time>2015-03-13T10:28:21Z</time>
      </trkpt>
      <trkpt lat="43.5875" lon="6.22619">
        <ele>418.31</ele>
        <time>2015-03-13T10:28:22Z</time>
      </trkpt>
      <trkpt lat="43.58732" lon="6.22625">
        <ele>418.31</ele>
        <time>2015-03-13T10:28:26Z</time>
      </trkpt>
      <trkpt lat="43.58723" lon="6.22628">
        <ele>417.35</ele>
        <time>2015-03-13T10:28:28Z</time>
      </trkpt>
      <trkpt lat="43.58686" lon="6.22638">
        <ele>418.31</ele>
        <time>2015-03-13T10:28:36Z</time>
      </trkpt>
      <trkpt lat="43.58681" lon="6.22639">
        <ele>418.79</ele>
        <time>2015-03-13T10:28:38Z</time>
      </trkpt>
      <trkpt lat="43.58679" lon="6.22639">
        <ele>418.79</ele>
        <time>2015-03-13T10:28:39Z</time>
      </trkpt>
      <trkpt lat="43.58677" lon="6.22639">
        <ele>418.79</ele>
        <time>2015-03-13T10:28:40Z</time>
      </trkpt>
      <trkpt lat="43.58655" lon="6.22641">
        <ele>418.31</ele>
        <time>2015-03-13T10:28:56Z</time>
      </trkpt>
      <trkpt lat="43.58652" lon="6.22642">
        <ele>418.31</ele>
        <time>2015-03-13T10:28:58Z</time>
      </trkpt>
      <trkpt lat="43.5863" lon="6.22663">
        <ele>417.83</ele>
        <time>2015-03-13T10:29:10Z</time>
      </trkpt>
      <trkpt lat="43.58626" lon="6.22665">
        <ele>417.83</ele>
        <time>2015-03-13T10:29:11Z</time>
      </trkpt>
      <trkpt lat="43.58622" lon="6.22668">
        <ele>417.35</ele>
        <time>2015-03-13T10:29:12Z</time>
      </trkpt>
      <trkpt lat="43.58579" lon="6.22696">
        <ele>416.87</ele>
        <time>2015-03-13T10:29:19Z</time>
      </trkpt>
      <trkpt lat="43.58518" lon="6.22727">
        <ele>416.39</ele>
        <time>2015-03-13T10:29:28Z</time>
      </trkpt>
      <trkpt lat="43.5851" lon="6.22732">
        <ele>416.39</ele>
        <time>2015-03-13T10:29:29Z</time>
      </trkpt>
      <trkpt lat="43.58504" lon="6.22736">
        <ele>416.39</ele>
        <time>2015-03-13T10:29:30Z</time>
      </trkpt>
      <trkpt lat="43.5848" lon="6.22743">
        <ele>416.39</ele>
        <time>2015-03-13T10:29:38Z</time>
      </trkpt>
      <trkpt lat="43.58479" lon="6.22743">
        <ele>416.39</ele>
        <time>2015-03-13T10:29:39Z</time>
      </trkpt>
      <trkpt lat="43.58478" lon="6.22742">
        <ele>416.39</ele>
        <time>2015-03-13T10:29:40Z</time>
      </trkpt>
      <trkpt lat="43.58476" lon="6.22743">
        <ele>416.39</ele>
        <time>2015-03-13T10:29:41Z</time>
      </trkpt>
      <trkpt lat="43.58473" lon="6.22742">
        <ele>416.39</ele>
        <time>2015-03-13T10:29:43Z</time>
      </trkpt>
      <trkpt lat="43.58469" lon="6.22743">
        <ele>416.39</ele>
        <time>2015-03-13T10:29:46Z</time>
      </trkpt>
      <trkpt lat="43.58467" lon="6.22743">
        <ele>416.39</ele>
        <time>2015-03-13T10:29:47Z</time>
      </trkpt>
      <trkpt lat="43.58466" lon="6.22743">
        <ele>416.39</ele>
        <time>2015-03-13T10:29:48Z</time>
      </trkpt>
      <trkpt lat="43.58464" lon="6.22743">
        <ele>416.39</ele>
        <time>2015-03-13T10:29:49Z</time>
      </trkpt>
      <trkpt lat="43.58463" lon="6.22743">
        <ele>416.39</ele>
        <time>2015-03-13T10:29:50Z</time>
      </trkpt>
      <trkpt lat="43.58462" lon="6.22743">
        <ele>417.35</ele>
        <time>2015-03-13T10:29:51Z</time>
      </trkpt>
      <trkpt lat="43.5846" lon="6.22743">
        <ele>416.39</ele>
        <time>2015-03-13T10:29:52Z</time>
      </trkpt>
      <trkpt lat="43.58458" lon="6.22743">
        <ele>416.39</ele>
        <time>2015-03-13T10:29:53Z</time>
      </trkpt>
      <trkpt lat="43.58457" lon="6.22743">
        <ele>416.39</ele>
        <time>2015-03-13T10:29:54Z</time>
      </trkpt>
      <trkpt lat="43.58455" lon="6.22743">
        <ele>416.39</ele>
        <time>2015-03-13T10:29:55Z</time>
      </trkpt>
      <trkpt lat="43.58454" lon="6.22742">
        <ele>416.39</ele>
        <time>2015-03-13T10:29:56Z</time>
      </trkpt>
      <trkpt lat="43.58452" lon="6.22742">
        <ele>416.39</ele>
        <time>2015-03-13T10:29:57Z</time>
      </trkpt>
      <trkpt lat="43.5845" lon="6.22742">
        <ele>416.39</ele>
        <time>2015-03-13T10:29:58Z</time>
      </trkpt>
      <trkpt lat="43.58449" lon="6.22741">
        <ele>415.91</ele>
        <time>2015-03-13T10:29:59Z</time>
      </trkpt>
      <trkpt lat="43.58448" lon="6.22741">
        <ele>416.39</ele>
        <time>2015-03-13T10:30:00Z</time>
      </trkpt>
      <trkpt lat="43.58446" lon="6.22741">
        <ele>415.91</ele>
        <time>2015-03-13T10:30:01Z</time>
      </trkpt>
      <trkpt lat="43.58425" lon="6.22744">
        <ele>414.95</ele>
        <time>2015-03-13T10:30:14Z</time>
      </trkpt>
      <trkpt lat="43.5841" lon="6.22746">
        <ele>414.47</ele>
        <time>2015-03-13T10:30:25Z</time>
      </trkpt>
      <trkpt lat="43.58408" lon="6.22746">
        <ele>414.47</ele>
        <time>2015-03-13T10:30:26Z</time>
      </trkpt>
      <trkpt lat="43.584" lon="6.22751">
        <ele>413.5</ele>
        <time>2015-03-13T10:30:39Z</time>
      </trkpt>
      <trkpt lat="43.58399" lon="6.2275">
        <ele>413.02</ele>
        <time>2015-03-13T10:30:40Z</time>
      </trkpt>
      <trkpt lat="43.58395" lon="6.22751">
        <ele>412.54</ele>
        <time>2015-03-13T10:30:43Z</time>
      </trkpt>
      <trkpt lat="43.58393" lon="6.2275">
        <ele>412.06</ele>
        <time>2015-03-13T10:30:44Z</time>
      </trkpt>
      <trkpt lat="43.58392" lon="6.22751">
        <ele>412.06</ele>
        <time>2015-03-13T10:30:45Z</time>
      </trkpt>
      <trkpt lat="43.5839" lon="6.22751">
        <ele>411.58</ele>
        <time>2015-03-13T10:30:46Z</time>
      </trkpt>
      <trkpt lat="43.58387" lon="6.22751">
        <ele>411.58</ele>
        <time>2015-03-13T10:30:47Z</time>
      </trkpt>
      <trkpt lat="43.58372" lon="6.22753">
        <ele>408.7</ele>
        <time>2015-03-13T10:30:57Z</time>
      </trkpt>
      <trkpt lat="43.5837" lon="6.22753">
        <ele>408.22</ele>
        <time>2015-03-13T10:30:58Z</time>
      </trkpt>
      <trkpt lat="43.58368" lon="6.22753">
        <ele>407.74</ele>
        <time>2015-03-13T10:30:59Z</time>
      </trkpt>
      <trkpt lat="43.58367" lon="6.22754">
        <ele>407.74</ele>
        <time>2015-03-13T10:31:00Z</time>
      </trkpt>
      <trkpt lat="43.58365" lon="6.22753">
        <ele>407.26</ele>
        <time>2015-03-13T10:31:01Z</time>
      </trkpt>
      <trkpt lat="43.58362" lon="6.22753">
        <ele>406.77</ele>
        <time>2015-03-13T10:31:03Z</time>
      </trkpt>
      <trkpt lat="43.58361" lon="6.22754">
        <ele>406.29</ele>
        <time>2015-03-13T10:31:04Z</time>
      </trkpt>
      <trkpt lat="43.58355" lon="6.22756">
        <ele>404.85</ele>
        <time>2015-03-13T10:31:09Z</time>
      </trkpt>
      <trkpt lat="43.58354" lon="6.22755">
        <ele>404.37</ele>
        <time>2015-03-13T10:31:10Z</time>
      </trkpt>
      <trkpt lat="43.58353" lon="6.22755">
        <ele>404.37</ele>
        <time>2015-03-13T10:31:11Z</time>
      </trkpt>
      <trkpt lat="43.58352" lon="6.22755">
        <ele>403.89</ele>
        <time>2015-03-13T10:31:12Z</time>
      </trkpt>
      <trkpt lat="43.5835" lon="6.22756">
        <ele>403.41</ele>
        <time>2015-03-13T10:31:13Z</time>
      </trkpt>
      <trkpt lat="43.58349" lon="6.22757">
        <ele>403.41</ele>
        <time>2015-03-13T10:31:14Z</time>
      </trkpt>
      <trkpt lat="43.58348" lon="6.22759">
        <ele>402.93</ele>
        <time>2015-03-13T10:31:16Z</time>
      </trkpt>
      <trkpt lat="43.58347" lon="6.22761">
        <ele>402.93</ele>
        <time>2015-03-13T10:31:17Z</time>
      </trkpt>
      <trkpt lat="43.58346" lon="6.22763">
        <ele>402.93</ele>
        <time>2015-03-13T10:31:18Z</time>
      </trkpt>
      <trkpt lat="43.58346" lon="6.22765">
        <ele>402.45</ele>
        <time>2015-03-13T10:31:19Z</time>
      </trkpt>
      <trkpt lat="43.58346" lon="6.22768">
        <ele>402.45</ele>
        <time>2015-03-13T10:31:20Z</time>
      </trkpt>
      <trkpt lat="43.58345" lon="6.22769">
        <ele>402.45</ele>
        <time>2015-03-13T10:31:21Z</time>
      </trkpt>
      <trkpt lat="43.58343" lon="6.22771">
        <ele>402.45</ele>
        <time>2015-03-13T10:31:22Z</time>
      </trkpt>
      <trkpt lat="43.58341" lon="6.22774">
        <ele>401.97</ele>
        <time>2015-03-13T10:31:24Z</time>
      </trkpt>
      <trkpt lat="43.5834" lon="6.22776">
        <ele>401.97</ele>
        <time>2015-03-13T10:31:25Z</time>
      </trkpt>
      <trkpt lat="43.58339" lon="6.22778">
        <ele>401.97</ele>
        <time>2015-03-13T10:31:26Z</time>
      </trkpt>
      <trkpt lat="43.58335" lon="6.22788">
        <ele>401.01</ele>
        <time>2015-03-13T10:31:32Z</time>
      </trkpt>
      <trkpt lat="43.58332" lon="6.22792">
        <ele>400.05</ele>
        <time>2015-03-13T10:31:36Z</time>
      </trkpt>
      <trkpt lat="43.58331" lon="6.22798">
        <ele>399.57</ele>
        <time>2015-03-13T10:31:39Z</time>
      </trkpt>
      <trkpt lat="43.58316" lon="6.22814">
        <ele>396.2</ele>
        <time>2015-03-13T10:31:52Z</time>
      </trkpt>
      <trkpt lat="43.58311" lon="6.22818">
        <ele>395.24</ele>
        <time>2015-03-13T10:31:56Z</time>
      </trkpt>
      <trkpt lat="43.58307" lon="6.22822">
        <ele>394.28</ele>
        <time>2015-03-13T10:32:00Z</time>
      </trkpt>
      <trkpt lat="43.58303" lon="6.22825">
        <ele>393.32</ele>
        <time>2015-03-13T10:32:05Z</time>
      </trkpt>
      <trkpt lat="43.58288" lon="6.22841">
        <ele>389.47</ele>
        <time>2015-03-13T10:32:16Z</time>
      </trkpt>
      <trkpt lat="43.58279" lon="6.22852">
        <ele>387.55</ele>
        <time>2015-03-13T10:32:23Z</time>
      </trkpt>
      <trkpt lat="43.58278" lon="6.22855">
        <ele>387.07</ele>
        <time>2015-03-13T10:32:25Z</time>
      </trkpt>
      <trkpt lat="43.5827" lon="6.22867">
        <ele>386.11</ele>
        <time>2015-03-13T10:32:30Z</time>
      </trkpt>
      <trkpt lat="43.58257" lon="6.22885">
        <ele>384.18</ele>
        <time>2015-03-13T10:32:38Z</time>
      </trkpt>
      <trkpt lat="43.58252" lon="6.22887">
        <ele>383.22</ele>
        <time>2015-03-13T10:32:41Z</time>
      </trkpt>
      <trkpt lat="43.58246" lon="6.22894">
        <ele>379.86</ele>
        <time>2015-03-13T10:32:52Z</time>
      </trkpt>
      <trkpt lat="43.58243" lon="6.22897">
        <ele>379.38</ele>
        <time>2015-03-13T10:32:54Z</time>
      </trkpt>
      <trkpt lat="43.58237" lon="6.22908">
        <ele>377.45</ele>
        <time>2015-03-13T10:33:01Z</time>
      </trkpt>
      <trkpt lat="43.58234" lon="6.22912">
        <ele>376.97</ele>
        <time>2015-03-13T10:33:04Z</time>
      </trkpt>
      <trkpt lat="43.58229" lon="6.22921">
        <ele>375.53</ele>
        <time>2015-03-13T10:33:09Z</time>
      </trkpt>
      <trkpt lat="43.58228" lon="6.22926">
        <ele>375.05</ele>
        <time>2015-03-13T10:33:12Z</time>
      </trkpt>
      <trkpt lat="43.58226" lon="6.22935">
        <ele>373.61</ele>
        <time>2015-03-13T10:33:16Z</time>
      </trkpt>
      <trkpt lat="43.58222" lon="6.22948">
        <ele>370.73</ele>
        <time>2015-03-13T10:33:24Z</time>
      </trkpt>
      <trkpt lat="43.58218" lon="6.22959">
        <ele>369.28</ele>
        <time>2015-03-13T10:33:31Z</time>
      </trkpt>
      <trkpt lat="43.58216" lon="6.22963">
        <ele>368.32</ele>
        <time>2015-03-13T10:33:33Z</time>
      </trkpt>
      <trkpt lat="43.58212" lon="6.22977">
        <ele>366.88</ele>
        <time>2015-03-13T10:33:39Z</time>
      </trkpt>
      <trkpt lat="43.58209" lon="6.22982">
        <ele>366.4</ele>
        <time>2015-03-13T10:33:42Z</time>
      </trkpt>
      <trkpt lat="43.58203" lon="6.23">
        <ele>363.52</ele>
        <time>2015-03-13T10:33:52Z</time>
      </trkpt>
      <trkpt lat="43.58201" lon="6.23007">
        <ele>362.07</ele>
        <time>2015-03-13T10:33:56Z</time>
      </trkpt>
      <trkpt lat="43.58201" lon="6.23017">
        <ele>361.11</ele>
        <time>2015-03-13T10:34:01Z</time>
      </trkpt>
      <trkpt lat="43.58198" lon="6.23026">
        <ele>359.19</ele>
        <time>2015-03-13T10:34:12Z</time>
      </trkpt>
      <trkpt lat="43.58198" lon="6.23025">
        <ele>359.67</ele>
        <time>2015-03-13T10:34:28Z</time>
      </trkpt>
      <trkpt lat="43.58199" lon="6.23023">
        <ele>359.67</ele>
        <time>2015-03-13T10:34:40Z</time>
      </trkpt>
      <trkpt lat="43.58199" lon="6.23023">
        <ele>359.19</ele>
        <time>2015-03-13T10:34:55Z</time>
      </trkpt>
      <trkpt lat="43.58196" lon="6.23026">
        <ele>359.19</ele>
        <time>2015-03-13T10:35:09Z</time>
      </trkpt>
      <trkpt lat="43.58197" lon="6.23037">
        <ele>358.23</ele>
        <time>2015-03-13T10:35:22Z</time>
      </trkpt>
      <trkpt lat="43.58193" lon="6.23057">
        <ele>356.31</ele>
        <time>2015-03-13T10:35:30Z</time>
      </trkpt>
      <trkpt lat="43.58188" lon="6.23076">
        <ele>354.86</ele>
        <time>2015-03-13T10:35:39Z</time>
      </trkpt>
      <trkpt lat="43.58188" lon="6.23081">
        <ele>353.9</ele>
        <time>2015-03-13T10:35:41Z</time>
      </trkpt>
      <trkpt lat="43.58187" lon="6.23092">
        <ele>352.46</ele>
        <time>2015-03-13T10:35:48Z</time>
      </trkpt>
      <trkpt lat="43.58188" lon="6.23097">
        <ele>352.46</ele>
        <time>2015-03-13T10:35:51Z</time>
      </trkpt>
      <trkpt lat="43.58188" lon="6.23099">
        <ele>351.02</ele>
        <time>2015-03-13T10:35:52Z</time>
      </trkpt>
      <trkpt lat="43.58189" lon="6.23112">
        <ele>349.58</ele>
        <time>2015-03-13T10:36:01Z</time>
      </trkpt>
      <trkpt lat="43.5819" lon="6.23115">
        <ele>349.58</ele>
        <time>2015-03-13T10:36:03Z</time>
      </trkpt>
      <trkpt lat="43.58193" lon="6.23129">
        <ele>347.17</ele>
        <time>2015-03-13T10:36:14Z</time>
      </trkpt>
      <trkpt lat="43.58194" lon="6.23131">
        <ele>346.69</ele>
        <time>2015-03-13T10:36:16Z</time>
      </trkpt>
      <trkpt lat="43.58196" lon="6.23151">
        <ele>343.33</ele>
        <time>2015-03-13T10:36:28Z</time>
      </trkpt>
      <trkpt lat="43.58195" lon="6.23159">
        <ele>341.89</ele>
        <time>2015-03-13T10:36:32Z</time>
      </trkpt>
      <trkpt lat="43.58192" lon="6.23175">
        <ele>340.92</ele>
        <time>2015-03-13T10:36:38Z</time>
      </trkpt>
      <trkpt lat="43.58192" lon="6.2318">
        <ele>340.92</ele>
        <time>2015-03-13T10:36:40Z</time>
      </trkpt>
      <trkpt lat="43.58196" lon="6.2319">
        <ele>340.44</ele>
        <time>2015-03-13T10:36:53Z</time>
      </trkpt>
      <trkpt lat="43.58192" lon="6.2319">
        <ele>340.44</ele>
        <time>2015-03-13T10:37:07Z</time>
      </trkpt>
      <trkpt lat="43.58197" lon="6.23189">
        <ele>340.92</ele>
        <time>2015-03-13T10:37:22Z</time>
      </trkpt>
      <trkpt lat="43.58226" lon="6.23188">
        <ele>340.92</ele>
        <time>2015-03-13T10:37:39Z</time>
      </trkpt>
      <trkpt lat="43.58242" lon="6.23188">
        <ele>340.92</ele>
        <time>2015-03-13T10:37:48Z</time>
      </trkpt>
      <trkpt lat="43.58264" lon="6.23195">
        <ele>341.41</ele>
        <time>2015-03-13T10:38:03Z</time>
      </trkpt>
      <trkpt lat="43.58289" lon="6.23202">
        <ele>341.89</ele>
        <time>2015-03-13T10:38:21Z</time>
      </trkpt>
      <trkpt lat="43.58308" lon="6.2321">
        <ele>341.41</ele>
        <time>2015-03-13T10:38:37Z</time>
      </trkpt>
      <trkpt lat="43.58325" lon="6.23226">
        <ele>340.44</ele>
        <time>2015-03-13T10:38:53Z</time>
      </trkpt>
      <trkpt lat="43.58346" lon="6.23246">
        <ele>338.52</ele>
        <time>2015-03-13T10:39:08Z</time>
      </trkpt>
      <trkpt lat="43.58351" lon="6.23258">
        <ele>338.52</ele>
        <time>2015-03-13T10:39:14Z</time>
      </trkpt>
      <trkpt lat="43.58355" lon="6.23265">
        <ele>338.52</ele>
        <time>2015-03-13T10:39:18Z</time>
      </trkpt>
      <trkpt lat="43.58358" lon="6.23274">
        <ele>338.52</ele>
        <time>2015-03-13T10:39:24Z</time>
      </trkpt>
      <trkpt lat="43.58381" lon="6.23285">
        <ele>339</ele>
        <time>2015-03-13T10:39:40Z</time>
      </trkpt>
      <trkpt lat="43.58388" lon="6.23309">
        <ele>340.44</ele>
        <time>2015-03-13T10:39:55Z</time>
      </trkpt>
      <trkpt lat="43.58377" lon="6.23332">
        <ele>339.48</ele>
        <time>2015-03-13T10:40:10Z</time>
      </trkpt>
      <trkpt lat="43.58376" lon="6.23333">
        <ele>339.48</ele>
        <time>2015-03-13T10:40:26Z</time>
      </trkpt>
      <trkpt lat="43.58376" lon="6.23332">
        <ele>339.48</ele>
        <time>2015-03-13T10:40:44Z</time>
      </trkpt>
      <trkpt lat="43.58377" lon="6.23335">
        <ele>339.48</ele>
        <time>2015-03-13T10:41:04Z</time>
      </trkpt>
      <trkpt lat="43.58378" lon="6.23335">
        <ele>339</ele>
        <time>2015-03-13T10:41:28Z</time>
      </trkpt>
      <trkpt lat="43.58385" lon="6.23333">
        <ele>340.92</ele>
        <time>2015-03-13T10:41:42Z</time>
      </trkpt>
      <trkpt lat="43.58392" lon="6.23326">
        <ele>341.41</ele>
        <time>2015-03-13T10:41:48Z</time>
      </trkpt>
      <trkpt lat="43.58414" lon="6.23321">
        <ele>342.37</ele>
        <time>2015-03-13T10:42:05Z</time>
      </trkpt>
      <trkpt lat="43.58434" lon="6.23308">
        <ele>341.89</ele>
        <time>2015-03-13T10:42:22Z</time>
      </trkpt>
      <trkpt lat="43.58452" lon="6.2329">
        <ele>342.85</ele>
        <time>2015-03-13T10:42:39Z</time>
      </trkpt>
      <trkpt lat="43.58455" lon="6.2329">
        <ele>342.85</ele>
        <time>2015-03-13T10:42:45Z</time>
      </trkpt>
      <trkpt lat="43.58468" lon="6.23291">
        <ele>343.81</ele>
        <time>2015-03-13T10:42:50Z</time>
      </trkpt>
      <trkpt lat="43.58486" lon="6.23282">
        <ele>344.77</ele>
        <time>2015-03-13T10:43:00Z</time>
      </trkpt>
      <trkpt lat="43.58501" lon="6.23276">
        <ele>343.81</ele>
        <time>2015-03-13T10:43:14Z</time>
      </trkpt>
      <trkpt lat="43.58519" lon="6.23267">
        <ele>343.81</ele>
        <time>2015-03-13T10:43:27Z</time>
      </trkpt>
      <trkpt lat="43.5854" lon="6.23261">
        <ele>343.81</ele>
        <time>2015-03-13T10:43:42Z</time>
      </trkpt>
      <trkpt lat="43.58554" lon="6.23245">
        <ele>343.81</ele>
        <time>2015-03-13T10:43:56Z</time>
      </trkpt>
      <trkpt lat="43.58555" lon="6.23241">
        <ele>343.81</ele>
        <time>2015-03-13T10:43:59Z</time>
      </trkpt>
      <trkpt lat="43.58565" lon="6.23235">
        <ele>343.81</ele>
        <time>2015-03-13T10:44:09Z</time>
      </trkpt>
      <trkpt lat="43.58567" lon="6.23234">
        <ele>344.29</ele>
        <time>2015-03-13T10:44:11Z</time>
      </trkpt>
      <trkpt lat="43.58587" lon="6.2323">
        <ele>346.21</ele>
        <time>2015-03-13T10:44:29Z</time>
      </trkpt>
      <trkpt lat="43.58611" lon="6.23244">
        <ele>346.69</ele>
        <time>2015-03-13T10:44:44Z</time>
      </trkpt>
      <trkpt lat="43.58624" lon="6.23238">
        <ele>347.65</ele>
        <time>2015-03-13T10:44:59Z</time>
      </trkpt>
      <trkpt lat="43.58627" lon="6.23239">
        <ele>348.13</ele>
        <time>2015-03-13T10:45:19Z</time>
      </trkpt>
      <trkpt lat="43.58636" lon="6.23238">
        <ele>348.62</ele>
        <time>2015-03-13T10:45:36Z</time>
      </trkpt>
      <trkpt lat="43.58639" lon="6.23238">
        <ele>349.1</ele>
        <time>2015-03-13T10:45:58Z</time>
      </trkpt>
      <trkpt lat="43.5864" lon="6.23239">
        <ele>349.1</ele>
        <time>2015-03-13T10:46:23Z</time>
      </trkpt>
      <trkpt lat="43.58641" lon="6.2324">
        <ele>349.1</ele>
        <time>2015-03-13T10:46:51Z</time>
      </trkpt>
      <trkpt lat="43.58642" lon="6.23241">
        <ele>349.58</ele>
        <time>2015-03-13T10:47:10Z</time>
      </trkpt>
      <trkpt lat="43.58643" lon="6.23243">
        <ele>349.58</ele>
        <time>2015-03-13T10:47:35Z</time>
      </trkpt>
      <trkpt lat="43.58644" lon="6.23244">
        <ele>349.58</ele>
        <time>2015-03-13T10:47:57Z</time>
      </trkpt>
      <trkpt lat="43.58644" lon="6.23245">
        <ele>349.58</ele>
        <time>2015-03-13T10:48:23Z</time>
      </trkpt>
      <trkpt lat="43.58645" lon="6.23246">
        <ele>349.58</ele>
        <time>2015-03-13T10:48:45Z</time>
      </trkpt>
      <trkpt lat="43.58648" lon="6.23247">
        <ele>350.06</ele>
        <time>2015-03-13T10:49:11Z</time>
      </trkpt>
      <trkpt lat="43.5865" lon="6.23248">
        <ele>351.02</ele>
        <time>2015-03-13T10:49:27Z</time>
      </trkpt>
      <trkpt lat="43.58671" lon="6.2324">
        <ele>350.06</ele>
        <time>2015-03-13T10:49:46Z</time>
      </trkpt>
      <trkpt lat="43.58685" lon="6.2323">
        <ele>350.54</ele>
        <time>2015-03-13T10:50:04Z</time>
      </trkpt>
      <trkpt lat="43.58687" lon="6.23225">
        <ele>350.54</ele>
        <time>2015-03-13T10:50:26Z</time>
      </trkpt>
      <trkpt lat="43.5869" lon="6.23225">
        <ele>350.54</ele>
        <time>2015-03-13T10:50:53Z</time>
      </trkpt>
      <trkpt lat="43.58691" lon="6.23223">
        <ele>350.54</ele>
        <time>2015-03-13T10:51:19Z</time>
      </trkpt>
      <trkpt lat="43.58694" lon="6.23225">
        <ele>351.02</ele>
        <time>2015-03-13T10:51:39Z</time>
      </trkpt>
      <trkpt lat="43.58706" lon="6.2322">
        <ele>350.54</ele>
        <time>2015-03-13T10:51:55Z</time>
      </trkpt>
      <trkpt lat="43.58725" lon="6.23221">
        <ele>351.02</ele>
        <time>2015-03-13T10:52:10Z</time>
      </trkpt>
      <trkpt lat="43.58747" lon="6.23225">
        <ele>351.02</ele>
        <time>2015-03-13T10:52:23Z</time>
      </trkpt>
      <trkpt lat="43.58771" lon="6.23223">
        <ele>353.42</ele>
        <time>2015-03-13T10:52:40Z</time>
      </trkpt>
      <trkpt lat="43.5877" lon="6.23222">
        <ele>352.46</ele>
        <time>2015-03-13T10:52:52Z</time>
      </trkpt>
      <trkpt lat="43.58767" lon="6.23219">
        <ele>351.98</ele>
        <time>2015-03-13T10:52:56Z</time>
      </trkpt>
      <trkpt lat="43.58764" lon="6.23217">
        <ele>351.5</ele>
        <time>2015-03-13T10:52:59Z</time>
      </trkpt>
      <trkpt lat="43.58762" lon="6.23205">
        <ele>350.54</ele>
        <time>2015-03-13T10:53:04Z</time>
      </trkpt>
      <trkpt lat="43.58758" lon="6.232">
        <ele>351.02</ele>
        <time>2015-03-13T10:53:14Z</time>
      </trkpt>
      <trkpt lat="43.58744" lon="6.23201">
        <ele>351.02</ele>
        <time>2015-03-13T10:53:23Z</time>
      </trkpt>
      <trkpt lat="43.58722" lon="6.23206">
        <ele>351.02</ele>
        <time>2015-03-13T10:53:34Z</time>
      </trkpt>
      <trkpt lat="43.58698" lon="6.23222">
        <ele>351.02</ele>
        <time>2015-03-13T10:53:44Z</time>
      </trkpt>
      <trkpt lat="43.58671" lon="6.23232">
        <ele>350.54</ele>
        <time>2015-03-13T10:53:55Z</time>
      </trkpt>
      <trkpt lat="43.58662" lon="6.23234">
        <ele>350.06</ele>
        <time>2015-03-13T10:53:57Z</time>
      </trkpt>
      <trkpt lat="43.58639" lon="6.23229">
        <ele>349.58</ele>
        <time>2015-03-13T10:54:04Z</time>
      </trkpt>
      <trkpt lat="43.58619" lon="6.2324">
        <ele>349.58</ele>
        <time>2015-03-13T10:54:07Z</time>
      </trkpt>
      <trkpt lat="43.58595" lon="6.23241">
        <ele>349.58</ele>
        <time>2015-03-13T10:54:13Z</time>
      </trkpt>
      <trkpt lat="43.58583" lon="6.23237">
        <ele>348.62</ele>
        <time>2015-03-13T10:54:18Z</time>
      </trkpt>
      <trkpt lat="43.58564" lon="6.23244">
        <ele>347.17</ele>
        <time>2015-03-13T10:54:29Z</time>
      </trkpt>
      <trkpt lat="43.58549" lon="6.23246">
        <ele>347.17</ele>
        <time>2015-03-13T10:54:42Z</time>
      </trkpt>
      <trkpt lat="43.58546" lon="6.23255">
        <ele>348.13</ele>
        <time>2015-03-13T10:54:54Z</time>
      </trkpt>
      <trkpt lat="43.58545" lon="6.23257">
        <ele>348.13</ele>
        <time>2015-03-13T10:54:56Z</time>
      </trkpt>
      <trkpt lat="43.58528" lon="6.23266">
        <ele>348.62</ele>
        <time>2015-03-13T10:55:10Z</time>
      </trkpt>
      <trkpt lat="43.58506" lon="6.23276">
        <ele>348.62</ele>
        <time>2015-03-13T10:55:22Z</time>
      </trkpt>
      <trkpt lat="43.58485" lon="6.23284">
        <ele>348.13</ele>
        <time>2015-03-13T10:55:35Z</time>
      </trkpt>
      <trkpt lat="43.58475" lon="6.23289">
        <ele>348.13</ele>
        <time>2015-03-13T10:55:43Z</time>
      </trkpt>
      <trkpt lat="43.5846" lon="6.23294">
        <ele>347.17</ele>
        <time>2015-03-13T10:55:57Z</time>
      </trkpt>
      <trkpt lat="43.58455" lon="6.23295">
        <ele>346.69</ele>
        <time>2015-03-13T10:56:05Z</time>
      </trkpt>
      <trkpt lat="43.58444" lon="6.23302">
        <ele>346.21</ele>
        <time>2015-03-13T10:56:13Z</time>
      </trkpt>
      <trkpt lat="43.5843" lon="6.23312">
        <ele>346.21</ele>
        <time>2015-03-13T10:56:22Z</time>
      </trkpt>
      <trkpt lat="43.58425" lon="6.23314">
        <ele>346.69</ele>
        <time>2015-03-13T10:56:25Z</time>
      </trkpt>
      <trkpt lat="43.58401" lon="6.23316">
        <ele>346.69</ele>
        <time>2015-03-13T10:56:40Z</time>
      </trkpt>
      <trkpt lat="43.58398" lon="6.23314">
        <ele>346.21</ele>
        <time>2015-03-13T10:56:43Z</time>
      </trkpt>
      <trkpt lat="43.58394" lon="6.23311">
        <ele>346.21</ele>
        <time>2015-03-13T10:56:47Z</time>
      </trkpt>
      <trkpt lat="43.58392" lon="6.23308">
        <ele>345.73</ele>
        <time>2015-03-13T10:56:49Z</time>
      </trkpt>
      <trkpt lat="43.58392" lon="6.23296">
        <ele>344.77</ele>
        <time>2015-03-13T10:56:54Z</time>
      </trkpt>
      <trkpt lat="43.58388" lon="6.23285">
        <ele>343.81</ele>
        <time>2015-03-13T10:57:01Z</time>
      </trkpt>
      <trkpt lat="43.58373" lon="6.23277">
        <ele>343.33</ele>
        <time>2015-03-13T10:57:13Z</time>
      </trkpt>
      <trkpt lat="43.58372" lon="6.23277">
        <ele>343.33</ele>
        <time>2015-03-13T10:57:14Z</time>
      </trkpt>
      <trkpt lat="43.58359" lon="6.23254">
        <ele>342.85</ele>
        <time>2015-03-13T10:57:31Z</time>
      </trkpt>
      <trkpt lat="43.58343" lon="6.2323">
        <ele>344.29</ele>
        <time>2015-03-13T10:57:48Z</time>
      </trkpt>
      <trkpt lat="43.58313" lon="6.23209">
        <ele>345.73</ele>
        <time>2015-03-13T10:57:58Z</time>
      </trkpt>
      <trkpt lat="43.58294" lon="6.23199">
        <ele>345.25</ele>
        <time>2015-03-13T10:58:02Z</time>
      </trkpt>
      <trkpt lat="43.58288" lon="6.23198">
        <ele>344.77</ele>
        <time>2015-03-13T10:58:03Z</time>
      </trkpt>
      <trkpt lat="43.58281" lon="6.23197">
        <ele>344.29</ele>
        <time>2015-03-13T10:58:04Z</time>
      </trkpt>
      <trkpt lat="43.58269" lon="6.23194">
        <ele>344.77</ele>
        <time>2015-03-13T10:58:06Z</time>
      </trkpt>
      <trkpt lat="43.58263" lon="6.23192">
        <ele>344.29</ele>
        <time>2015-03-13T10:58:07Z</time>
      </trkpt>
      <trkpt lat="43.58258" lon="6.23191">
        <ele>344.29</ele>
        <time>2015-03-13T10:58:08Z</time>
      </trkpt>
      <trkpt lat="43.58253" lon="6.23191">
        <ele>344.29</ele>
        <time>2015-03-13T10:58:09Z</time>
      </trkpt>
      <trkpt lat="43.58249" lon="6.2319">
        <ele>344.29</ele>
        <time>2015-03-13T10:58:10Z</time>
      </trkpt>
      <trkpt lat="43.58245" lon="6.2319">
        <ele>344.77</ele>
        <time>2015-03-13T10:58:11Z</time>
      </trkpt>
      <trkpt lat="43.58242" lon="6.2319">
        <ele>344.77</ele>
        <time>2015-03-13T10:58:12Z</time>
      </trkpt>
      <trkpt lat="43.58228" lon="6.23189">
        <ele>345.25</ele>
        <time>2015-03-13T10:58:16Z</time>
      </trkpt>
      <trkpt lat="43.58223" lon="6.23189">
        <ele>345.25</ele>
        <time>2015-03-13T10:58:17Z</time>
      </trkpt>
      <trkpt lat="43.58195" lon="6.23192">
        <ele>344.77</ele>
        <time>2015-03-13T10:58:27Z</time>
      </trkpt>
      <trkpt lat="43.58178" lon="6.232">
        <ele>343.81</ele>
        <time>2015-03-13T10:58:33Z</time>
      </trkpt>
      <trkpt lat="43.58167" lon="6.23205">
        <ele>343.81</ele>
        <time>2015-03-13T10:58:35Z</time>
      </trkpt>
      <trkpt lat="43.58156" lon="6.23211">
        <ele>343.33</ele>
        <time>2015-03-13T10:58:37Z</time>
      </trkpt>
      <trkpt lat="43.58135" lon="6.23229">
        <ele>343.33</ele>
        <time>2015-03-13T10:58:41Z</time>
      </trkpt>
      <trkpt lat="43.58108" lon="6.23247">
        <ele>342.85</ele>
        <time>2015-03-13T10:58:46Z</time>
      </trkpt>
      <trkpt lat="43.58103" lon="6.2325">
        <ele>342.37</ele>
        <time>2015-03-13T10:58:47Z</time>
      </trkpt>
      <trkpt lat="43.58093" lon="6.23257">
        <ele>341.89</ele>
        <time>2015-03-13T10:58:49Z</time>
      </trkpt>
      <trkpt lat="43.58088" lon="6.2326">
        <ele>341.89</ele>
        <time>2015-03-13T10:58:50Z</time>
      </trkpt>
      <trkpt lat="43.58084" lon="6.23263">
        <ele>341.89</ele>
        <time>2015-03-13T10:58:51Z</time>
      </trkpt>
      <trkpt lat="43.58072" lon="6.23271">
        <ele>341.89</ele>
        <time>2015-03-13T10:58:54Z</time>
      </trkpt>
      <trkpt lat="43.58068" lon="6.23273">
        <ele>342.37</ele>
        <time>2015-03-13T10:58:55Z</time>
      </trkpt>
      <trkpt lat="43.58063" lon="6.23276">
        <ele>342.37</ele>
        <time>2015-03-13T10:58:56Z</time>
      </trkpt>
      <trkpt lat="43.58045" lon="6.23286">
        <ele>341.41</ele>
        <time>2015-03-13T10:59:00Z</time>
      </trkpt>
      <trkpt lat="43.58041" lon="6.23291">
        <ele>340.92</ele>
        <time>2015-03-13T10:59:01Z</time>
      </trkpt>
      <trkpt lat="43.58024" lon="6.23312">
        <ele>339.96</ele>
        <time>2015-03-13T10:59:09Z</time>
      </trkpt>
      <trkpt lat="43.58002" lon="6.23343">
        <ele>340.44</ele>
        <time>2015-03-13T10:59:20Z</time>
      </trkpt>
      <trkpt lat="43.57982" lon="6.23382">
        <ele>339.48</ele>
        <time>2015-03-13T10:59:31Z</time>
      </trkpt>
      <trkpt lat="43.57959" lon="6.23425">
        <ele>337.56</ele>
        <time>2015-03-13T10:59:41Z</time>
      </trkpt>
      <trkpt lat="43.57944" lon="6.23443">
        <ele>336.6</ele>
        <time>2015-03-13T10:59:47Z</time>
      </trkpt>
      <trkpt lat="43.57931" lon="6.23454">
        <ele>334.68</ele>
        <time>2015-03-13T10:59:56Z</time>
      </trkpt>
      <trkpt lat="43.5793" lon="6.23458">
        <ele>334.68</ele>
        <time>2015-03-13T11:00:00Z</time>
      </trkpt>
      <trkpt lat="43.57926" lon="6.23469">
        <ele>335.16</ele>
        <time>2015-03-13T11:00:09Z</time>
      </trkpt>
      <trkpt lat="43.57916" lon="6.23472">
        <ele>336.6</ele>
        <time>2015-03-13T11:00:19Z</time>
      </trkpt>
      <trkpt lat="43.57909" lon="6.23469">
        <ele>337.56</ele>
        <time>2015-03-13T11:00:27Z</time>
      </trkpt>
      <trkpt lat="43.57881" lon="6.23483">
        <ele>338.04</ele>
        <time>2015-03-13T11:00:40Z</time>
      </trkpt>
      <trkpt lat="43.5786" lon="6.23482">
        <ele>337.08</ele>
        <time>2015-03-13T11:00:54Z</time>
      </trkpt>
      <trkpt lat="43.57843" lon="6.23486">
        <ele>336.6</ele>
        <time>2015-03-13T11:01:07Z</time>
      </trkpt>
      <trkpt lat="43.57838" lon="6.23489">
        <ele>336.12</ele>
        <time>2015-03-13T11:01:11Z</time>
      </trkpt>
      <trkpt lat="43.57825" lon="6.235">
        <ele>335.16</ele>
        <time>2015-03-13T11:01:23Z</time>
      </trkpt>
      <trkpt lat="43.57824" lon="6.23503">
        <ele>335.16</ele>
        <time>2015-03-13T11:01:25Z</time>
      </trkpt>
      <trkpt lat="43.57813" lon="6.23519">
        <ele>334.68</ele>
        <time>2015-03-13T11:01:36Z</time>
      </trkpt>
      <trkpt lat="43.57802" lon="6.23539">
        <ele>334.2</ele>
        <time>2015-03-13T11:01:49Z</time>
      </trkpt>
      <trkpt lat="43.57795" lon="6.23556">
        <ele>333.23</ele>
        <time>2015-03-13T11:02:00Z</time>
      </trkpt>
      <trkpt lat="43.57794" lon="6.23562">
        <ele>332.75</ele>
        <time>2015-03-13T11:02:03Z</time>
      </trkpt>
      <trkpt lat="43.57793" lon="6.2357">
        <ele>332.75</ele>
        <time>2015-03-13T11:02:08Z</time>
      </trkpt>
      <trkpt lat="43.57794" lon="6.23594">
        <ele>330.83</ele>
        <time>2015-03-13T11:02:21Z</time>
      </trkpt>
      <trkpt lat="43.57796" lon="6.23603">
        <ele>330.35</ele>
        <time>2015-03-13T11:02:26Z</time>
      </trkpt>
      <trkpt lat="43.57798" lon="6.23623">
        <ele>328.91</ele>
        <time>2015-03-13T11:02:36Z</time>
      </trkpt>
      <trkpt lat="43.57799" lon="6.23635">
        <ele>327.95</ele>
        <time>2015-03-13T11:02:42Z</time>
      </trkpt>
      <trkpt lat="43.57801" lon="6.23651">
        <ele>326.5</ele>
        <time>2015-03-13T11:02:50Z</time>
      </trkpt>
      <trkpt lat="43.57804" lon="6.23667">
        <ele>325.06</ele>
        <time>2015-03-13T11:02:58Z</time>
      </trkpt>
      <trkpt lat="43.57803" lon="6.23682">
        <ele>323.62</ele>
        <time>2015-03-13T11:03:09Z</time>
      </trkpt>
      <trkpt lat="43.57793" lon="6.23705">
        <ele>323.14</ele>
        <time>2015-03-13T11:03:19Z</time>
      </trkpt>
      <trkpt lat="43.57784" lon="6.23721">
        <ele>322.66</ele>
        <time>2015-03-13T11:03:29Z</time>
      </trkpt>
      <trkpt lat="43.57783" lon="6.23724">
        <ele>322.66</ele>
        <time>2015-03-13T11:03:43Z</time>
      </trkpt>
      <trkpt lat="43.57783" lon="6.23724">
        <ele>322.66</ele>
        <time>2015-03-13T11:03:48Z</time>
      </trkpt>
      <trkpt lat="43.57782" lon="6.23727">
        <ele>322.18</ele>
        <time>2015-03-13T11:03:50Z</time>
      </trkpt>
      <trkpt lat="43.57778" lon="6.23738">
        <ele>321.22</ele>
        <time>2015-03-13T11:03:56Z</time>
      </trkpt>
      <trkpt lat="43.57775" lon="6.23748">
        <ele>320.74</ele>
        <time>2015-03-13T11:04:02Z</time>
      </trkpt>
      <trkpt lat="43.5777" lon="6.23769">
        <ele>318.33</ele>
        <time>2015-03-13T11:04:13Z</time>
      </trkpt>
      <trkpt lat="43.57765" lon="6.23785">
        <ele>316.89</ele>
        <time>2015-03-13T11:04:21Z</time>
      </trkpt>
      <trkpt lat="43.57762" lon="6.23801">
        <ele>315.45</ele>
        <time>2015-03-13T11:04:33Z</time>
      </trkpt>
      <trkpt lat="43.57762" lon="6.23801">
        <ele>314.97</ele>
        <time>2015-03-13T11:04:54Z</time>
      </trkpt>
      <trkpt lat="43.57761" lon="6.23803">
        <ele>315.45</ele>
        <time>2015-03-13T11:04:58Z</time>
      </trkpt>
      <trkpt lat="43.57759" lon="6.23812">
        <ele>314.97</ele>
        <time>2015-03-13T11:05:03Z</time>
      </trkpt>
      <trkpt lat="43.57758" lon="6.23816">
        <ele>314.49</ele>
        <time>2015-03-13T11:05:05Z</time>
      </trkpt>
      <trkpt lat="43.57757" lon="6.23821">
        <ele>314.01</ele>
        <time>2015-03-13T11:05:08Z</time>
      </trkpt>
      <trkpt lat="43.57758" lon="6.23833">
        <ele>312.57</ele>
        <time>2015-03-13T11:05:14Z</time>
      </trkpt>
      <trkpt lat="43.57756" lon="6.23845">
        <ele>311.6</ele>
        <time>2015-03-13T11:05:18Z</time>
      </trkpt>
      <trkpt lat="43.57759" lon="6.23856">
        <ele>309.68</ele>
        <time>2015-03-13T11:05:23Z</time>
      </trkpt>
      <trkpt lat="43.57762" lon="6.23864">
        <ele>308.72</ele>
        <time>2015-03-13T11:05:27Z</time>
      </trkpt>
      <trkpt lat="43.57773" lon="6.23878">
        <ele>304.88</ele>
        <time>2015-03-13T11:05:38Z</time>
      </trkpt>
      <trkpt lat="43.57776" lon="6.23878">
        <ele>304.39</ele>
        <time>2015-03-13T11:05:41Z</time>
      </trkpt>
      <trkpt lat="43.57782" lon="6.23881">
        <ele>303.43</ele>
        <time>2015-03-13T11:05:45Z</time>
      </trkpt>
      <trkpt lat="43.57786" lon="6.23883">
        <ele>302.95</ele>
        <time>2015-03-13T11:05:59Z</time>
      </trkpt>
      <trkpt lat="43.57787" lon="6.23883">
        <ele>302.47</ele>
        <time>2015-03-13T11:06:24Z</time>
      </trkpt>
      <trkpt lat="43.57789" lon="6.23883">
        <ele>302.47</ele>
        <time>2015-03-13T11:06:28Z</time>
      </trkpt>
      <trkpt lat="43.57795" lon="6.23886">
        <ele>302.47</ele>
        <time>2015-03-13T11:06:40Z</time>
      </trkpt>
      <trkpt lat="43.57791" lon="6.23892">
        <ele>301.99</ele>
        <time>2015-03-13T11:06:44Z</time>
      </trkpt>
      <trkpt lat="43.57789" lon="6.23896">
        <ele>301.51</ele>
        <time>2015-03-13T11:06:58Z</time>
      </trkpt>
      <trkpt lat="43.57789" lon="6.23896">
        <ele>301.51</ele>
        <time>2015-03-13T11:07:16Z</time>
      </trkpt>
      <trkpt lat="43.57788" lon="6.239">
        <ele>301.03</ele>
        <time>2015-03-13T11:07:18Z</time>
      </trkpt>
      <trkpt lat="43.57782" lon="6.23929">
        <ele>300.55</ele>
        <time>2015-03-13T11:07:32Z</time>
      </trkpt>
      <trkpt lat="43.57776" lon="6.2395">
        <ele>300.07</ele>
        <time>2015-03-13T11:07:42Z</time>
      </trkpt>
      <trkpt lat="43.57764" lon="6.2397">
        <ele>299.59</ele>
        <time>2015-03-13T11:07:54Z</time>
      </trkpt>
      <trkpt lat="43.5775" lon="6.23988">
        <ele>299.59</ele>
        <time>2015-03-13T11:08:04Z</time>
      </trkpt>
      <trkpt lat="43.57738" lon="6.24022">
        <ele>299.11</ele>
        <time>2015-03-13T11:08:12Z</time>
      </trkpt>
      <trkpt lat="43.57733" lon="6.24032">
        <ele>298.63</ele>
        <time>2015-03-13T11:08:16Z</time>
      </trkpt>
      <trkpt lat="43.57741" lon="6.24052">
        <ele>297.67</ele>
        <time>2015-03-13T11:08:27Z</time>
      </trkpt>
      <trkpt lat="43.57743" lon="6.24056">
        <ele>297.67</ele>
        <time>2015-03-13T11:08:30Z</time>
      </trkpt>
      <trkpt lat="43.57755" lon="6.24061">
        <ele>296.22</ele>
        <time>2015-03-13T11:08:39Z</time>
      </trkpt>
      <trkpt lat="43.57764" lon="6.24059">
        <ele>295.74</ele>
        <time>2015-03-13T11:08:44Z</time>
      </trkpt>
      <trkpt lat="43.57776" lon="6.24056">
        <ele>294.3</ele>
        <time>2015-03-13T11:08:53Z</time>
      </trkpt>
      <trkpt lat="43.57781" lon="6.24058">
        <ele>292.86</ele>
        <time>2015-03-13T11:08:57Z</time>
      </trkpt>
      <trkpt lat="43.57786" lon="6.2407">
        <ele>291.9</ele>
        <time>2015-03-13T11:09:03Z</time>
      </trkpt>
      <trkpt lat="43.57785" lon="6.24077">
        <ele>291.9</ele>
        <time>2015-03-13T11:09:06Z</time>
      </trkpt>
      <trkpt lat="43.57774" lon="6.24105">
        <ele>290.46</ele>
        <time>2015-03-13T11:09:21Z</time>
      </trkpt>
      <trkpt lat="43.57769" lon="6.24112">
        <ele>289.49</ele>
        <time>2015-03-13T11:09:25Z</time>
      </trkpt>
      <trkpt lat="43.57761" lon="6.2413">
        <ele>288.53</ele>
        <time>2015-03-13T11:09:36Z</time>
      </trkpt>
      <trkpt lat="43.57757" lon="6.24136">
        <ele>288.53</ele>
        <time>2015-03-13T11:09:40Z</time>
      </trkpt>
      <trkpt lat="43.57754" lon="6.24144">
        <ele>287.57</ele>
        <time>2015-03-13T11:09:44Z</time>
      </trkpt>
      <trkpt lat="43.57756" lon="6.24157">
        <ele>286.61</ele>
        <time>2015-03-13T11:09:56Z</time>
      </trkpt>
      <trkpt lat="43.57756" lon="6.24157">
        <ele>285.65</ele>
        <time>2015-03-13T11:10:06Z</time>
      </trkpt>
      <trkpt lat="43.57756" lon="6.24163">
        <ele>286.13</ele>
        <time>2015-03-13T11:10:10Z</time>
      </trkpt>
      <trkpt lat="43.57759" lon="6.24168">
        <ele>286.13</ele>
        <time>2015-03-13T11:10:19Z</time>
      </trkpt>
      <trkpt lat="43.57758" lon="6.24168">
        <ele>285.65</ele>
        <time>2015-03-13T11:10:47Z</time>
      </trkpt>
      <trkpt lat="43.57759" lon="6.24168">
        <ele>285.65</ele>
        <time>2015-03-13T11:11:09Z</time>
      </trkpt>
      <trkpt lat="43.5778" lon="6.24188">
        <ele>285.17</ele>
        <time>2015-03-13T11:11:24Z</time>
      </trkpt>
      <trkpt lat="43.57797" lon="6.24206">
        <ele>285.65</ele>
        <time>2015-03-13T11:11:38Z</time>
      </trkpt>
      <trkpt lat="43.57803" lon="6.24211">
        <ele>286.13</ele>
        <time>2015-03-13T11:11:42Z</time>
      </trkpt>
      <trkpt lat="43.57806" lon="6.24216">
        <ele>286.13</ele>
        <time>2015-03-13T11:11:44Z</time>
      </trkpt>
      <trkpt lat="43.57806" lon="6.24223">
        <ele>286.61</ele>
        <time>2015-03-13T11:11:47Z</time>
      </trkpt>
      <trkpt lat="43.57794" lon="6.24252">
        <ele>286.13</ele>
        <time>2015-03-13T11:11:58Z</time>
      </trkpt>
      <trkpt lat="43.57763" lon="6.24299">
        <ele>287.57</ele>
        <time>2015-03-13T11:12:09Z</time>
      </trkpt>
      <trkpt lat="43.5774" lon="6.24333">
        <ele>287.57</ele>
        <time>2015-03-13T11:12:20Z</time>
      </trkpt>
      <trkpt lat="43.57731" lon="6.2435">
        <ele>287.57</ele>
        <time>2015-03-13T11:12:30Z</time>
      </trkpt>
      <trkpt lat="43.57731" lon="6.24352">
        <ele>287.57</ele>
        <time>2015-03-13T11:12:31Z</time>
      </trkpt>
      <trkpt lat="43.5773" lon="6.24354">
        <ele>287.57</ele>
        <time>2015-03-13T11:12:32Z</time>
      </trkpt>
      <trkpt lat="43.57729" lon="6.24355">
        <ele>287.57</ele>
        <time>2015-03-13T11:12:33Z</time>
      </trkpt>
      <trkpt lat="43.57722" lon="6.24375">
        <ele>289.97</ele>
        <time>2015-03-13T11:12:45Z</time>
      </trkpt>
      <trkpt lat="43.57717" lon="6.24393">
        <ele>290.46</ele>
        <time>2015-03-13T11:12:59Z</time>
      </trkpt>
      <trkpt lat="43.57715" lon="6.24395">
        <ele>289.97</ele>
        <time>2015-03-13T11:13:02Z</time>
      </trkpt>
      <trkpt lat="43.57713" lon="6.24396">
        <ele>289.97</ele>
        <time>2015-03-13T11:13:03Z</time>
      </trkpt>
      <trkpt lat="43.5771" lon="6.244">
        <ele>290.46</ele>
        <time>2015-03-13T11:13:06Z</time>
      </trkpt>
      <trkpt lat="43.57706" lon="6.24421">
        <ele>290.46</ele>
        <time>2015-03-13T11:13:18Z</time>
      </trkpt>
      <trkpt lat="43.57712" lon="6.24434">
        <ele>290.46</ele>
        <time>2015-03-13T11:13:30Z</time>
      </trkpt>
      <trkpt lat="43.57723" lon="6.24433">
        <ele>292.38</ele>
        <time>2015-03-13T11:13:38Z</time>
      </trkpt>
      <trkpt lat="43.57727" lon="6.24437">
        <ele>292.86</ele>
        <time>2015-03-13T11:13:41Z</time>
      </trkpt>
      <trkpt lat="43.5773" lon="6.24449">
        <ele>294.3</ele>
        <time>2015-03-13T11:13:49Z</time>
      </trkpt>
      <trkpt lat="43.5773" lon="6.24468">
        <ele>295.74</ele>
        <time>2015-03-13T11:14:00Z</time>
      </trkpt>
      <trkpt lat="43.57733" lon="6.24491">
        <ele>296.7</ele>
        <time>2015-03-13T11:14:13Z</time>
      </trkpt>
      <trkpt lat="43.57731" lon="6.24509">
        <ele>297.18</ele>
        <time>2015-03-13T11:14:27Z</time>
      </trkpt>
      <trkpt lat="43.57726" lon="6.24529">
        <ele>297.67</ele>
        <time>2015-03-13T11:14:35Z</time>
      </trkpt>
      <trkpt lat="43.57731" lon="6.24566">
        <ele>299.59</ele>
        <time>2015-03-13T11:14:51Z</time>
      </trkpt>
      <trkpt lat="43.57739" lon="6.24576">
        <ele>301.51</ele>
        <time>2015-03-13T11:15:07Z</time>
      </trkpt>
      <trkpt lat="43.57736" lon="6.24556">
        <ele>301.03</ele>
        <time>2015-03-13T11:15:21Z</time>
      </trkpt>
      <trkpt lat="43.57736" lon="6.24554">
        <ele>301.03</ele>
        <time>2015-03-13T11:15:23Z</time>
      </trkpt>
      <trkpt lat="43.5774" lon="6.24536">
        <ele>302.95</ele>
        <time>2015-03-13T11:15:36Z</time>
      </trkpt>
      <trkpt lat="43.57755" lon="6.24536">
        <ele>305.84</ele>
        <time>2015-03-13T11:15:42Z</time>
      </trkpt>
      <trkpt lat="43.5776" lon="6.24532">
        <ele>306.8</ele>
        <time>2015-03-13T11:15:44Z</time>
      </trkpt>
      <trkpt lat="43.57769" lon="6.24521">
        <ele>306.8</ele>
        <time>2015-03-13T11:15:54Z</time>
      </trkpt>
      <trkpt lat="43.57773" lon="6.24512">
        <ele>306.8</ele>
        <time>2015-03-13T11:16:00Z</time>
      </trkpt>
      <trkpt lat="43.57782" lon="6.24507">
        <ele>308.72</ele>
        <time>2015-03-13T11:16:06Z</time>
      </trkpt>
      <trkpt lat="43.57791" lon="6.24495">
        <ele>311.12</ele>
        <time>2015-03-13T11:16:16Z</time>
      </trkpt>
      <trkpt lat="43.57795" lon="6.24484">
        <ele>312.57</ele>
        <time>2015-03-13T11:16:22Z</time>
      </trkpt>
      <trkpt lat="43.57804" lon="6.24476">
        <ele>315.45</ele>
        <time>2015-03-13T11:16:33Z</time>
      </trkpt>
      <trkpt lat="43.57812" lon="6.24471">
        <ele>317.37</ele>
        <time>2015-03-13T11:16:45Z</time>
      </trkpt>
      <trkpt lat="43.5782" lon="6.24474">
        <ele>320.26</ele>
        <time>2015-03-13T11:16:49Z</time>
      </trkpt>
      <trkpt lat="43.57827" lon="6.24476">
        <ele>321.7</ele>
        <time>2015-03-13T11:16:54Z</time>
      </trkpt>
      <trkpt lat="43.57843" lon="6.24486">
        <ele>325.06</ele>
        <time>2015-03-13T11:17:10Z</time>
      </trkpt>
      <trkpt lat="43.57844" lon="6.24497">
        <ele>326.99</ele>
        <time>2015-03-13T11:17:19Z</time>
      </trkpt>
      <trkpt lat="43.57836" lon="6.24505">
        <ele>329.39</ele>
        <time>2015-03-13T11:17:32Z</time>
      </trkpt>
      <trkpt lat="43.57825" lon="6.24514">
        <ele>332.75</ele>
        <time>2015-03-13T11:17:46Z</time>
      </trkpt>
      <trkpt lat="43.57822" lon="6.24533">
        <ele>334.2</ele>
        <time>2015-03-13T11:18:00Z</time>
      </trkpt>
      <trkpt lat="43.57822" lon="6.24556">
        <ele>337.08</ele>
        <time>2015-03-13T11:18:15Z</time>
      </trkpt>
      <trkpt lat="43.57824" lon="6.24571">
        <ele>337.56</ele>
        <time>2015-03-13T11:18:24Z</time>
      </trkpt>
      <trkpt lat="43.57826" lon="6.24585">
        <ele>338.04</ele>
        <time>2015-03-13T11:18:32Z</time>
      </trkpt>
      <trkpt lat="43.5783" lon="6.24608">
        <ele>338.04</ele>
        <time>2015-03-13T11:18:47Z</time>
      </trkpt>
      <trkpt lat="43.57843" lon="6.24625">
        <ele>339</ele>
        <time>2015-03-13T11:19:04Z</time>
      </trkpt>
      <trkpt lat="43.57853" lon="6.2464">
        <ele>341.41</ele>
        <time>2015-03-13T11:19:18Z</time>
      </trkpt>
      <trkpt lat="43.57861" lon="6.24647">
        <ele>342.37</ele>
        <time>2015-03-13T11:19:32Z</time>
      </trkpt>
      <trkpt lat="43.57861" lon="6.24642">
        <ele>342.85</ele>
        <time>2015-03-13T11:19:36Z</time>
      </trkpt>
      <trkpt lat="43.57861" lon="6.24626">
        <ele>344.29</ele>
        <time>2015-03-13T11:19:50Z</time>
      </trkpt>
      <trkpt lat="43.57864" lon="6.246">
        <ele>347.65</ele>
        <time>2015-03-13T11:20:07Z</time>
      </trkpt>
      <trkpt lat="43.57867" lon="6.24584">
        <ele>350.54</ele>
        <time>2015-03-13T11:20:18Z</time>
      </trkpt>
      <trkpt lat="43.57879" lon="6.24587">
        <ele>352.94</ele>
        <time>2015-03-13T11:20:32Z</time>
      </trkpt>
      <trkpt lat="43.57888" lon="6.24598">
        <ele>354.38</ele>
        <time>2015-03-13T11:20:42Z</time>
      </trkpt>
      <trkpt lat="43.57897" lon="6.24628">
        <ele>355.83</ele>
        <time>2015-03-13T11:21:01Z</time>
      </trkpt>
      <trkpt lat="43.57908" lon="6.24649">
        <ele>357.75</ele>
        <time>2015-03-13T11:21:17Z</time>
      </trkpt>
      <trkpt lat="43.57919" lon="6.2466">
        <ele>359.19</ele>
        <time>2015-03-13T11:21:29Z</time>
      </trkpt>
      <trkpt lat="43.57936" lon="6.24669">
        <ele>361.11</ele>
        <time>2015-03-13T11:21:44Z</time>
      </trkpt>
      <trkpt lat="43.57941" lon="6.2469">
        <ele>363.52</ele>
        <time>2015-03-13T11:22:02Z</time>
      </trkpt>
      <trkpt lat="43.57949" lon="6.24711">
        <ele>366.4</ele>
        <time>2015-03-13T11:22:18Z</time>
      </trkpt>
      <trkpt lat="43.57963" lon="6.24723">
        <ele>369.28</ele>
        <time>2015-03-13T11:22:32Z</time>
      </trkpt>
      <trkpt lat="43.57964" lon="6.24724">
        <ele>369.76</ele>
        <time>2015-03-13T11:22:33Z</time>
      </trkpt>
      <trkpt lat="43.57975" lon="6.24736">
        <ele>371.21</ele>
        <time>2015-03-13T11:22:49Z</time>
      </trkpt>
      <trkpt lat="43.57983" lon="6.24754">
        <ele>374.09</ele>
        <time>2015-03-13T11:23:03Z</time>
      </trkpt>
      <trkpt lat="43.57988" lon="6.24761">
        <ele>375.05</ele>
        <time>2015-03-13T11:23:12Z</time>
      </trkpt>
      <trkpt lat="43.57992" lon="6.24743">
        <ele>378.42</ele>
        <time>2015-03-13T11:23:25Z</time>
      </trkpt>
      <trkpt lat="43.57997" lon="6.24732">
        <ele>380.82</ele>
        <time>2015-03-13T11:23:34Z</time>
      </trkpt>
      <trkpt lat="43.58002" lon="6.24724">
        <ele>381.78</ele>
        <time>2015-03-13T11:23:41Z</time>
      </trkpt>
      <trkpt lat="43.58004" lon="6.24703">
        <ele>385.15</ele>
        <time>2015-03-13T11:23:55Z</time>
      </trkpt>
      <trkpt lat="43.58005" lon="6.24693">
        <ele>386.59</ele>
        <time>2015-03-13T11:24:05Z</time>
      </trkpt>
      <trkpt lat="43.58014" lon="6.24698">
        <ele>388.99</ele>
        <time>2015-03-13T11:24:15Z</time>
      </trkpt>
      <trkpt lat="43.58024" lon="6.2471">
        <ele>392.84</ele>
        <time>2015-03-13T11:24:28Z</time>
      </trkpt>
      <trkpt lat="43.58027" lon="6.24715">
        <ele>393.8</ele>
        <time>2015-03-13T11:24:33Z</time>
      </trkpt>
      <trkpt lat="43.58037" lon="6.24726">
        <ele>397.16</ele>
        <time>2015-03-13T11:24:46Z</time>
      </trkpt>
      <trkpt lat="43.58049" lon="6.24734">
        <ele>399.57</ele>
        <time>2015-03-13T11:24:59Z</time>
      </trkpt>
      <trkpt lat="43.58061" lon="6.24741">
        <ele>402.93</ele>
        <time>2015-03-13T11:25:13Z</time>
      </trkpt>
      <trkpt lat="43.58062" lon="6.24741">
        <ele>402.93</ele>
        <time>2015-03-13T11:25:14Z</time>
      </trkpt>
      <trkpt lat="43.58065" lon="6.24742">
        <ele>402.93</ele>
        <time>2015-03-13T11:25:16Z</time>
      </trkpt>
      <trkpt lat="43.58079" lon="6.24751">
        <ele>405.33</ele>
        <time>2015-03-13T11:25:31Z</time>
      </trkpt>
      <trkpt lat="43.58095" lon="6.24755">
        <ele>408.7</ele>
        <time>2015-03-13T11:25:50Z</time>
      </trkpt>
      <trkpt lat="43.58108" lon="6.24749">
        <ele>412.06</ele>
        <time>2015-03-13T11:26:05Z</time>
      </trkpt>
      <trkpt lat="43.58127" lon="6.24745">
        <ele>414.47</ele>
        <time>2015-03-13T11:26:23Z</time>
      </trkpt>
      <trkpt lat="43.58137" lon="6.24736">
        <ele>417.83</ele>
        <time>2015-03-13T11:26:36Z</time>
      </trkpt>
      <trkpt lat="43.58149" lon="6.2473">
        <ele>420.71</ele>
        <time>2015-03-13T11:26:50Z</time>
      </trkpt>
      <trkpt lat="43.58151" lon="6.24726">
        <ele>422.16</ele>
        <time>2015-03-13T11:26:54Z</time>
      </trkpt>
      <trkpt lat="43.58156" lon="6.24708">
        <ele>425.04</ele>
        <time>2015-03-13T11:27:08Z</time>
      </trkpt>
      <trkpt lat="43.58158" lon="6.24699">
        <ele>426</ele>
        <time>2015-03-13T11:27:24Z</time>
      </trkpt>
      <trkpt lat="43.58166" lon="6.24692">
        <ele>428.4</ele>
        <time>2015-03-13T11:27:37Z</time>
      </trkpt>
      <trkpt lat="43.58175" lon="6.24682">
        <ele>431.77</ele>
        <time>2015-03-13T11:27:48Z</time>
      </trkpt>
      <trkpt lat="43.5818" lon="6.24677">
        <ele>433.21</ele>
        <time>2015-03-13T11:27:55Z</time>
      </trkpt>
      <trkpt lat="43.58195" lon="6.2467">
        <ele>436.1</ele>
        <time>2015-03-13T11:28:12Z</time>
      </trkpt>
      <trkpt lat="43.58209" lon="6.24669">
        <ele>437.06</ele>
        <time>2015-03-13T11:28:26Z</time>
      </trkpt>
      <trkpt lat="43.58226" lon="6.24668">
        <ele>439.46</ele>
        <time>2015-03-13T11:28:42Z</time>
      </trkpt>
      <trkpt lat="43.58235" lon="6.24664">
        <ele>439.46</ele>
        <time>2015-03-13T11:28:50Z</time>
      </trkpt>
      <trkpt lat="43.58241" lon="6.24648">
        <ele>439.94</ele>
        <time>2015-03-13T11:29:03Z</time>
      </trkpt>
      <trkpt lat="43.5825" lon="6.24634">
        <ele>439.46</ele>
        <time>2015-03-13T11:29:18Z</time>
      </trkpt>
      <trkpt lat="43.58255" lon="6.24626">
        <ele>439.46</ele>
        <time>2015-03-13T11:29:26Z</time>
      </trkpt>
      <trkpt lat="43.58259" lon="6.24623">
        <ele>438.98</ele>
        <time>2015-03-13T11:29:30Z</time>
      </trkpt>
      <trkpt lat="43.58259" lon="6.24605">
        <ele>438.02</ele>
        <time>2015-03-13T11:29:40Z</time>
      </trkpt>
      <trkpt lat="43.58253" lon="6.24575">
        <ele>437.54</ele>
        <time>2015-03-13T11:29:57Z</time>
      </trkpt>
      <trkpt lat="43.58258" lon="6.24556">
        <ele>436.1</ele>
        <time>2015-03-13T11:30:10Z</time>
      </trkpt>
      <trkpt lat="43.58258" lon="6.24551">
        <ele>435.61</ele>
        <time>2015-03-13T11:30:24Z</time>
      </trkpt>
      <trkpt lat="43.5826" lon="6.24548">
        <ele>435.13</ele>
        <time>2015-03-13T11:30:41Z</time>
      </trkpt>
      <trkpt lat="43.58266" lon="6.24529">
        <ele>434.17</ele>
        <time>2015-03-13T11:30:57Z</time>
      </trkpt>
      <trkpt lat="43.58271" lon="6.24509">
        <ele>433.21</ele>
        <time>2015-03-13T11:31:07Z</time>
      </trkpt>
      <trkpt lat="43.58273" lon="6.24494">
        <ele>432.25</ele>
        <time>2015-03-13T11:31:14Z</time>
      </trkpt>
      <trkpt lat="43.58279" lon="6.24484">
        <ele>430.81</ele>
        <time>2015-03-13T11:31:20Z</time>
      </trkpt>
      <trkpt lat="43.58283" lon="6.2448">
        <ele>429.85</ele>
        <time>2015-03-13T11:31:24Z</time>
      </trkpt>
      <trkpt lat="43.58284" lon="6.2447">
        <ele>428.4</ele>
        <time>2015-03-13T11:31:28Z</time>
      </trkpt>
      <trkpt lat="43.58285" lon="6.24465">
        <ele>427.92</ele>
        <time>2015-03-13T11:31:30Z</time>
      </trkpt>
      <trkpt lat="43.58289" lon="6.24439">
        <ele>425.04</ele>
        <time>2015-03-13T11:31:43Z</time>
      </trkpt>
      <trkpt lat="43.58305" lon="6.24418">
        <ele>421.68</ele>
        <time>2015-03-13T11:31:57Z</time>
      </trkpt>
      <trkpt lat="43.58319" lon="6.24399">
        <ele>418.31</ele>
        <time>2015-03-13T11:32:09Z</time>
      </trkpt>
      <trkpt lat="43.5832" lon="6.24397">
        <ele>418.31</ele>
        <time>2015-03-13T11:32:10Z</time>
      </trkpt>
      <trkpt lat="43.58326" lon="6.2437">
        <ele>417.83</ele>
        <time>2015-03-13T11:32:24Z</time>
      </trkpt>
      <trkpt lat="43.58324" lon="6.24357">
        <ele>417.35</ele>
        <time>2015-03-13T11:32:32Z</time>
      </trkpt>
      <trkpt lat="43.58323" lon="6.2435">
        <ele>417.35</ele>
        <time>2015-03-13T11:32:35Z</time>
      </trkpt>
      <trkpt lat="43.58325" lon="6.24343">
        <ele>416.39</ele>
        <time>2015-03-13T11:32:39Z</time>
      </trkpt>
      <trkpt lat="43.58327" lon="6.24341">
        <ele>415.91</ele>
        <time>2015-03-13T11:32:41Z</time>
      </trkpt>
      <trkpt lat="43.58327" lon="6.24323">
        <ele>413.98</ele>
        <time>2015-03-13T11:32:51Z</time>
      </trkpt>
      <trkpt lat="43.58329" lon="6.24324">
        <ele>412.54</ele>
        <time>2015-03-13T11:32:55Z</time>
      </trkpt>
      <trkpt lat="43.58332" lon="6.24327">
        <ele>412.06</ele>
        <time>2015-03-13T11:32:58Z</time>
      </trkpt>
      <trkpt lat="43.58333" lon="6.24332">
        <ele>411.58</ele>
        <time>2015-03-13T11:33:01Z</time>
      </trkpt>
      <trkpt lat="43.58334" lon="6.24341">
        <ele>411.1</ele>
        <time>2015-03-13T11:33:06Z</time>
      </trkpt>
      <trkpt lat="43.58337" lon="6.24345">
        <ele>410.62</ele>
        <time>2015-03-13T11:33:09Z</time>
      </trkpt>
      <trkpt lat="43.58339" lon="6.24355">
        <ele>409.66</ele>
        <time>2015-03-13T11:33:14Z</time>
      </trkpt>
      <trkpt lat="43.58342" lon="6.24364">
        <ele>409.66</ele>
        <time>2015-03-13T11:33:19Z</time>
      </trkpt>
      <trkpt lat="43.58342" lon="6.24373">
        <ele>408.7</ele>
        <time>2015-03-13T11:33:25Z</time>
      </trkpt>
      <trkpt lat="43.58343" lon="6.24377">
        <ele>408.22</ele>
        <time>2015-03-13T11:33:28Z</time>
      </trkpt>
      <trkpt lat="43.58348" lon="6.24396">
        <ele>406.29</ele>
        <time>2015-03-13T11:33:39Z</time>
      </trkpt>
      <trkpt lat="43.5835" lon="6.2442">
        <ele>403.89</ele>
        <time>2015-03-13T11:33:50Z</time>
      </trkpt>
      <trkpt lat="43.58357" lon="6.24422">
        <ele>403.41</ele>
        <time>2015-03-13T11:33:53Z</time>
      </trkpt>
      <trkpt lat="43.58373" lon="6.24427">
        <ele>401.01</ele>
        <time>2015-03-13T11:34:03Z</time>
      </trkpt>
      <trkpt lat="43.58389" lon="6.24423">
        <ele>401.49</ele>
        <time>2015-03-13T11:34:15Z</time>
      </trkpt>
      <trkpt lat="43.58414" lon="6.24427">
        <ele>398.6</ele>
        <time>2015-03-13T11:34:31Z</time>
      </trkpt>
      <trkpt lat="43.58419" lon="6.24428">
        <ele>398.6</ele>
        <time>2015-03-13T11:34:35Z</time>
      </trkpt>
      <trkpt lat="43.58421" lon="6.24431">
        <ele>398.6</ele>
        <time>2015-03-13T11:34:37Z</time>
      </trkpt>
      <trkpt lat="43.58434" lon="6.24441">
        <ele>397.16</ele>
        <time>2015-03-13T11:34:46Z</time>
      </trkpt>
      <trkpt lat="43.58448" lon="6.24453">
        <ele>396.2</ele>
        <time>2015-03-13T11:34:59Z</time>
      </trkpt>
      <trkpt lat="43.58451" lon="6.24456">
        <ele>395.72</ele>
        <time>2015-03-13T11:35:01Z</time>
      </trkpt>
      <trkpt lat="43.58458" lon="6.24463">
        <ele>395.24</ele>
        <time>2015-03-13T11:35:08Z</time>
      </trkpt>
      <trkpt lat="43.58461" lon="6.24465">
        <ele>395.24</ele>
        <time>2015-03-13T11:35:10Z</time>
      </trkpt>
      <trkpt lat="43.58481" lon="6.2448">
        <ele>393.32</ele>
        <time>2015-03-13T11:35:24Z</time>
      </trkpt>
      <trkpt lat="43.58494" lon="6.24493">
        <ele>392.36</ele>
        <time>2015-03-13T11:35:39Z</time>
      </trkpt>
      <trkpt lat="43.58502" lon="6.24483">
        <ele>389.95</ele>
        <time>2015-03-13T11:35:47Z</time>
      </trkpt>
      <trkpt lat="43.58495" lon="6.24471">
        <ele>388.03</ele>
        <time>2015-03-13T11:35:55Z</time>
      </trkpt>
      <trkpt lat="43.58489" lon="6.24451">
        <ele>385.63</ele>
        <time>2015-03-13T11:36:08Z</time>
      </trkpt>
      <trkpt lat="43.58495" lon="6.24451">
        <ele>385.15</ele>
        <time>2015-03-13T11:36:12Z</time>
      </trkpt>
      <trkpt lat="43.58498" lon="6.24453">
        <ele>385.15</ele>
        <time>2015-03-13T11:36:14Z</time>
      </trkpt>
      <trkpt lat="43.58517" lon="6.24475">
        <ele>382.74</ele>
        <time>2015-03-13T11:36:29Z</time>
      </trkpt>
      <trkpt lat="43.58528" lon="6.24484">
        <ele>383.7</ele>
        <time>2015-03-13T11:36:42Z</time>
      </trkpt>
      <trkpt lat="43.58539" lon="6.24494">
        <ele>385.15</ele>
        <time>2015-03-13T11:36:54Z</time>
      </trkpt>
      <trkpt lat="43.58555" lon="6.24503">
        <ele>386.11</ele>
        <time>2015-03-13T11:37:07Z</time>
      </trkpt>
      <trkpt lat="43.58574" lon="6.24507">
        <ele>388.03</ele>
        <time>2015-03-13T11:37:22Z</time>
      </trkpt>
      <trkpt lat="43.58585" lon="6.24509">
        <ele>389.95</ele>
        <time>2015-03-13T11:37:27Z</time>
      </trkpt>
      <trkpt lat="43.58593" lon="6.24509">
        <ele>389.47</ele>
        <time>2015-03-13T11:37:40Z</time>
      </trkpt>
      <trkpt lat="43.58599" lon="6.24506">
        <ele>389.95</ele>
        <time>2015-03-13T11:37:59Z</time>
      </trkpt>
      <trkpt lat="43.58616" lon="6.2451">
        <ele>391.39</ele>
        <time>2015-03-13T11:38:13Z</time>
      </trkpt>
      <trkpt lat="43.5862" lon="6.24513">
        <ele>390.43</ele>
        <time>2015-03-13T11:38:17Z</time>
      </trkpt>
      <trkpt lat="43.58623" lon="6.24515">
        <ele>389.95</ele>
        <time>2015-03-13T11:38:20Z</time>
      </trkpt>
      <trkpt lat="43.58625" lon="6.24517">
        <ele>389.47</ele>
        <time>2015-03-13T11:38:22Z</time>
      </trkpt>
      <trkpt lat="43.58642" lon="6.24524">
        <ele>388.51</ele>
        <time>2015-03-13T11:38:36Z</time>
      </trkpt>
      <trkpt lat="43.58659" lon="6.24527">
        <ele>388.51</ele>
        <time>2015-03-13T11:38:48Z</time>
      </trkpt>
      <trkpt lat="43.58677" lon="6.24544">
        <ele>388.99</ele>
        <time>2015-03-13T11:39:03Z</time>
      </trkpt>
      <trkpt lat="43.58679" lon="6.24565">
        <ele>388.51</ele>
        <time>2015-03-13T11:39:17Z</time>
      </trkpt>
      <trkpt lat="43.58679" lon="6.24567">
        <ele>388.51</ele>
        <time>2015-03-13T11:39:18Z</time>
      </trkpt>
      <trkpt lat="43.58677" lon="6.24575">
        <ele>387.55</ele>
        <time>2015-03-13T11:39:23Z</time>
      </trkpt>
      <trkpt lat="43.58685" lon="6.24586">
        <ele>388.99</ele>
        <time>2015-03-13T11:39:34Z</time>
      </trkpt>
      <trkpt lat="43.58695" lon="6.24576">
        <ele>391.87</ele>
        <time>2015-03-13T11:39:48Z</time>
      </trkpt>
      <trkpt lat="43.58706" lon="6.24565">
        <ele>394.28</ele>
        <time>2015-03-13T11:39:57Z</time>
      </trkpt>
      <trkpt lat="43.58717" lon="6.24554">
        <ele>398.12</ele>
        <time>2015-03-13T11:40:07Z</time>
      </trkpt>
      <trkpt lat="43.58718" lon="6.24549">
        <ele>399.57</ele>
        <time>2015-03-13T11:40:11Z</time>
      </trkpt>
      <trkpt lat="43.5872" lon="6.24544">
        <ele>401.01</ele>
        <time>2015-03-13T11:40:14Z</time>
      </trkpt>
      <trkpt lat="43.58721" lon="6.24531">
        <ele>403.41</ele>
        <time>2015-03-13T11:40:27Z</time>
      </trkpt>
      <trkpt lat="43.58725" lon="6.24521">
        <ele>405.33</ele>
        <time>2015-03-13T11:40:42Z</time>
      </trkpt>
      <trkpt lat="43.58735" lon="6.24509">
        <ele>406.77</ele>
        <time>2015-03-13T11:40:56Z</time>
      </trkpt>
      <trkpt lat="43.58749" lon="6.24501">
        <ele>409.18</ele>
        <time>2015-03-13T11:41:11Z</time>
      </trkpt>
      <trkpt lat="43.58754" lon="6.24504">
        <ele>409.66</ele>
        <time>2015-03-13T11:41:15Z</time>
      </trkpt>
      <trkpt lat="43.58768" lon="6.24506">
        <ele>412.06</ele>
        <time>2015-03-13T11:41:29Z</time>
      </trkpt>
      <trkpt lat="43.58784" lon="6.2451">
        <ele>413.98</ele>
        <time>2015-03-13T11:41:43Z</time>
      </trkpt>
      <trkpt lat="43.58799" lon="6.24511">
        <ele>417.35</ele>
        <time>2015-03-13T11:41:58Z</time>
      </trkpt>
      <trkpt lat="43.58808" lon="6.24518">
        <ele>418.31</ele>
        <time>2015-03-13T11:42:10Z</time>
      </trkpt>
      <trkpt lat="43.58816" lon="6.2452">
        <ele>419.27</ele>
        <time>2015-03-13T11:42:19Z</time>
      </trkpt>
      <trkpt lat="43.5884" lon="6.24524">
        <ele>419.75</ele>
        <time>2015-03-13T11:42:37Z</time>
      </trkpt>
      <trkpt lat="43.58849" lon="6.24523">
        <ele>420.71</ele>
        <time>2015-03-13T11:42:46Z</time>
      </trkpt>
      <trkpt lat="43.58865" lon="6.24532">
        <ele>421.68</ele>
        <time>2015-03-13T11:43:02Z</time>
      </trkpt>
      <trkpt lat="43.58881" lon="6.24538">
        <ele>422.64</ele>
        <time>2015-03-13T11:43:16Z</time>
      </trkpt>
      <trkpt lat="43.58892" lon="6.24542">
        <ele>423.12</ele>
        <time>2015-03-13T11:43:26Z</time>
      </trkpt>
      <trkpt lat="43.58898" lon="6.24544">
        <ele>423.6</ele>
        <time>2015-03-13T11:43:31Z</time>
      </trkpt>
      <trkpt lat="43.58914" lon="6.2455">
        <ele>425.04</ele>
        <time>2015-03-13T11:43:47Z</time>
      </trkpt>
      <trkpt lat="43.58918" lon="6.24551">
        <ele>425.04</ele>
        <time>2015-03-13T11:43:50Z</time>
      </trkpt>
      <trkpt lat="43.58925" lon="6.24569">
        <ele>425.52</ele>
        <time>2015-03-13T11:44:03Z</time>
      </trkpt>
      <trkpt lat="43.58926" lon="6.24571">
        <ele>425.52</ele>
        <time>2015-03-13T11:44:05Z</time>
      </trkpt>
      <trkpt lat="43.58929" lon="6.24597">
        <ele>425.52</ele>
        <time>2015-03-13T11:44:20Z</time>
      </trkpt>
      <trkpt lat="43.58933" lon="6.24624">
        <ele>425.04</ele>
        <time>2015-03-13T11:44:34Z</time>
      </trkpt>
      <trkpt lat="43.58936" lon="6.24635">
        <ele>425.04</ele>
        <time>2015-03-13T11:44:41Z</time>
      </trkpt>
      <trkpt lat="43.58937" lon="6.24639">
        <ele>425.04</ele>
        <time>2015-03-13T11:44:43Z</time>
      </trkpt>
      <trkpt lat="43.5894" lon="6.24651">
        <ele>425.04</ele>
        <time>2015-03-13T11:44:49Z</time>
      </trkpt>
      <trkpt lat="43.5895" lon="6.24675">
        <ele>424.08</ele>
        <time>2015-03-13T11:45:05Z</time>
      </trkpt>
      <trkpt lat="43.5895" lon="6.2468">
        <ele>424.08</ele>
        <time>2015-03-13T11:45:09Z</time>
      </trkpt>
      <trkpt lat="43.58954" lon="6.24681">
        <ele>424.56</ele>
        <time>2015-03-13T11:45:12Z</time>
      </trkpt>
      <trkpt lat="43.58963" lon="6.24687">
        <ele>424.08</ele>
        <time>2015-03-13T11:45:27Z</time>
      </trkpt>
      <trkpt lat="43.5898" lon="6.24707">
        <ele>424.08</ele>
        <time>2015-03-13T11:45:39Z</time>
      </trkpt>
      <trkpt lat="43.58983" lon="6.24723">
        <ele>424.56</ele>
        <time>2015-03-13T11:45:42Z</time>
      </trkpt>
      <trkpt lat="43.58983" lon="6.2474">
        <ele>424.08</ele>
        <time>2015-03-13T11:45:45Z</time>
      </trkpt>
      <trkpt lat="43.58984" lon="6.24746">
        <ele>424.08</ele>
        <time>2015-03-13T11:45:46Z</time>
      </trkpt>
      <trkpt lat="43.58984" lon="6.24753">
        <ele>424.08</ele>
        <time>2015-03-13T11:45:47Z</time>
      </trkpt>
      <trkpt lat="43.58984" lon="6.24768">
        <ele>424.08</ele>
        <time>2015-03-13T11:45:49Z</time>
      </trkpt>
      <trkpt lat="43.58984" lon="6.24775">
        <ele>424.08</ele>
        <time>2015-03-13T11:45:50Z</time>
      </trkpt>
      <trkpt lat="43.58985" lon="6.24782">
        <ele>423.6</ele>
        <time>2015-03-13T11:45:51Z</time>
      </trkpt>
      <trkpt lat="43.58985" lon="6.2479">
        <ele>423.6</ele>
        <time>2015-03-13T11:45:52Z</time>
      </trkpt>
      <trkpt lat="43.58986" lon="6.24797">
        <ele>423.6</ele>
        <time>2015-03-13T11:45:53Z</time>
      </trkpt>
      <trkpt lat="43.58986" lon="6.24806">
        <ele>423.6</ele>
        <time>2015-03-13T11:45:54Z</time>
      </trkpt>
      <trkpt lat="43.58985" lon="6.24813">
        <ele>423.6</ele>
        <time>2015-03-13T11:45:55Z</time>
      </trkpt>
      <trkpt lat="43.58985" lon="6.2482">
        <ele>423.6</ele>
        <time>2015-03-13T11:45:56Z</time>
      </trkpt>
      <trkpt lat="43.58985" lon="6.24825">
        <ele>423.6</ele>
        <time>2015-03-13T11:45:57Z</time>
      </trkpt>
      <trkpt lat="43.58984" lon="6.24832">
        <ele>424.08</ele>
        <time>2015-03-13T11:45:58Z</time>
      </trkpt>
      <trkpt lat="43.58984" lon="6.24852">
        <ele>423.12</ele>
        <time>2015-03-13T11:46:01Z</time>
      </trkpt>
      <trkpt lat="43.58986" lon="6.24859">
        <ele>423.12</ele>
        <time>2015-03-13T11:46:02Z</time>
      </trkpt>
      <trkpt lat="43.5899" lon="6.24867">
        <ele>423.12</ele>
        <time>2015-03-13T11:46:03Z</time>
      </trkpt>
      <trkpt lat="43.58998" lon="6.24882">
        <ele>423.12</ele>
        <time>2015-03-13T11:46:05Z</time>
      </trkpt>
      <trkpt lat="43.5902" lon="6.24916">
        <ele>423.12</ele>
        <time>2015-03-13T11:46:11Z</time>
      </trkpt>
      <trkpt lat="43.59023" lon="6.24923">
        <ele>423.6</ele>
        <time>2015-03-13T11:46:12Z</time>
      </trkpt>
      <trkpt lat="43.59033" lon="6.24948">
        <ele>424.08</ele>
        <time>2015-03-13T11:46:15Z</time>
      </trkpt>
      <trkpt lat="43.59038" lon="6.2495">
        <ele>424.08</ele>
        <time>2015-03-13T11:46:16Z</time>
      </trkpt>
      <trkpt lat="43.59042" lon="6.24949">
        <ele>423.6</ele>
        <time>2015-03-13T11:46:17Z</time>
      </trkpt>
      <trkpt lat="43.59047" lon="6.24947">
        <ele>424.56</ele>
        <time>2015-03-13T11:46:18Z</time>
      </trkpt>
      <trkpt lat="43.59052" lon="6.24943">
        <ele>425.04</ele>
        <time>2015-03-13T11:46:19Z</time>
      </trkpt>
      <trkpt lat="43.59057" lon="6.24939">
        <ele>425.52</ele>
        <time>2015-03-13T11:46:20Z</time>
      </trkpt>
      <trkpt lat="43.59061" lon="6.24935">
        <ele>426</ele>
        <time>2015-03-13T11:46:21Z</time>
      </trkpt>
      <trkpt lat="43.59066" lon="6.24932">
        <ele>426.48</ele>
        <time>2015-03-13T11:46:22Z</time>
      </trkpt>
      <trkpt lat="43.59071" lon="6.24931">
        <ele>426.48</ele>
        <time>2015-03-13T11:46:23Z</time>
      </trkpt>
      <trkpt lat="43.59078" lon="6.24931">
        <ele>426.48</ele>
        <time>2015-03-13T11:46:24Z</time>
      </trkpt>
      <trkpt lat="43.59091" lon="6.24932">
        <ele>426.96</ele>
        <time>2015-03-13T11:46:26Z</time>
      </trkpt>
      <trkpt lat="43.59096" lon="6.24934">
        <ele>426.96</ele>
        <time>2015-03-13T11:46:27Z</time>
      </trkpt>
      <trkpt lat="43.59105" lon="6.24939">
        <ele>427.44</ele>
        <time>2015-03-13T11:46:29Z</time>
      </trkpt>
      <trkpt lat="43.59118" lon="6.24949">
        <ele>427.44</ele>
        <time>2015-03-13T11:46:32Z</time>
      </trkpt>
      <trkpt lat="43.59123" lon="6.24953">
        <ele>427.44</ele>
        <time>2015-03-13T11:46:33Z</time>
      </trkpt>
      <trkpt lat="43.59141" lon="6.24967">
        <ele>428.4</ele>
        <time>2015-03-13T11:46:36Z</time>
      </trkpt>
      <trkpt lat="43.59148" lon="6.24969">
        <ele>428.89</ele>
        <time>2015-03-13T11:46:37Z</time>
      </trkpt>
      <trkpt lat="43.59154" lon="6.24969">
        <ele>429.37</ele>
        <time>2015-03-13T11:46:38Z</time>
      </trkpt>
      <trkpt lat="43.59161" lon="6.24968">
        <ele>429.85</ele>
        <time>2015-03-13T11:46:39Z</time>
      </trkpt>
      <trkpt lat="43.59167" lon="6.24966">
        <ele>429.85</ele>
        <time>2015-03-13T11:46:40Z</time>
      </trkpt>
      <trkpt lat="43.59172" lon="6.24963">
        <ele>430.33</ele>
        <time>2015-03-13T11:46:41Z</time>
      </trkpt>
      <trkpt lat="43.59177" lon="6.24959">
        <ele>430.81</ele>
        <time>2015-03-13T11:46:42Z</time>
      </trkpt>
      <trkpt lat="43.59183" lon="6.24955">
        <ele>431.77</ele>
        <time>2015-03-13T11:46:43Z</time>
      </trkpt>
      <trkpt lat="43.59193" lon="6.24947">
        <ele>432.73</ele>
        <time>2015-03-13T11:46:45Z</time>
      </trkpt>
      <trkpt lat="43.59203" lon="6.24939">
        <ele>434.17</ele>
        <time>2015-03-13T11:46:47Z</time>
      </trkpt>
      <trkpt lat="43.59214" lon="6.24931">
        <ele>435.13</ele>
        <time>2015-03-13T11:46:49Z</time>
      </trkpt>
      <trkpt lat="43.59226" lon="6.24921">
        <ele>436.58</ele>
        <time>2015-03-13T11:46:52Z</time>
      </trkpt>
      <trkpt lat="43.59231" lon="6.24919">
        <ele>437.06</ele>
        <time>2015-03-13T11:46:53Z</time>
      </trkpt>
      <trkpt lat="43.59237" lon="6.24918">
        <ele>436.58</ele>
        <time>2015-03-13T11:46:54Z</time>
      </trkpt>
      <trkpt lat="43.59242" lon="6.24919">
        <ele>436.58</ele>
        <time>2015-03-13T11:46:55Z</time>
      </trkpt>
      <trkpt lat="43.59245" lon="6.24921">
        <ele>437.54</ele>
        <time>2015-03-13T11:46:56Z</time>
      </trkpt>
      <trkpt lat="43.5925" lon="6.24923">
        <ele>437.54</ele>
        <time>2015-03-13T11:46:57Z</time>
      </trkpt>
      <trkpt lat="43.59271" lon="6.24935">
        <ele>438.5</ele>
        <time>2015-03-13T11:47:01Z</time>
      </trkpt>
      <trkpt lat="43.59276" lon="6.24937">
        <ele>438.5</ele>
        <time>2015-03-13T11:47:02Z</time>
      </trkpt>
      <trkpt lat="43.59302" lon="6.24946">
        <ele>440.9</ele>
        <time>2015-03-13T11:47:07Z</time>
      </trkpt>
      <trkpt lat="43.59315" lon="6.24947">
        <ele>441.38</ele>
        <time>2015-03-13T11:47:09Z</time>
      </trkpt>
      <trkpt lat="43.59321" lon="6.24947">
        <ele>441.38</ele>
        <time>2015-03-13T11:47:10Z</time>
      </trkpt>
      <trkpt lat="43.59328" lon="6.24947">
        <ele>440.9</ele>
        <time>2015-03-13T11:47:11Z</time>
      </trkpt>
      <trkpt lat="43.59334" lon="6.24949">
        <ele>441.38</ele>
        <time>2015-03-13T11:47:12Z</time>
      </trkpt>
      <trkpt lat="43.5934" lon="6.2495">
        <ele>440.9</ele>
        <time>2015-03-13T11:47:13Z</time>
      </trkpt>
      <trkpt lat="43.59346" lon="6.24951">
        <ele>440.9</ele>
        <time>2015-03-13T11:47:14Z</time>
      </trkpt>
      <trkpt lat="43.59352" lon="6.24951">
        <ele>441.38</ele>
        <time>2015-03-13T11:47:15Z</time>
      </trkpt>
      <trkpt lat="43.59359" lon="6.2495">
        <ele>441.86</ele>
        <time>2015-03-13T11:47:16Z</time>
      </trkpt>
      <trkpt lat="43.59365" lon="6.24948">
        <ele>441.86</ele>
        <time>2015-03-13T11:47:17Z</time>
      </trkpt>
      <trkpt lat="43.59379" lon="6.24945">
        <ele>441.86</ele>
        <time>2015-03-13T11:47:19Z</time>
      </trkpt>
      <trkpt lat="43.59386" lon="6.24945">
        <ele>441.86</ele>
        <time>2015-03-13T11:47:20Z</time>
      </trkpt>
      <trkpt lat="43.59392" lon="6.24945">
        <ele>441.86</ele>
        <time>2015-03-13T11:47:21Z</time>
      </trkpt>
      <trkpt lat="43.59414" lon="6.24945">
        <ele>441.38</ele>
        <time>2015-03-13T11:47:26Z</time>
      </trkpt>
      <trkpt lat="43.5942" lon="6.24943">
        <ele>440.9</ele>
        <time>2015-03-13T11:47:27Z</time>
      </trkpt>
      <trkpt lat="43.59427" lon="6.24941">
        <ele>440.42</ele>
        <time>2015-03-13T11:47:28Z</time>
      </trkpt>
      <trkpt lat="43.59431" lon="6.24937">
        <ele>439.94</ele>
        <time>2015-03-13T11:47:29Z</time>
      </trkpt>
      <trkpt lat="43.5944" lon="6.24934">
        <ele>439.46</ele>
        <time>2015-03-13T11:47:30Z</time>
      </trkpt>
      <trkpt lat="43.59444" lon="6.24932">
        <ele>439.46</ele>
        <time>2015-03-13T11:47:31Z</time>
      </trkpt>
      <trkpt lat="43.59447" lon="6.2493">
        <ele>439.46</ele>
        <time>2015-03-13T11:47:32Z</time>
      </trkpt>
      <trkpt lat="43.59467" lon="6.24928">
        <ele>438.5</ele>
        <time>2015-03-13T11:47:37Z</time>
      </trkpt>
      <trkpt lat="43.59494" lon="6.24931">
        <ele>437.06</ele>
        <time>2015-03-13T11:47:43Z</time>
      </trkpt>
      <trkpt lat="43.59505" lon="6.24929">
        <ele>437.54</ele>
        <time>2015-03-13T11:47:45Z</time>
      </trkpt>
      <trkpt lat="43.59516" lon="6.24929">
        <ele>436.58</ele>
        <time>2015-03-13T11:47:47Z</time>
      </trkpt>
      <trkpt lat="43.59522" lon="6.24931">
        <ele>436.58</ele>
        <time>2015-03-13T11:47:48Z</time>
      </trkpt>
      <trkpt lat="43.59528" lon="6.24934">
        <ele>436.1</ele>
        <time>2015-03-13T11:47:49Z</time>
      </trkpt>
      <trkpt lat="43.59541" lon="6.24941">
        <ele>436.1</ele>
        <time>2015-03-13T11:47:52Z</time>
      </trkpt>
      <trkpt lat="43.59543" lon="6.24941">
        <ele>436.1</ele>
        <time>2015-03-13T11:47:53Z</time>
      </trkpt>
      <trkpt lat="43.59569" lon="6.24936">
        <ele>436.58</ele>
        <time>2015-03-13T11:48:04Z</time>
      </trkpt>
      <trkpt lat="43.59572" lon="6.24936">
        <ele>436.58</ele>
        <time>2015-03-13T11:48:05Z</time>
      </trkpt>
      <trkpt lat="43.59579" lon="6.24935">
        <ele>436.58</ele>
        <time>2015-03-13T11:48:07Z</time>
      </trkpt>
      <trkpt lat="43.59615" lon="6.24936">
        <ele>437.06</ele>
        <time>2015-03-13T11:48:17Z</time>
      </trkpt>
      <trkpt lat="43.59642" lon="6.2494">
        <ele>438.5</ele>
        <time>2015-03-13T11:48:29Z</time>
      </trkpt>
      <trkpt lat="43.59644" lon="6.2494">
        <ele>438.98</ele>
        <time>2015-03-13T11:48:31Z</time>
      </trkpt>
      <trkpt lat="43.59651" lon="6.24943">
        <ele>438.98</ele>
        <time>2015-03-13T11:48:36Z</time>
      </trkpt>
      <trkpt lat="43.59669" lon="6.24939">
        <ele>438.5</ele>
        <time>2015-03-13T11:48:49Z</time>
      </trkpt>
      <trkpt lat="43.59682" lon="6.24927">
        <ele>435.13</ele>
        <time>2015-03-13T11:49:02Z</time>
      </trkpt>
      <trkpt lat="43.597" lon="6.24925">
        <ele>433.21</ele>
        <time>2015-03-13T11:49:12Z</time>
      </trkpt>
      <trkpt lat="43.59712" lon="6.2492">
        <ele>430.33</ele>
        <time>2015-03-13T11:49:23Z</time>
      </trkpt>
      <trkpt lat="43.59724" lon="6.24912">
        <ele>433.21</ele>
        <time>2015-03-13T11:49:28Z</time>
      </trkpt>
      <trkpt lat="43.59728" lon="6.24882">
        <ele>433.69</ele>
        <time>2015-03-13T11:49:44Z</time>
      </trkpt>
      <trkpt lat="43.59723" lon="6.24865">
        <ele>433.69</ele>
        <time>2015-03-13T11:49:57Z</time>
      </trkpt>
      <trkpt lat="43.59711" lon="6.2485">
        <ele>431.29</ele>
        <time>2015-03-13T11:50:09Z</time>
      </trkpt>
      <trkpt lat="43.59717" lon="6.24828">
        <ele>431.29</ele>
        <time>2015-03-13T11:50:21Z</time>
      </trkpt>
      <trkpt lat="43.59726" lon="6.24797">
        <ele>431.77</ele>
        <time>2015-03-13T11:50:37Z</time>
      </trkpt>
      <trkpt lat="43.59738" lon="6.24773">
        <ele>432.25</ele>
        <time>2015-03-13T11:50:53Z</time>
      </trkpt>
      <trkpt lat="43.59745" lon="6.24765">
        <ele>432.73</ele>
        <time>2015-03-13T11:51:01Z</time>
      </trkpt>
      <trkpt lat="43.59753" lon="6.24731">
        <ele>434.17</ele>
        <time>2015-03-13T11:51:17Z</time>
      </trkpt>
      <trkpt lat="43.59757" lon="6.24715">
        <ele>435.13</ele>
        <time>2015-03-13T11:51:27Z</time>
      </trkpt>
      <trkpt lat="43.59759" lon="6.24709">
        <ele>435.61</ele>
        <time>2015-03-13T11:51:31Z</time>
      </trkpt>
      <trkpt lat="43.5976" lon="6.24703">
        <ele>437.06</ele>
        <time>2015-03-13T11:51:34Z</time>
      </trkpt>
      <trkpt lat="43.5977" lon="6.2468">
        <ele>436.58</ele>
        <time>2015-03-13T11:51:49Z</time>
      </trkpt>
      <trkpt lat="43.59778" lon="6.24657">
        <ele>437.06</ele>
        <time>2015-03-13T11:52:03Z</time>
      </trkpt>
      <trkpt lat="43.59786" lon="6.24636">
        <ele>437.06</ele>
        <time>2015-03-13T11:52:15Z</time>
      </trkpt>
      <trkpt lat="43.59795" lon="6.24609">
        <ele>436.58</ele>
        <time>2015-03-13T11:52:30Z</time>
      </trkpt>
      <trkpt lat="43.59801" lon="6.24598">
        <ele>437.06</ele>
        <time>2015-03-13T11:52:37Z</time>
      </trkpt>
      <trkpt lat="43.59811" lon="6.24569">
        <ele>436.1</ele>
        <time>2015-03-13T11:52:54Z</time>
      </trkpt>
      <trkpt lat="43.59823" lon="6.24541">
        <ele>436.58</ele>
        <time>2015-03-13T11:53:10Z</time>
      </trkpt>
      <trkpt lat="43.59826" lon="6.24536">
        <ele>436.1</ele>
        <time>2015-03-13T11:53:14Z</time>
      </trkpt>
      <trkpt lat="43.59846" lon="6.24544">
        <ele>435.61</ele>
        <time>2015-03-13T11:53:29Z</time>
      </trkpt>
      <trkpt lat="43.59852" lon="6.24548">
        <ele>435.61</ele>
        <time>2015-03-13T11:53:40Z</time>
      </trkpt>
      <trkpt lat="43.59856" lon="6.24551">
        <ele>435.61</ele>
        <time>2015-03-13T11:53:44Z</time>
      </trkpt>
      <trkpt lat="43.5987" lon="6.24568">
        <ele>435.13</ele>
        <time>2015-03-13T11:53:59Z</time>
      </trkpt>
      <trkpt lat="43.59873" lon="6.24578">
        <ele>435.61</ele>
        <time>2015-03-13T11:54:05Z</time>
      </trkpt>
      <trkpt lat="43.59875" lon="6.24595">
        <ele>435.61</ele>
        <time>2015-03-13T11:54:16Z</time>
      </trkpt>
      <trkpt lat="43.5987" lon="6.24603">
        <ele>436.1</ele>
        <time>2015-03-13T11:54:30Z</time>
      </trkpt>
      <trkpt lat="43.59869" lon="6.24634">
        <ele>436.1</ele>
        <time>2015-03-13T11:54:38Z</time>
      </trkpt>
      <trkpt lat="43.59858" lon="6.24679">
        <ele>437.06</ele>
        <time>2015-03-13T11:54:47Z</time>
      </trkpt>
      <trkpt lat="43.59858" lon="6.24685">
        <ele>437.06</ele>
        <time>2015-03-13T11:54:48Z</time>
      </trkpt>
      <trkpt lat="43.59859" lon="6.24691">
        <ele>437.06</ele>
        <time>2015-03-13T11:54:49Z</time>
      </trkpt>
      <trkpt lat="43.59862" lon="6.24698">
        <ele>437.06</ele>
        <time>2015-03-13T11:54:50Z</time>
      </trkpt>
      <trkpt lat="43.59867" lon="6.24705">
        <ele>437.54</ele>
        <time>2015-03-13T11:54:51Z</time>
      </trkpt>
      <trkpt lat="43.59871" lon="6.24711">
        <ele>437.54</ele>
        <time>2015-03-13T11:54:52Z</time>
      </trkpt>
      <trkpt lat="43.59895" lon="6.24745">
        <ele>439.94</ele>
        <time>2015-03-13T11:54:58Z</time>
      </trkpt>
      <trkpt lat="43.59922" lon="6.24783">
        <ele>440.9</ele>
        <time>2015-03-13T11:55:08Z</time>
      </trkpt>
      <trkpt lat="43.5993" lon="6.24795">
        <ele>441.38</ele>
        <time>2015-03-13T11:55:11Z</time>
      </trkpt>
      <trkpt lat="43.59933" lon="6.24799">
        <ele>441.86</ele>
        <time>2015-03-13T11:55:12Z</time>
      </trkpt>
      <trkpt lat="43.59935" lon="6.24803">
        <ele>441.86</ele>
        <time>2015-03-13T11:55:13Z</time>
      </trkpt>
      <trkpt lat="43.59945" lon="6.24816">
        <ele>441.86</ele>
        <time>2015-03-13T11:55:22Z</time>
      </trkpt>
      <trkpt lat="43.59945" lon="6.24816">
        <ele>442.34</ele>
        <time>2015-03-13T11:55:43Z</time>
      </trkpt>
      <trkpt lat="43.59948" lon="6.24819">
        <ele>442.34</ele>
        <time>2015-03-13T11:55:48Z</time>
      </trkpt>
      <trkpt lat="43.59949" lon="6.24819">
        <ele>442.34</ele>
        <time>2015-03-13T11:55:49Z</time>
      </trkpt>
      <trkpt lat="43.5995" lon="6.24819">
        <ele>442.34</ele>
        <time>2015-03-13T11:55:50Z</time>
      </trkpt>
      <trkpt lat="43.59962" lon="6.24817">
        <ele>442.34</ele>
        <time>2015-03-13T11:56:04Z</time>
      </trkpt>
      <trkpt lat="43.59964" lon="6.24818">
        <ele>438.98</ele>
        <time>2015-03-13T11:56:08Z</time>
      </trkpt>
      <trkpt lat="43.59964" lon="6.24818">
        <ele>445.23</ele>
        <time>2015-03-13T11:56:09Z</time>
      </trkpt>
      <trkpt lat="43.59965" lon="6.24817">
        <ele>441.86</ele>
        <time>2015-03-13T11:56:10Z</time>
      </trkpt>
      <trkpt lat="43.59967" lon="6.24818">
        <ele>441.86</ele>
        <time>2015-03-13T11:56:26Z</time>
      </trkpt>
      <trkpt lat="43.59966" lon="6.24817">
        <ele>441.86</ele>
        <time>2015-03-13T11:56:40Z</time>
      </trkpt>
      <trkpt lat="43.59967" lon="6.24818">
        <ele>441.86</ele>
        <time>2015-03-13T11:56:53Z</time>
      </trkpt>
      <trkpt lat="43.59968" lon="6.24819">
        <ele>441.86</ele>
        <time>2015-03-13T11:57:05Z</time>
      </trkpt>
      <trkpt lat="43.59967" lon="6.24819">
        <ele>442.34</ele>
        <time>2015-03-13T11:57:25Z</time>
      </trkpt>
      <trkpt lat="43.59968" lon="6.2482">
        <ele>442.82</ele>
        <time>2015-03-13T11:57:44Z</time>
      </trkpt>
      <trkpt lat="43.59969" lon="6.24821">
        <ele>440.42</ele>
        <time>2015-03-13T11:58:10Z</time>
      </trkpt>
      <trkpt lat="43.59969" lon="6.24821">
        <ele>444.75</ele>
        <time>2015-03-13T11:58:11Z</time>
      </trkpt>
      <trkpt lat="43.59969" lon="6.24821">
        <ele>442.82</ele>
        <time>2015-03-13T11:58:36Z</time>
      </trkpt>
      <trkpt lat="43.59969" lon="6.24821">
        <ele>442.82</ele>
        <time>2015-03-13T11:59:00Z</time>
      </trkpt>
      <trkpt lat="43.5997" lon="6.24822">
        <ele>443.31</ele>
        <time>2015-03-13T11:59:21Z</time>
      </trkpt>
      <trkpt lat="43.5997" lon="6.24823">
        <ele>443.31</ele>
        <time>2015-03-13T11:59:48Z</time>
      </trkpt>
    </trkseg>
  </trk>
</gpx>